<?xml version="1.0" encoding="UTF-8" standalone="no" ?>
<gpx xmlns="http://www.topografix.com/GPX/1/1" xmlns:xsi="http://www.w3.org/2001/XMLSchema-instance" xsi:schemaLocation="http://www.topografix.com/GPX/1/1 http://www.topografix.com/GPX/1/1/gpx.xsd" version="1.1" creator="VisuGPX - https://www.visugpx.com">
  <metadata>
    <name>vtt velleron</name>
    <desc><![CDATA[entre Velleron et la roque sur Pernes; trés joli]]></desc>
  </metadata>
  <trk>
    <name><![CDATA[Sequence 1]]></name>
    <trkseg>
      <trkpt lat="43.96486" lon="5.04541">
        <ele>77</ele>
        <time>2016-09-03T06:10:56Z</time>
      </trkpt>
      <trkpt lat="43.96486" lon="5.04541">
        <ele>77</ele>
        <time>2016-09-03T06:11:00Z</time>
      </trkpt>
      <trkpt lat="43.96486" lon="5.0454">
        <ele>77</ele>
        <time>2016-09-03T06:11:02Z</time>
      </trkpt>
      <trkpt lat="43.96485" lon="5.0454">
        <ele>77</ele>
        <time>2016-09-03T06:11:09Z</time>
      </trkpt>
      <trkpt lat="43.96485" lon="5.0454">
        <ele>77</ele>
        <time>2016-09-03T06:11:16Z</time>
      </trkpt>
      <trkpt lat="43.96488" lon="5.04539">
        <ele>77</ele>
        <time>2016-09-03T06:11:20Z</time>
      </trkpt>
      <trkpt lat="43.96492" lon="5.04537">
        <ele>77</ele>
        <time>2016-09-03T06:11:25Z</time>
      </trkpt>
      <trkpt lat="43.9649" lon="5.04535">
        <ele>77</ele>
        <time>2016-09-03T06:11:27Z</time>
      </trkpt>
      <trkpt lat="43.96487" lon="5.04543">
        <ele>77</ele>
        <time>2016-09-03T06:11:32Z</time>
      </trkpt>
      <trkpt lat="43.9649" lon="5.04537">
        <ele>77</ele>
        <time>2016-09-03T06:11:40Z</time>
      </trkpt>
      <trkpt lat="43.96486" lon="5.04533">
        <ele>77</ele>
        <time>2016-09-03T06:11:42Z</time>
      </trkpt>
      <trkpt lat="43.96478" lon="5.04519">
        <ele>76</ele>
        <time>2016-09-03T06:11:47Z</time>
      </trkpt>
      <trkpt lat="43.96462" lon="5.04515">
        <ele>75</ele>
        <time>2016-09-03T06:11:52Z</time>
      </trkpt>
      <trkpt lat="43.96465" lon="5.04531">
        <ele>76</ele>
        <time>2016-09-03T06:11:57Z</time>
      </trkpt>
      <trkpt lat="43.96468" lon="5.04544">
        <ele>77</ele>
        <time>2016-09-03T06:12:02Z</time>
      </trkpt>
      <trkpt lat="43.96473" lon="5.04557">
        <ele>78</ele>
        <time>2016-09-03T06:12:07Z</time>
      </trkpt>
      <trkpt lat="43.96478" lon="5.04577">
        <ele>79</ele>
        <time>2016-09-03T06:12:15Z</time>
      </trkpt>
      <trkpt lat="43.96484" lon="5.04593">
        <ele>81</ele>
        <time>2016-09-03T06:12:21Z</time>
      </trkpt>
      <trkpt lat="43.96485" lon="5.04595">
        <ele>81</ele>
        <time>2016-09-03T06:12:22Z</time>
      </trkpt>
      <trkpt lat="43.96493" lon="5.04614">
        <ele>82</ele>
        <time>2016-09-03T06:12:31Z</time>
      </trkpt>
      <trkpt lat="43.96494" lon="5.04616">
        <ele>82</ele>
        <time>2016-09-03T06:12:32Z</time>
      </trkpt>
      <trkpt lat="43.96487" lon="5.04627">
        <ele>83</ele>
        <time>2016-09-03T06:12:39Z</time>
      </trkpt>
      <trkpt lat="43.96479" lon="5.04629">
        <ele>83</ele>
        <time>2016-09-03T06:12:42Z</time>
      </trkpt>
      <trkpt lat="43.96464" lon="5.04631">
        <ele>83</ele>
        <time>2016-09-03T06:12:47Z</time>
      </trkpt>
      <trkpt lat="43.96448" lon="5.04638">
        <ele>83</ele>
        <time>2016-09-03T06:12:52Z</time>
      </trkpt>
      <trkpt lat="43.96428" lon="5.04644">
        <ele>84</ele>
        <time>2016-09-03T06:12:57Z</time>
      </trkpt>
      <trkpt lat="43.96411" lon="5.04649">
        <ele>85</ele>
        <time>2016-09-03T06:13:02Z</time>
      </trkpt>
      <trkpt lat="43.96393" lon="5.04657">
        <ele>85</ele>
        <time>2016-09-03T06:13:07Z</time>
      </trkpt>
      <trkpt lat="43.96382" lon="5.04676">
        <ele>86</ele>
        <time>2016-09-03T06:13:12Z</time>
      </trkpt>
      <trkpt lat="43.96378" lon="5.04704">
        <ele>88</ele>
        <time>2016-09-03T06:13:17Z</time>
      </trkpt>
      <trkpt lat="43.96389" lon="5.04731">
        <ele>91</ele>
        <time>2016-09-03T06:13:22Z</time>
      </trkpt>
      <trkpt lat="43.964" lon="5.04756">
        <ele>92</ele>
        <time>2016-09-03T06:13:27Z</time>
      </trkpt>
      <trkpt lat="43.96411" lon="5.04794">
        <ele>94</ele>
        <time>2016-09-03T06:13:33Z</time>
      </trkpt>
      <trkpt lat="43.9641" lon="5.04821">
        <ele>93</ele>
        <time>2016-09-03T06:13:37Z</time>
      </trkpt>
      <trkpt lat="43.964" lon="5.0486">
        <ele>90</ele>
        <time>2016-09-03T06:13:43Z</time>
      </trkpt>
      <trkpt lat="43.9639" lon="5.04894">
        <ele>89</ele>
        <time>2016-09-03T06:13:48Z</time>
      </trkpt>
      <trkpt lat="43.96373" lon="5.04913">
        <ele>88</ele>
        <time>2016-09-03T06:13:52Z</time>
      </trkpt>
      <trkpt lat="43.96347" lon="5.04925">
        <ele>87</ele>
        <time>2016-09-03T06:13:57Z</time>
      </trkpt>
      <trkpt lat="43.96325" lon="5.04937">
        <ele>86</ele>
        <time>2016-09-03T06:14:02Z</time>
      </trkpt>
      <trkpt lat="43.96294" lon="5.04956">
        <ele>86</ele>
        <time>2016-09-03T06:14:09Z</time>
      </trkpt>
      <trkpt lat="43.96285" lon="5.04969">
        <ele>86</ele>
        <time>2016-09-03T06:14:12Z</time>
      </trkpt>
      <trkpt lat="43.96264" lon="5.05004">
        <ele>86</ele>
        <time>2016-09-03T06:14:21Z</time>
      </trkpt>
      <trkpt lat="43.96263" lon="5.05007">
        <ele>87</ele>
        <time>2016-09-03T06:14:22Z</time>
      </trkpt>
      <trkpt lat="43.96257" lon="5.05023">
        <ele>87</ele>
        <time>2016-09-03T06:14:27Z</time>
      </trkpt>
      <trkpt lat="43.96243" lon="5.05049">
        <ele>86</ele>
        <time>2016-09-03T06:14:35Z</time>
      </trkpt>
      <trkpt lat="43.96242" lon="5.05056">
        <ele>86</ele>
        <time>2016-09-03T06:14:37Z</time>
      </trkpt>
      <trkpt lat="43.96236" lon="5.05074">
        <ele>87</ele>
        <time>2016-09-03T06:14:42Z</time>
      </trkpt>
      <trkpt lat="43.96226" lon="5.05093">
        <ele>87</ele>
        <time>2016-09-03T06:14:47Z</time>
      </trkpt>
      <trkpt lat="43.96211" lon="5.05118">
        <ele>87</ele>
        <time>2016-09-03T06:14:52Z</time>
      </trkpt>
      <trkpt lat="43.96192" lon="5.05145">
        <ele>86</ele>
        <time>2016-09-03T06:14:57Z</time>
      </trkpt>
      <trkpt lat="43.96174" lon="5.05174">
        <ele>86</ele>
        <time>2016-09-03T06:15:02Z</time>
      </trkpt>
      <trkpt lat="43.96158" lon="5.05202">
        <ele>86</ele>
        <time>2016-09-03T06:15:07Z</time>
      </trkpt>
      <trkpt lat="43.96147" lon="5.05231">
        <ele>87</ele>
        <time>2016-09-03T06:15:12Z</time>
      </trkpt>
      <trkpt lat="43.9613" lon="5.05288">
        <ele>89</ele>
        <time>2016-09-03T06:15:21Z</time>
      </trkpt>
      <trkpt lat="43.96129" lon="5.05296">
        <ele>89</ele>
        <time>2016-09-03T06:15:22Z</time>
      </trkpt>
      <trkpt lat="43.96132" lon="5.0533">
        <ele>90</ele>
        <time>2016-09-03T06:15:27Z</time>
      </trkpt>
      <trkpt lat="43.96136" lon="5.05363">
        <ele>91</ele>
        <time>2016-09-03T06:15:32Z</time>
      </trkpt>
      <trkpt lat="43.96129" lon="5.05397">
        <ele>90</ele>
        <time>2016-09-03T06:15:37Z</time>
      </trkpt>
      <trkpt lat="43.96113" lon="5.05423">
        <ele>88</ele>
        <time>2016-09-03T06:15:42Z</time>
      </trkpt>
      <trkpt lat="43.96099" lon="5.0545">
        <ele>88</ele>
        <time>2016-09-03T06:15:47Z</time>
      </trkpt>
      <trkpt lat="43.96085" lon="5.05476">
        <ele>88</ele>
        <time>2016-09-03T06:15:52Z</time>
      </trkpt>
      <trkpt lat="43.96077" lon="5.05502">
        <ele>88</ele>
        <time>2016-09-03T06:15:57Z</time>
      </trkpt>
      <trkpt lat="43.96066" lon="5.05526">
        <ele>89</ele>
        <time>2016-09-03T06:16:02Z</time>
      </trkpt>
      <trkpt lat="43.96057" lon="5.05547">
        <ele>89</ele>
        <time>2016-09-03T06:16:07Z</time>
      </trkpt>
      <trkpt lat="43.96044" lon="5.05564">
        <ele>89</ele>
        <time>2016-09-03T06:16:12Z</time>
      </trkpt>
      <trkpt lat="43.96024" lon="5.0555">
        <ele>92</ele>
        <time>2016-09-03T06:16:17Z</time>
      </trkpt>
      <trkpt lat="43.96022" lon="5.05516">
        <ele>92</ele>
        <time>2016-09-03T06:16:22Z</time>
      </trkpt>
      <trkpt lat="43.96024" lon="5.0548">
        <ele>91</ele>
        <time>2016-09-03T06:16:27Z</time>
      </trkpt>
      <trkpt lat="43.96022" lon="5.05442">
        <ele>90</ele>
        <time>2016-09-03T06:16:32Z</time>
      </trkpt>
      <trkpt lat="43.9602" lon="5.05405">
        <ele>88</ele>
        <time>2016-09-03T06:16:37Z</time>
      </trkpt>
      <trkpt lat="43.96008" lon="5.05369">
        <ele>88</ele>
        <time>2016-09-03T06:16:42Z</time>
      </trkpt>
      <trkpt lat="43.95995" lon="5.05337">
        <ele>87</ele>
        <time>2016-09-03T06:16:47Z</time>
      </trkpt>
      <trkpt lat="43.95981" lon="5.05296">
        <ele>84</ele>
        <time>2016-09-03T06:16:53Z</time>
      </trkpt>
      <trkpt lat="43.95967" lon="5.05271">
        <ele>83</ele>
        <time>2016-09-03T06:16:57Z</time>
      </trkpt>
      <trkpt lat="43.95944" lon="5.05249">
        <ele>81</ele>
        <time>2016-09-03T06:17:02Z</time>
      </trkpt>
      <trkpt lat="43.95913" lon="5.05239">
        <ele>79</ele>
        <time>2016-09-03T06:17:08Z</time>
      </trkpt>
      <trkpt lat="43.95892" lon="5.05238">
        <ele>79</ele>
        <time>2016-09-03T06:17:12Z</time>
      </trkpt>
      <trkpt lat="43.95865" lon="5.05251">
        <ele>81</ele>
        <time>2016-09-03T06:17:17Z</time>
      </trkpt>
      <trkpt lat="43.9584" lon="5.0527">
        <ele>83</ele>
        <time>2016-09-03T06:17:22Z</time>
      </trkpt>
      <trkpt lat="43.95814" lon="5.05291">
        <ele>84</ele>
        <time>2016-09-03T06:17:27Z</time>
      </trkpt>
      <trkpt lat="43.9579" lon="5.05311">
        <ele>85</ele>
        <time>2016-09-03T06:17:32Z</time>
      </trkpt>
      <trkpt lat="43.95769" lon="5.0533">
        <ele>86</ele>
        <time>2016-09-03T06:17:37Z</time>
      </trkpt>
      <trkpt lat="43.95756" lon="5.05345">
        <ele>87</ele>
        <time>2016-09-03T06:17:42Z</time>
      </trkpt>
      <trkpt lat="43.95753" lon="5.05364">
        <ele>88</ele>
        <time>2016-09-03T06:17:47Z</time>
      </trkpt>
      <trkpt lat="43.95741" lon="5.05389">
        <ele>89</ele>
        <time>2016-09-03T06:17:52Z</time>
      </trkpt>
      <trkpt lat="43.95721" lon="5.05404">
        <ele>89</ele>
        <time>2016-09-03T06:17:57Z</time>
      </trkpt>
      <trkpt lat="43.95698" lon="5.05407">
        <ele>89</ele>
        <time>2016-09-03T06:18:02Z</time>
      </trkpt>
      <trkpt lat="43.95671" lon="5.05406">
        <ele>89</ele>
        <time>2016-09-03T06:18:08Z</time>
      </trkpt>
      <trkpt lat="43.95649" lon="5.05412">
        <ele>90</ele>
        <time>2016-09-03T06:18:12Z</time>
      </trkpt>
      <trkpt lat="43.95617" lon="5.05455">
        <ele>90</ele>
        <time>2016-09-03T06:18:21Z</time>
      </trkpt>
      <trkpt lat="43.95614" lon="5.05463">
        <ele>90</ele>
        <time>2016-09-03T06:18:22Z</time>
      </trkpt>
      <trkpt lat="43.956" lon="5.05496">
        <ele>89</ele>
        <time>2016-09-03T06:18:27Z</time>
      </trkpt>
      <trkpt lat="43.95581" lon="5.05524">
        <ele>88</ele>
        <time>2016-09-03T06:18:32Z</time>
      </trkpt>
      <trkpt lat="43.95545" lon="5.05561">
        <ele>87</ele>
        <time>2016-09-03T06:18:40Z</time>
      </trkpt>
      <trkpt lat="43.95535" lon="5.05568">
        <ele>87</ele>
        <time>2016-09-03T06:18:42Z</time>
      </trkpt>
      <trkpt lat="43.95509" lon="5.05584">
        <ele>87</ele>
        <time>2016-09-03T06:18:47Z</time>
      </trkpt>
      <trkpt lat="43.95482" lon="5.05601">
        <ele>87</ele>
        <time>2016-09-03T06:18:52Z</time>
      </trkpt>
      <trkpt lat="43.95457" lon="5.05618">
        <ele>87</ele>
        <time>2016-09-03T06:18:57Z</time>
      </trkpt>
      <trkpt lat="43.95432" lon="5.05636">
        <ele>86</ele>
        <time>2016-09-03T06:19:02Z</time>
      </trkpt>
      <trkpt lat="43.95414" lon="5.0566">
        <ele>87</ele>
        <time>2016-09-03T06:19:07Z</time>
      </trkpt>
      <trkpt lat="43.95388" lon="5.05697">
        <ele>88</ele>
        <time>2016-09-03T06:19:15Z</time>
      </trkpt>
      <trkpt lat="43.95384" lon="5.05719">
        <ele>89</ele>
        <time>2016-09-03T06:19:18Z</time>
      </trkpt>
      <trkpt lat="43.95384" lon="5.05751">
        <ele>90</ele>
        <time>2016-09-03T06:19:22Z</time>
      </trkpt>
      <trkpt lat="43.95385" lon="5.05792">
        <ele>91</ele>
        <time>2016-09-03T06:19:27Z</time>
      </trkpt>
      <trkpt lat="43.95387" lon="5.05834">
        <ele>91</ele>
        <time>2016-09-03T06:19:32Z</time>
      </trkpt>
      <trkpt lat="43.95382" lon="5.05871">
        <ele>91</ele>
        <time>2016-09-03T06:19:37Z</time>
      </trkpt>
      <trkpt lat="43.95374" lon="5.05883">
        <ele>90</ele>
        <time>2016-09-03T06:19:42Z</time>
      </trkpt>
      <trkpt lat="43.95374" lon="5.05884">
        <ele>90</ele>
        <time>2016-09-03T06:19:47Z</time>
      </trkpt>
      <trkpt lat="43.95375" lon="5.05884">
        <ele>90</ele>
        <time>2016-09-03T06:19:52Z</time>
      </trkpt>
      <trkpt lat="43.95375" lon="5.05883">
        <ele>90</ele>
        <time>2016-09-03T06:19:57Z</time>
      </trkpt>
      <trkpt lat="43.95375" lon="5.05883">
        <ele>90</ele>
        <time>2016-09-03T06:20:02Z</time>
      </trkpt>
      <trkpt lat="43.95375" lon="5.05883">
        <ele>90</ele>
        <time>2016-09-03T06:20:07Z</time>
      </trkpt>
      <trkpt lat="43.95375" lon="5.05883">
        <ele>90</ele>
        <time>2016-09-03T06:20:12Z</time>
      </trkpt>
      <trkpt lat="43.95375" lon="5.05883">
        <ele>90</ele>
        <time>2016-09-03T06:20:17Z</time>
      </trkpt>
      <trkpt lat="43.95375" lon="5.05883">
        <ele>90</ele>
        <time>2016-09-03T06:20:22Z</time>
      </trkpt>
      <trkpt lat="43.95375" lon="5.05883">
        <ele>90</ele>
        <time>2016-09-03T06:20:27Z</time>
      </trkpt>
      <trkpt lat="43.95375" lon="5.05882">
        <ele>90</ele>
        <time>2016-09-03T06:20:32Z</time>
      </trkpt>
      <trkpt lat="43.95375" lon="5.05882">
        <ele>90</ele>
        <time>2016-09-03T06:20:37Z</time>
      </trkpt>
      <trkpt lat="43.95375" lon="5.05882">
        <ele>90</ele>
        <time>2016-09-03T06:20:42Z</time>
      </trkpt>
      <trkpt lat="43.95375" lon="5.05882">
        <ele>90</ele>
        <time>2016-09-03T06:20:47Z</time>
      </trkpt>
      <trkpt lat="43.95375" lon="5.05882">
        <ele>90</ele>
        <time>2016-09-03T06:20:52Z</time>
      </trkpt>
      <trkpt lat="43.95375" lon="5.05882">
        <ele>90</ele>
        <time>2016-09-03T06:20:57Z</time>
      </trkpt>
      <trkpt lat="43.95375" lon="5.05881">
        <ele>90</ele>
        <time>2016-09-03T06:21:02Z</time>
      </trkpt>
      <trkpt lat="43.95374" lon="5.05883">
        <ele>90</ele>
        <time>2016-09-03T06:21:07Z</time>
      </trkpt>
      <trkpt lat="43.95372" lon="5.05882">
        <ele>90</ele>
        <time>2016-09-03T06:21:12Z</time>
      </trkpt>
      <trkpt lat="43.95374" lon="5.05884">
        <ele>90</ele>
        <time>2016-09-03T06:21:17Z</time>
      </trkpt>
      <trkpt lat="43.95375" lon="5.05881">
        <ele>90</ele>
        <time>2016-09-03T06:21:22Z</time>
      </trkpt>
      <trkpt lat="43.95375" lon="5.05881">
        <ele>90</ele>
        <time>2016-09-03T06:21:27Z</time>
      </trkpt>
      <trkpt lat="43.95376" lon="5.05881">
        <ele>90</ele>
        <time>2016-09-03T06:21:32Z</time>
      </trkpt>
      <trkpt lat="43.95376" lon="5.05881">
        <ele>90</ele>
        <time>2016-09-03T06:21:37Z</time>
      </trkpt>
      <trkpt lat="43.95376" lon="5.05881">
        <ele>90</ele>
        <time>2016-09-03T06:21:42Z</time>
      </trkpt>
      <trkpt lat="43.95376" lon="5.05881">
        <ele>90</ele>
        <time>2016-09-03T06:21:47Z</time>
      </trkpt>
      <trkpt lat="43.95376" lon="5.05881">
        <ele>90</ele>
        <time>2016-09-03T06:21:52Z</time>
      </trkpt>
      <trkpt lat="43.95376" lon="5.05881">
        <ele>90</ele>
        <time>2016-09-03T06:21:57Z</time>
      </trkpt>
      <trkpt lat="43.95376" lon="5.05881">
        <ele>90</ele>
        <time>2016-09-03T06:22:02Z</time>
      </trkpt>
      <trkpt lat="43.95376" lon="5.05881">
        <ele>90</ele>
        <time>2016-09-03T06:22:07Z</time>
      </trkpt>
      <trkpt lat="43.95376" lon="5.05881">
        <ele>90</ele>
        <time>2016-09-03T06:22:12Z</time>
      </trkpt>
      <trkpt lat="43.95376" lon="5.05881">
        <ele>90</ele>
        <time>2016-09-03T06:22:17Z</time>
      </trkpt>
      <trkpt lat="43.95376" lon="5.05877">
        <ele>91</ele>
        <time>2016-09-03T06:22:22Z</time>
      </trkpt>
      <trkpt lat="43.95386" lon="5.05864">
        <ele>91</ele>
        <time>2016-09-03T06:22:27Z</time>
      </trkpt>
      <trkpt lat="43.95389" lon="5.05841">
        <ele>92</ele>
        <time>2016-09-03T06:22:32Z</time>
      </trkpt>
      <trkpt lat="43.95388" lon="5.05814">
        <ele>91</ele>
        <time>2016-09-03T06:22:37Z</time>
      </trkpt>
      <trkpt lat="43.95386" lon="5.05785">
        <ele>91</ele>
        <time>2016-09-03T06:22:42Z</time>
      </trkpt>
      <trkpt lat="43.95384" lon="5.05757">
        <ele>90</ele>
        <time>2016-09-03T06:22:47Z</time>
      </trkpt>
      <trkpt lat="43.95383" lon="5.05728">
        <ele>89</ele>
        <time>2016-09-03T06:22:52Z</time>
      </trkpt>
      <trkpt lat="43.95387" lon="5.05697">
        <ele>88</ele>
        <time>2016-09-03T06:22:57Z</time>
      </trkpt>
      <trkpt lat="43.95401" lon="5.05674">
        <ele>87</ele>
        <time>2016-09-03T06:23:02Z</time>
      </trkpt>
      <trkpt lat="43.95417" lon="5.05653">
        <ele>87</ele>
        <time>2016-09-03T06:23:07Z</time>
      </trkpt>
      <trkpt lat="43.95443" lon="5.05625">
        <ele>86</ele>
        <time>2016-09-03T06:23:14Z</time>
      </trkpt>
      <trkpt lat="43.95457" lon="5.05617">
        <ele>87</ele>
        <time>2016-09-03T06:23:17Z</time>
      </trkpt>
      <trkpt lat="43.95479" lon="5.05604">
        <ele>87</ele>
        <time>2016-09-03T06:23:22Z</time>
      </trkpt>
      <trkpt lat="43.95501" lon="5.05593">
        <ele>87</ele>
        <time>2016-09-03T06:23:27Z</time>
      </trkpt>
      <trkpt lat="43.95523" lon="5.05578">
        <ele>87</ele>
        <time>2016-09-03T06:23:32Z</time>
      </trkpt>
      <trkpt lat="43.95545" lon="5.05563">
        <ele>87</ele>
        <time>2016-09-03T06:23:37Z</time>
      </trkpt>
      <trkpt lat="43.95564" lon="5.05545">
        <ele>88</ele>
        <time>2016-09-03T06:23:42Z</time>
      </trkpt>
      <trkpt lat="43.9558" lon="5.05524">
        <ele>88</ele>
        <time>2016-09-03T06:23:47Z</time>
      </trkpt>
      <trkpt lat="43.95596" lon="5.05501">
        <ele>89</ele>
        <time>2016-09-03T06:23:52Z</time>
      </trkpt>
      <trkpt lat="43.95609" lon="5.05475">
        <ele>90</ele>
        <time>2016-09-03T06:23:57Z</time>
      </trkpt>
      <trkpt lat="43.95619" lon="5.05446">
        <ele>90</ele>
        <time>2016-09-03T06:24:01Z</time>
      </trkpt>
      <trkpt lat="43.95632" lon="5.05418">
        <ele>90</ele>
        <time>2016-09-03T06:24:07Z</time>
      </trkpt>
      <trkpt lat="43.95655" lon="5.05405">
        <ele>89</ele>
        <time>2016-09-03T06:24:13Z</time>
      </trkpt>
      <trkpt lat="43.95672" lon="5.05406">
        <ele>89</ele>
        <time>2016-09-03T06:24:17Z</time>
      </trkpt>
      <trkpt lat="43.95707" lon="5.05405">
        <ele>89</ele>
        <time>2016-09-03T06:24:25Z</time>
      </trkpt>
      <trkpt lat="43.95716" lon="5.05404">
        <ele>89</ele>
        <time>2016-09-03T06:24:27Z</time>
      </trkpt>
      <trkpt lat="43.95736" lon="5.0539">
        <ele>89</ele>
        <time>2016-09-03T06:24:32Z</time>
      </trkpt>
      <trkpt lat="43.95752" lon="5.05361">
        <ele>87</ele>
        <time>2016-09-03T06:24:39Z</time>
      </trkpt>
      <trkpt lat="43.95754" lon="5.05351">
        <ele>87</ele>
        <time>2016-09-03T06:24:42Z</time>
      </trkpt>
      <trkpt lat="43.95768" lon="5.05329">
        <ele>86</ele>
        <time>2016-09-03T06:24:47Z</time>
      </trkpt>
      <trkpt lat="43.95792" lon="5.05311">
        <ele>85</ele>
        <time>2016-09-03T06:24:52Z</time>
      </trkpt>
      <trkpt lat="43.95814" lon="5.05291">
        <ele>84</ele>
        <time>2016-09-03T06:24:57Z</time>
      </trkpt>
      <trkpt lat="43.95838" lon="5.05273">
        <ele>83</ele>
        <time>2016-09-03T06:25:02Z</time>
      </trkpt>
      <trkpt lat="43.95862" lon="5.05256">
        <ele>82</ele>
        <time>2016-09-03T06:25:07Z</time>
      </trkpt>
      <trkpt lat="43.95885" lon="5.05243">
        <ele>80</ele>
        <time>2016-09-03T06:25:12Z</time>
      </trkpt>
      <trkpt lat="43.9591" lon="5.0524">
        <ele>80</ele>
        <time>2016-09-03T06:25:17Z</time>
      </trkpt>
      <trkpt lat="43.95933" lon="5.05245">
        <ele>81</ele>
        <time>2016-09-03T06:25:22Z</time>
      </trkpt>
      <trkpt lat="43.95956" lon="5.05258">
        <ele>82</ele>
        <time>2016-09-03T06:25:27Z</time>
      </trkpt>
      <trkpt lat="43.95973" lon="5.05282">
        <ele>84</ele>
        <time>2016-09-03T06:25:32Z</time>
      </trkpt>
      <trkpt lat="43.95984" lon="5.05314">
        <ele>86</ele>
        <time>2016-09-03T06:25:37Z</time>
      </trkpt>
      <trkpt lat="43.95995" lon="5.0534">
        <ele>87</ele>
        <time>2016-09-03T06:25:42Z</time>
      </trkpt>
      <trkpt lat="43.96005" lon="5.05367">
        <ele>88</ele>
        <time>2016-09-03T06:25:47Z</time>
      </trkpt>
      <trkpt lat="43.96015" lon="5.05397">
        <ele>89</ele>
        <time>2016-09-03T06:25:52Z</time>
      </trkpt>
      <trkpt lat="43.9602" lon="5.05431">
        <ele>90</ele>
        <time>2016-09-03T06:25:57Z</time>
      </trkpt>
      <trkpt lat="43.96021" lon="5.05463">
        <ele>91</ele>
        <time>2016-09-03T06:26:02Z</time>
      </trkpt>
      <trkpt lat="43.96021" lon="5.05498">
        <ele>92</ele>
        <time>2016-09-03T06:26:07Z</time>
      </trkpt>
      <trkpt lat="43.96019" lon="5.05534">
        <ele>93</ele>
        <time>2016-09-03T06:26:12Z</time>
      </trkpt>
      <trkpt lat="43.9603" lon="5.05562">
        <ele>91</ele>
        <time>2016-09-03T06:26:17Z</time>
      </trkpt>
      <trkpt lat="43.96048" lon="5.0556">
        <ele>89</ele>
        <time>2016-09-03T06:26:22Z</time>
      </trkpt>
      <trkpt lat="43.96055" lon="5.05553">
        <ele>89</ele>
        <time>2016-09-03T06:26:27Z</time>
      </trkpt>
      <trkpt lat="43.96057" lon="5.05552">
        <ele>89</ele>
        <time>2016-09-03T06:26:32Z</time>
      </trkpt>
      <trkpt lat="43.96056" lon="5.05553">
        <ele>89</ele>
        <time>2016-09-03T06:26:37Z</time>
      </trkpt>
      <trkpt lat="43.96058" lon="5.05555">
        <ele>89</ele>
        <time>2016-09-03T06:26:42Z</time>
      </trkpt>
      <trkpt lat="43.96063" lon="5.05563">
        <ele>90</ele>
        <time>2016-09-03T06:26:47Z</time>
      </trkpt>
      <trkpt lat="43.96064" lon="5.05576">
        <ele>90</ele>
        <time>2016-09-03T06:26:52Z</time>
      </trkpt>
      <trkpt lat="43.96052" lon="5.0559">
        <ele>90</ele>
        <time>2016-09-03T06:26:57Z</time>
      </trkpt>
      <trkpt lat="43.96046" lon="5.05605">
        <ele>90</ele>
        <time>2016-09-03T06:27:02Z</time>
      </trkpt>
      <trkpt lat="43.96042" lon="5.05622">
        <ele>91</ele>
        <time>2016-09-03T06:27:07Z</time>
      </trkpt>
      <trkpt lat="43.96039" lon="5.05634">
        <ele>91</ele>
        <time>2016-09-03T06:27:12Z</time>
      </trkpt>
      <trkpt lat="43.96039" lon="5.05627">
        <ele>91</ele>
        <time>2016-09-03T06:27:17Z</time>
      </trkpt>
      <trkpt lat="43.96044" lon="5.05614">
        <ele>91</ele>
        <time>2016-09-03T06:27:22Z</time>
      </trkpt>
      <trkpt lat="43.9605" lon="5.05597">
        <ele>90</ele>
        <time>2016-09-03T06:27:27Z</time>
      </trkpt>
      <trkpt lat="43.96059" lon="5.05579">
        <ele>90</ele>
        <time>2016-09-03T06:27:32Z</time>
      </trkpt>
      <trkpt lat="43.96062" lon="5.05588">
        <ele>91</ele>
        <time>2016-09-03T06:27:37Z</time>
      </trkpt>
      <trkpt lat="43.96054" lon="5.05608">
        <ele>91</ele>
        <time>2016-09-03T06:27:42Z</time>
      </trkpt>
      <trkpt lat="43.96051" lon="5.05628">
        <ele>91</ele>
        <time>2016-09-03T06:27:47Z</time>
      </trkpt>
      <trkpt lat="43.96055" lon="5.05642">
        <ele>92</ele>
        <time>2016-09-03T06:27:52Z</time>
      </trkpt>
      <trkpt lat="43.96064" lon="5.05648">
        <ele>93</ele>
        <time>2016-09-03T06:27:57Z</time>
      </trkpt>
      <trkpt lat="43.96076" lon="5.05653">
        <ele>94</ele>
        <time>2016-09-03T06:28:05Z</time>
      </trkpt>
      <trkpt lat="43.9608" lon="5.05656">
        <ele>95</ele>
        <time>2016-09-03T06:28:07Z</time>
      </trkpt>
      <trkpt lat="43.9609" lon="5.05659">
        <ele>96</ele>
        <time>2016-09-03T06:28:12Z</time>
      </trkpt>
      <trkpt lat="43.96099" lon="5.05663">
        <ele>98</ele>
        <time>2016-09-03T06:28:17Z</time>
      </trkpt>
      <trkpt lat="43.96108" lon="5.05665">
        <ele>99</ele>
        <time>2016-09-03T06:28:22Z</time>
      </trkpt>
      <trkpt lat="43.96116" lon="5.05667">
        <ele>100</ele>
        <time>2016-09-03T06:28:27Z</time>
      </trkpt>
      <trkpt lat="43.96125" lon="5.0567">
        <ele>102</ele>
        <time>2016-09-03T06:28:32Z</time>
      </trkpt>
      <trkpt lat="43.96135" lon="5.05674">
        <ele>103</ele>
        <time>2016-09-03T06:28:37Z</time>
      </trkpt>
      <trkpt lat="43.96143" lon="5.05679">
        <ele>104</ele>
        <time>2016-09-03T06:28:42Z</time>
      </trkpt>
      <trkpt lat="43.96151" lon="5.05686">
        <ele>105</ele>
        <time>2016-09-03T06:28:47Z</time>
      </trkpt>
      <trkpt lat="43.96159" lon="5.05692">
        <ele>106</ele>
        <time>2016-09-03T06:28:52Z</time>
      </trkpt>
      <trkpt lat="43.96168" lon="5.05698">
        <ele>107</ele>
        <time>2016-09-03T06:28:57Z</time>
      </trkpt>
      <trkpt lat="43.96179" lon="5.05701">
        <ele>108</ele>
        <time>2016-09-03T06:29:02Z</time>
      </trkpt>
      <trkpt lat="43.96188" lon="5.05703">
        <ele>109</ele>
        <time>2016-09-03T06:29:07Z</time>
      </trkpt>
      <trkpt lat="43.96197" lon="5.05704">
        <ele>111</ele>
        <time>2016-09-03T06:29:12Z</time>
      </trkpt>
      <trkpt lat="43.96208" lon="5.05705">
        <ele>112</ele>
        <time>2016-09-03T06:29:17Z</time>
      </trkpt>
      <trkpt lat="43.96216" lon="5.05705">
        <ele>113</ele>
        <time>2016-09-03T06:29:22Z</time>
      </trkpt>
      <trkpt lat="43.96225" lon="5.05711">
        <ele>114</ele>
        <time>2016-09-03T06:29:27Z</time>
      </trkpt>
      <trkpt lat="43.96234" lon="5.05715">
        <ele>116</ele>
        <time>2016-09-03T06:29:32Z</time>
      </trkpt>
      <trkpt lat="43.96245" lon="5.05715">
        <ele>117</ele>
        <time>2016-09-03T06:29:37Z</time>
      </trkpt>
      <trkpt lat="43.96254" lon="5.05718">
        <ele>118</ele>
        <time>2016-09-03T06:29:42Z</time>
      </trkpt>
      <trkpt lat="43.96263" lon="5.05722">
        <ele>120</ele>
        <time>2016-09-03T06:29:47Z</time>
      </trkpt>
      <trkpt lat="43.96271" lon="5.05725">
        <ele>121</ele>
        <time>2016-09-03T06:29:52Z</time>
      </trkpt>
      <trkpt lat="43.96278" lon="5.05727">
        <ele>122</ele>
        <time>2016-09-03T06:29:57Z</time>
      </trkpt>
      <trkpt lat="43.96287" lon="5.0573">
        <ele>123</ele>
        <time>2016-09-03T06:30:02Z</time>
      </trkpt>
      <trkpt lat="43.96295" lon="5.05734">
        <ele>125</ele>
        <time>2016-09-03T06:30:07Z</time>
      </trkpt>
      <trkpt lat="43.96303" lon="5.05735">
        <ele>127</ele>
        <time>2016-09-03T06:30:12Z</time>
      </trkpt>
      <trkpt lat="43.96311" lon="5.05734">
        <ele>127</ele>
        <time>2016-09-03T06:30:17Z</time>
      </trkpt>
      <trkpt lat="43.96316" lon="5.05731">
        <ele>128</ele>
        <time>2016-09-03T06:30:22Z</time>
      </trkpt>
      <trkpt lat="43.96322" lon="5.05732">
        <ele>128</ele>
        <time>2016-09-03T06:30:27Z</time>
      </trkpt>
      <trkpt lat="43.96329" lon="5.05734">
        <ele>128</ele>
        <time>2016-09-03T06:30:32Z</time>
      </trkpt>
      <trkpt lat="43.96332" lon="5.05741">
        <ele>129</ele>
        <time>2016-09-03T06:30:37Z</time>
      </trkpt>
      <trkpt lat="43.96333" lon="5.05741">
        <ele>129</ele>
        <time>2016-09-03T06:30:42Z</time>
      </trkpt>
      <trkpt lat="43.96334" lon="5.0574">
        <ele>128</ele>
        <time>2016-09-03T06:30:47Z</time>
      </trkpt>
      <trkpt lat="43.96334" lon="5.0574">
        <ele>128</ele>
        <time>2016-09-03T06:30:52Z</time>
      </trkpt>
      <trkpt lat="43.96334" lon="5.0574">
        <ele>128</ele>
        <time>2016-09-03T06:30:57Z</time>
      </trkpt>
      <trkpt lat="43.96334" lon="5.0574">
        <ele>128</ele>
        <time>2016-09-03T06:31:02Z</time>
      </trkpt>
      <trkpt lat="43.96334" lon="5.0574">
        <ele>128</ele>
        <time>2016-09-03T06:31:07Z</time>
      </trkpt>
      <trkpt lat="43.96334" lon="5.0574">
        <ele>128</ele>
        <time>2016-09-03T06:31:14Z</time>
      </trkpt>
      <trkpt lat="43.96335" lon="5.0574">
        <ele>128</ele>
        <time>2016-09-03T06:31:17Z</time>
      </trkpt>
      <trkpt lat="43.96344" lon="5.05742">
        <ele>128</ele>
        <time>2016-09-03T06:31:22Z</time>
      </trkpt>
      <trkpt lat="43.96353" lon="5.05738">
        <ele>127</ele>
        <time>2016-09-03T06:31:27Z</time>
      </trkpt>
      <trkpt lat="43.96356" lon="5.05745">
        <ele>128</ele>
        <time>2016-09-03T06:31:32Z</time>
      </trkpt>
      <trkpt lat="43.96358" lon="5.05753">
        <ele>129</ele>
        <time>2016-09-03T06:31:37Z</time>
      </trkpt>
      <trkpt lat="43.96361" lon="5.05762">
        <ele>130</ele>
        <time>2016-09-03T06:31:42Z</time>
      </trkpt>
      <trkpt lat="43.9636" lon="5.05771">
        <ele>130</ele>
        <time>2016-09-03T06:31:47Z</time>
      </trkpt>
      <trkpt lat="43.96357" lon="5.05778">
        <ele>131</ele>
        <time>2016-09-03T06:31:52Z</time>
      </trkpt>
      <trkpt lat="43.96356" lon="5.05783">
        <ele>131</ele>
        <time>2016-09-03T06:31:57Z</time>
      </trkpt>
      <trkpt lat="43.96356" lon="5.05783">
        <ele>131</ele>
        <time>2016-09-03T06:32:02Z</time>
      </trkpt>
      <trkpt lat="43.96356" lon="5.05783">
        <ele>131</ele>
        <time>2016-09-03T06:32:07Z</time>
      </trkpt>
      <trkpt lat="43.96356" lon="5.05783">
        <ele>131</ele>
        <time>2016-09-03T06:32:12Z</time>
      </trkpt>
      <trkpt lat="43.96356" lon="5.05783">
        <ele>131</ele>
        <time>2016-09-03T06:32:17Z</time>
      </trkpt>
      <trkpt lat="43.96356" lon="5.05783">
        <ele>131</ele>
        <time>2016-09-03T06:32:22Z</time>
      </trkpt>
      <trkpt lat="43.96356" lon="5.05783">
        <ele>131</ele>
        <time>2016-09-03T06:32:27Z</time>
      </trkpt>
      <trkpt lat="43.96356" lon="5.05783">
        <ele>131</ele>
        <time>2016-09-03T06:32:32Z</time>
      </trkpt>
      <trkpt lat="43.96356" lon="5.05783">
        <ele>131</ele>
        <time>2016-09-03T06:32:37Z</time>
      </trkpt>
      <trkpt lat="43.96356" lon="5.05783">
        <ele>131</ele>
        <time>2016-09-03T06:32:42Z</time>
      </trkpt>
      <trkpt lat="43.96356" lon="5.05783">
        <ele>131</ele>
        <time>2016-09-03T06:32:47Z</time>
      </trkpt>
      <trkpt lat="43.96355" lon="5.05784">
        <ele>131</ele>
        <time>2016-09-03T06:32:52Z</time>
      </trkpt>
      <trkpt lat="43.96352" lon="5.05795">
        <ele>132</ele>
        <time>2016-09-03T06:32:57Z</time>
      </trkpt>
      <trkpt lat="43.96336" lon="5.05806">
        <ele>131</ele>
        <time>2016-09-03T06:33:02Z</time>
      </trkpt>
      <trkpt lat="43.96313" lon="5.05809">
        <ele>129</ele>
        <time>2016-09-03T06:33:06Z</time>
      </trkpt>
      <trkpt lat="43.96287" lon="5.05813">
        <ele>125</ele>
        <time>2016-09-03T06:33:12Z</time>
      </trkpt>
      <trkpt lat="43.96271" lon="5.05811">
        <ele>123</ele>
        <time>2016-09-03T06:33:17Z</time>
      </trkpt>
      <trkpt lat="43.96259" lon="5.05813">
        <ele>121</ele>
        <time>2016-09-03T06:33:22Z</time>
      </trkpt>
      <trkpt lat="43.96251" lon="5.05819">
        <ele>120</ele>
        <time>2016-09-03T06:33:27Z</time>
      </trkpt>
      <trkpt lat="43.96241" lon="5.05833">
        <ele>120</ele>
        <time>2016-09-03T06:33:32Z</time>
      </trkpt>
      <trkpt lat="43.96234" lon="5.05846">
        <ele>120</ele>
        <time>2016-09-03T06:33:37Z</time>
      </trkpt>
      <trkpt lat="43.96218" lon="5.05841">
        <ele>118</ele>
        <time>2016-09-03T06:33:42Z</time>
      </trkpt>
      <trkpt lat="43.96209" lon="5.05844">
        <ele>117</ele>
        <time>2016-09-03T06:33:47Z</time>
      </trkpt>
      <trkpt lat="43.96202" lon="5.05845">
        <ele>117</ele>
        <time>2016-09-03T06:33:52Z</time>
      </trkpt>
      <trkpt lat="43.96192" lon="5.05845">
        <ele>116</ele>
        <time>2016-09-03T06:33:57Z</time>
      </trkpt>
      <trkpt lat="43.96189" lon="5.05852">
        <ele>115</ele>
        <time>2016-09-03T06:34:02Z</time>
      </trkpt>
      <trkpt lat="43.96188" lon="5.05856">
        <ele>115</ele>
        <time>2016-09-03T06:34:07Z</time>
      </trkpt>
      <trkpt lat="43.96181" lon="5.05866">
        <ele>113</ele>
        <time>2016-09-03T06:34:12Z</time>
      </trkpt>
      <trkpt lat="43.96178" lon="5.05874">
        <ele>113</ele>
        <time>2016-09-03T06:34:17Z</time>
      </trkpt>
      <trkpt lat="43.96174" lon="5.05877">
        <ele>112</ele>
        <time>2016-09-03T06:34:22Z</time>
      </trkpt>
      <trkpt lat="43.96175" lon="5.05877">
        <ele>112</ele>
        <time>2016-09-03T06:34:27Z</time>
      </trkpt>
      <trkpt lat="43.96174" lon="5.05877">
        <ele>112</ele>
        <time>2016-09-03T06:34:32Z</time>
      </trkpt>
      <trkpt lat="43.96171" lon="5.05877">
        <ele>111</ele>
        <time>2016-09-03T06:34:37Z</time>
      </trkpt>
      <trkpt lat="43.96169" lon="5.05879">
        <ele>110</ele>
        <time>2016-09-03T06:34:42Z</time>
      </trkpt>
      <trkpt lat="43.96169" lon="5.05885">
        <ele>110</ele>
        <time>2016-09-03T06:34:47Z</time>
      </trkpt>
      <trkpt lat="43.96169" lon="5.05886">
        <ele>110</ele>
        <time>2016-09-03T06:34:52Z</time>
      </trkpt>
      <trkpt lat="43.96169" lon="5.05886">
        <ele>110</ele>
        <time>2016-09-03T06:34:57Z</time>
      </trkpt>
      <trkpt lat="43.9617" lon="5.05886">
        <ele>110</ele>
        <time>2016-09-03T06:35:02Z</time>
      </trkpt>
      <trkpt lat="43.9617" lon="5.05886">
        <ele>110</ele>
        <time>2016-09-03T06:35:07Z</time>
      </trkpt>
      <trkpt lat="43.9617" lon="5.05886">
        <ele>110</ele>
        <time>2016-09-03T06:35:12Z</time>
      </trkpt>
      <trkpt lat="43.9617" lon="5.05886">
        <ele>110</ele>
        <time>2016-09-03T06:35:17Z</time>
      </trkpt>
      <trkpt lat="43.9617" lon="5.05886">
        <ele>110</ele>
        <time>2016-09-03T06:35:22Z</time>
      </trkpt>
      <trkpt lat="43.9617" lon="5.05886">
        <ele>110</ele>
        <time>2016-09-03T06:35:27Z</time>
      </trkpt>
      <trkpt lat="43.9617" lon="5.05886">
        <ele>110</ele>
        <time>2016-09-03T06:35:32Z</time>
      </trkpt>
      <trkpt lat="43.9617" lon="5.05886">
        <ele>110</ele>
        <time>2016-09-03T06:35:37Z</time>
      </trkpt>
      <trkpt lat="43.9617" lon="5.05886">
        <ele>110</ele>
        <time>2016-09-03T06:35:42Z</time>
      </trkpt>
      <trkpt lat="43.9617" lon="5.05886">
        <ele>110</ele>
        <time>2016-09-03T06:35:47Z</time>
      </trkpt>
      <trkpt lat="43.9617" lon="5.05885">
        <ele>110</ele>
        <time>2016-09-03T06:35:52Z</time>
      </trkpt>
      <trkpt lat="43.96168" lon="5.05887">
        <ele>110</ele>
        <time>2016-09-03T06:35:57Z</time>
      </trkpt>
      <trkpt lat="43.96164" lon="5.05884">
        <ele>109</ele>
        <time>2016-09-03T06:36:02Z</time>
      </trkpt>
      <trkpt lat="43.96156" lon="5.05872">
        <ele>108</ele>
        <time>2016-09-03T06:36:07Z</time>
      </trkpt>
      <trkpt lat="43.96139" lon="5.05863">
        <ele>105</ele>
        <time>2016-09-03T06:36:12Z</time>
      </trkpt>
      <trkpt lat="43.96124" lon="5.05846">
        <ele>103</ele>
        <time>2016-09-03T06:36:17Z</time>
      </trkpt>
      <trkpt lat="43.96104" lon="5.05826">
        <ele>101</ele>
        <time>2016-09-03T06:36:22Z</time>
      </trkpt>
      <trkpt lat="43.96082" lon="5.05816">
        <ele>100</ele>
        <time>2016-09-03T06:36:27Z</time>
      </trkpt>
      <trkpt lat="43.9607" lon="5.05798">
        <ele>100</ele>
        <time>2016-09-03T06:36:32Z</time>
      </trkpt>
      <trkpt lat="43.96062" lon="5.05802">
        <ele>100</ele>
        <time>2016-09-03T06:36:37Z</time>
      </trkpt>
      <trkpt lat="43.9607" lon="5.0581">
        <ele>100</ele>
        <time>2016-09-03T06:36:42Z</time>
      </trkpt>
      <trkpt lat="43.96078" lon="5.0582">
        <ele>100</ele>
        <time>2016-09-03T06:36:47Z</time>
      </trkpt>
      <trkpt lat="43.96088" lon="5.05829">
        <ele>100</ele>
        <time>2016-09-03T06:36:52Z</time>
      </trkpt>
      <trkpt lat="43.96099" lon="5.05838">
        <ele>100</ele>
        <time>2016-09-03T06:36:57Z</time>
      </trkpt>
      <trkpt lat="43.96111" lon="5.0585">
        <ele>100</ele>
        <time>2016-09-03T06:37:02Z</time>
      </trkpt>
      <trkpt lat="43.96121" lon="5.05863">
        <ele>101</ele>
        <time>2016-09-03T06:37:07Z</time>
      </trkpt>
      <trkpt lat="43.96131" lon="5.05877">
        <ele>102</ele>
        <time>2016-09-03T06:37:12Z</time>
      </trkpt>
      <trkpt lat="43.9614" lon="5.0589">
        <ele>103</ele>
        <time>2016-09-03T06:37:17Z</time>
      </trkpt>
      <trkpt lat="43.9615" lon="5.05901">
        <ele>103</ele>
        <time>2016-09-03T06:37:22Z</time>
      </trkpt>
      <trkpt lat="43.9616" lon="5.0591">
        <ele>105</ele>
        <time>2016-09-03T06:37:27Z</time>
      </trkpt>
      <trkpt lat="43.96169" lon="5.05921">
        <ele>106</ele>
        <time>2016-09-03T06:37:32Z</time>
      </trkpt>
      <trkpt lat="43.96175" lon="5.05931">
        <ele>107</ele>
        <time>2016-09-03T06:37:37Z</time>
      </trkpt>
      <trkpt lat="43.96183" lon="5.05941">
        <ele>108</ele>
        <time>2016-09-03T06:37:42Z</time>
      </trkpt>
      <trkpt lat="43.9619" lon="5.05953">
        <ele>108</ele>
        <time>2016-09-03T06:37:47Z</time>
      </trkpt>
      <trkpt lat="43.96196" lon="5.05969">
        <ele>108</ele>
        <time>2016-09-03T06:37:52Z</time>
      </trkpt>
      <trkpt lat="43.96202" lon="5.05985">
        <ele>108</ele>
        <time>2016-09-03T06:37:57Z</time>
      </trkpt>
      <trkpt lat="43.96208" lon="5.05999">
        <ele>108</ele>
        <time>2016-09-03T06:38:02Z</time>
      </trkpt>
      <trkpt lat="43.96218" lon="5.06009">
        <ele>109</ele>
        <time>2016-09-03T06:38:07Z</time>
      </trkpt>
      <trkpt lat="43.9623" lon="5.06014">
        <ele>111</ele>
        <time>2016-09-03T06:38:12Z</time>
      </trkpt>
      <trkpt lat="43.96247" lon="5.06014">
        <ele>113</ele>
        <time>2016-09-03T06:38:18Z</time>
      </trkpt>
      <trkpt lat="43.96261" lon="5.06022">
        <ele>116</ele>
        <time>2016-09-03T06:38:24Z</time>
      </trkpt>
      <trkpt lat="43.96267" lon="5.06028">
        <ele>118</ele>
        <time>2016-09-03T06:38:27Z</time>
      </trkpt>
      <trkpt lat="43.96281" lon="5.06035">
        <ele>121</ele>
        <time>2016-09-03T06:38:32Z</time>
      </trkpt>
      <trkpt lat="43.9629" lon="5.06044">
        <ele>122</ele>
        <time>2016-09-03T06:38:37Z</time>
      </trkpt>
      <trkpt lat="43.963" lon="5.06049">
        <ele>123</ele>
        <time>2016-09-03T06:38:42Z</time>
      </trkpt>
      <trkpt lat="43.96311" lon="5.06056">
        <ele>125</ele>
        <time>2016-09-03T06:38:47Z</time>
      </trkpt>
      <trkpt lat="43.96322" lon="5.06063">
        <ele>127</ele>
        <time>2016-09-03T06:38:52Z</time>
      </trkpt>
      <trkpt lat="43.96332" lon="5.06072">
        <ele>128</ele>
        <time>2016-09-03T06:38:57Z</time>
      </trkpt>
      <trkpt lat="43.96341" lon="5.06082">
        <ele>128</ele>
        <time>2016-09-03T06:39:02Z</time>
      </trkpt>
      <trkpt lat="43.96349" lon="5.0609">
        <ele>129</ele>
        <time>2016-09-03T06:39:07Z</time>
      </trkpt>
      <trkpt lat="43.96354" lon="5.06095">
        <ele>129</ele>
        <time>2016-09-03T06:39:12Z</time>
      </trkpt>
      <trkpt lat="43.96359" lon="5.06097">
        <ele>129</ele>
        <time>2016-09-03T06:39:17Z</time>
      </trkpt>
      <trkpt lat="43.96361" lon="5.061">
        <ele>129</ele>
        <time>2016-09-03T06:39:24Z</time>
      </trkpt>
      <trkpt lat="43.96364" lon="5.06104">
        <ele>129</ele>
        <time>2016-09-03T06:39:27Z</time>
      </trkpt>
      <trkpt lat="43.96371" lon="5.06108">
        <ele>129</ele>
        <time>2016-09-03T06:39:32Z</time>
      </trkpt>
      <trkpt lat="43.96379" lon="5.06115">
        <ele>130</ele>
        <time>2016-09-03T06:39:38Z</time>
      </trkpt>
      <trkpt lat="43.96386" lon="5.0612">
        <ele>130</ele>
        <time>2016-09-03T06:39:42Z</time>
      </trkpt>
      <trkpt lat="43.96395" lon="5.06125">
        <ele>131</ele>
        <time>2016-09-03T06:39:47Z</time>
      </trkpt>
      <trkpt lat="43.96402" lon="5.06132">
        <ele>131</ele>
        <time>2016-09-03T06:39:52Z</time>
      </trkpt>
      <trkpt lat="43.9641" lon="5.06137">
        <ele>132</ele>
        <time>2016-09-03T06:39:57Z</time>
      </trkpt>
      <trkpt lat="43.96416" lon="5.06137">
        <ele>133</ele>
        <time>2016-09-03T06:40:02Z</time>
      </trkpt>
      <trkpt lat="43.96422" lon="5.06141">
        <ele>133</ele>
        <time>2016-09-03T06:40:07Z</time>
      </trkpt>
      <trkpt lat="43.96429" lon="5.06148">
        <ele>133</ele>
        <time>2016-09-03T06:40:12Z</time>
      </trkpt>
      <trkpt lat="43.96441" lon="5.06157">
        <ele>133</ele>
        <time>2016-09-03T06:40:21Z</time>
      </trkpt>
      <trkpt lat="43.96442" lon="5.06158">
        <ele>134</ele>
        <time>2016-09-03T06:40:22Z</time>
      </trkpt>
      <trkpt lat="43.9645" lon="5.06163">
        <ele>134</ele>
        <time>2016-09-03T06:40:27Z</time>
      </trkpt>
      <trkpt lat="43.96458" lon="5.06167">
        <ele>134</ele>
        <time>2016-09-03T06:40:32Z</time>
      </trkpt>
      <trkpt lat="43.96465" lon="5.06173">
        <ele>134</ele>
        <time>2016-09-03T06:40:37Z</time>
      </trkpt>
      <trkpt lat="43.96472" lon="5.06176">
        <ele>134</ele>
        <time>2016-09-03T06:40:42Z</time>
      </trkpt>
      <trkpt lat="43.96483" lon="5.06184">
        <ele>134</ele>
        <time>2016-09-03T06:40:49Z</time>
      </trkpt>
      <trkpt lat="43.96487" lon="5.06187">
        <ele>135</ele>
        <time>2016-09-03T06:40:52Z</time>
      </trkpt>
      <trkpt lat="43.96498" lon="5.06193">
        <ele>135</ele>
        <time>2016-09-03T06:40:59Z</time>
      </trkpt>
      <trkpt lat="43.96502" lon="5.06195">
        <ele>136</ele>
        <time>2016-09-03T06:41:02Z</time>
      </trkpt>
      <trkpt lat="43.96509" lon="5.06202">
        <ele>136</ele>
        <time>2016-09-03T06:41:07Z</time>
      </trkpt>
      <trkpt lat="43.96516" lon="5.0621">
        <ele>136</ele>
        <time>2016-09-03T06:41:12Z</time>
      </trkpt>
      <trkpt lat="43.96521" lon="5.0622">
        <ele>137</ele>
        <time>2016-09-03T06:41:17Z</time>
      </trkpt>
      <trkpt lat="43.96525" lon="5.0623">
        <ele>137</ele>
        <time>2016-09-03T06:41:22Z</time>
      </trkpt>
      <trkpt lat="43.96526" lon="5.06241">
        <ele>138</ele>
        <time>2016-09-03T06:41:27Z</time>
      </trkpt>
      <trkpt lat="43.96526" lon="5.06252">
        <ele>139</ele>
        <time>2016-09-03T06:41:32Z</time>
      </trkpt>
      <trkpt lat="43.96524" lon="5.06262">
        <ele>140</ele>
        <time>2016-09-03T06:41:37Z</time>
      </trkpt>
      <trkpt lat="43.96521" lon="5.06273">
        <ele>141</ele>
        <time>2016-09-03T06:41:42Z</time>
      </trkpt>
      <trkpt lat="43.96518" lon="5.06285">
        <ele>143</ele>
        <time>2016-09-03T06:41:47Z</time>
      </trkpt>
      <trkpt lat="43.96515" lon="5.06298">
        <ele>146</ele>
        <time>2016-09-03T06:41:52Z</time>
      </trkpt>
      <trkpt lat="43.96513" lon="5.06309">
        <ele>147</ele>
        <time>2016-09-03T06:41:57Z</time>
      </trkpt>
      <trkpt lat="43.96512" lon="5.06321">
        <ele>149</ele>
        <time>2016-09-03T06:42:02Z</time>
      </trkpt>
      <trkpt lat="43.96509" lon="5.06334">
        <ele>151</ele>
        <time>2016-09-03T06:42:07Z</time>
      </trkpt>
      <trkpt lat="43.96502" lon="5.06355">
        <ele>156</ele>
        <time>2016-09-03T06:42:16Z</time>
      </trkpt>
      <trkpt lat="43.96501" lon="5.06358">
        <ele>156</ele>
        <time>2016-09-03T06:42:17Z</time>
      </trkpt>
      <trkpt lat="43.96499" lon="5.06372">
        <ele>158</ele>
        <time>2016-09-03T06:42:22Z</time>
      </trkpt>
      <trkpt lat="43.96496" lon="5.06385">
        <ele>159</ele>
        <time>2016-09-03T06:42:27Z</time>
      </trkpt>
      <trkpt lat="43.96493" lon="5.06398">
        <ele>160</ele>
        <time>2016-09-03T06:42:32Z</time>
      </trkpt>
      <trkpt lat="43.96488" lon="5.0641">
        <ele>161</ele>
        <time>2016-09-03T06:42:37Z</time>
      </trkpt>
      <trkpt lat="43.96483" lon="5.06421">
        <ele>161</ele>
        <time>2016-09-03T06:42:42Z</time>
      </trkpt>
      <trkpt lat="43.96478" lon="5.06431">
        <ele>162</ele>
        <time>2016-09-03T06:42:47Z</time>
      </trkpt>
      <trkpt lat="43.96472" lon="5.06442">
        <ele>163</ele>
        <time>2016-09-03T06:42:52Z</time>
      </trkpt>
      <trkpt lat="43.96465" lon="5.06451">
        <ele>164</ele>
        <time>2016-09-03T06:42:57Z</time>
      </trkpt>
      <trkpt lat="43.96457" lon="5.06463">
        <ele>165</ele>
        <time>2016-09-03T06:43:02Z</time>
      </trkpt>
      <trkpt lat="43.9645" lon="5.06475">
        <ele>165</ele>
        <time>2016-09-03T06:43:07Z</time>
      </trkpt>
      <trkpt lat="43.96443" lon="5.06485">
        <ele>165</ele>
        <time>2016-09-03T06:43:12Z</time>
      </trkpt>
      <trkpt lat="43.96437" lon="5.06495">
        <ele>166</ele>
        <time>2016-09-03T06:43:17Z</time>
      </trkpt>
      <trkpt lat="43.96433" lon="5.06503">
        <ele>166</ele>
        <time>2016-09-03T06:43:22Z</time>
      </trkpt>
      <trkpt lat="43.96429" lon="5.06509">
        <ele>166</ele>
        <time>2016-09-03T06:43:27Z</time>
      </trkpt>
      <trkpt lat="43.96423" lon="5.06516">
        <ele>166</ele>
        <time>2016-09-03T06:43:32Z</time>
      </trkpt>
      <trkpt lat="43.96419" lon="5.06526">
        <ele>166</ele>
        <time>2016-09-03T06:43:37Z</time>
      </trkpt>
      <trkpt lat="43.96414" lon="5.06536">
        <ele>167</ele>
        <time>2016-09-03T06:43:44Z</time>
      </trkpt>
      <trkpt lat="43.96411" lon="5.0654">
        <ele>167</ele>
        <time>2016-09-03T06:43:47Z</time>
      </trkpt>
      <trkpt lat="43.96406" lon="5.06536">
        <ele>167</ele>
        <time>2016-09-03T06:43:52Z</time>
      </trkpt>
      <trkpt lat="43.96404" lon="5.06527">
        <ele>167</ele>
        <time>2016-09-03T06:43:57Z</time>
      </trkpt>
      <trkpt lat="43.96403" lon="5.06515">
        <ele>167</ele>
        <time>2016-09-03T06:44:02Z</time>
      </trkpt>
      <trkpt lat="43.96402" lon="5.06502">
        <ele>166</ele>
        <time>2016-09-03T06:44:07Z</time>
      </trkpt>
      <trkpt lat="43.96402" lon="5.06492">
        <ele>166</ele>
        <time>2016-09-03T06:44:12Z</time>
      </trkpt>
      <trkpt lat="43.96403" lon="5.06485">
        <ele>166</ele>
        <time>2016-09-03T06:44:17Z</time>
      </trkpt>
      <trkpt lat="43.96405" lon="5.06481">
        <ele>166</ele>
        <time>2016-09-03T06:44:22Z</time>
      </trkpt>
      <trkpt lat="43.96405" lon="5.06482">
        <ele>166</ele>
        <time>2016-09-03T06:44:27Z</time>
      </trkpt>
      <trkpt lat="43.96405" lon="5.06481">
        <ele>166</ele>
        <time>2016-09-03T06:44:32Z</time>
      </trkpt>
      <trkpt lat="43.96405" lon="5.06481">
        <ele>166</ele>
        <time>2016-09-03T06:44:37Z</time>
      </trkpt>
      <trkpt lat="43.96405" lon="5.06481">
        <ele>166</ele>
        <time>2016-09-03T06:44:42Z</time>
      </trkpt>
      <trkpt lat="43.96405" lon="5.06481">
        <ele>166</ele>
        <time>2016-09-03T06:44:47Z</time>
      </trkpt>
      <trkpt lat="43.9641" lon="5.06482">
        <ele>166</ele>
        <time>2016-09-03T06:44:52Z</time>
      </trkpt>
      <trkpt lat="43.96409" lon="5.06485">
        <ele>166</ele>
        <time>2016-09-03T06:44:57Z</time>
      </trkpt>
      <trkpt lat="43.96408" lon="5.06485">
        <ele>166</ele>
        <time>2016-09-03T06:45:02Z</time>
      </trkpt>
      <trkpt lat="43.96408" lon="5.06485">
        <ele>166</ele>
        <time>2016-09-03T06:45:07Z</time>
      </trkpt>
      <trkpt lat="43.96406" lon="5.06483">
        <ele>166</ele>
        <time>2016-09-03T06:45:12Z</time>
      </trkpt>
      <trkpt lat="43.964" lon="5.06473">
        <ele>165</ele>
        <time>2016-09-03T06:45:17Z</time>
      </trkpt>
      <trkpt lat="43.96393" lon="5.06466">
        <ele>165</ele>
        <time>2016-09-03T06:45:22Z</time>
      </trkpt>
      <trkpt lat="43.96383" lon="5.06448">
        <ele>163</ele>
        <time>2016-09-03T06:45:27Z</time>
      </trkpt>
      <trkpt lat="43.96373" lon="5.06413">
        <ele>159</ele>
        <time>2016-09-03T06:45:32Z</time>
      </trkpt>
      <trkpt lat="43.9636" lon="5.06383">
        <ele>157</ele>
        <time>2016-09-03T06:45:37Z</time>
      </trkpt>
      <trkpt lat="43.96344" lon="5.06361">
        <ele>153</ele>
        <time>2016-09-03T06:45:42Z</time>
      </trkpt>
      <trkpt lat="43.96325" lon="5.06346">
        <ele>150</ele>
        <time>2016-09-03T06:45:47Z</time>
      </trkpt>
      <trkpt lat="43.96306" lon="5.06334">
        <ele>148</ele>
        <time>2016-09-03T06:45:52Z</time>
      </trkpt>
      <trkpt lat="43.96287" lon="5.06316">
        <ele>145</ele>
        <time>2016-09-03T06:45:57Z</time>
      </trkpt>
      <trkpt lat="43.96262" lon="5.06273">
        <ele>143</ele>
        <time>2016-09-03T06:46:04Z</time>
      </trkpt>
      <trkpt lat="43.9625" lon="5.06256">
        <ele>142</ele>
        <time>2016-09-03T06:46:07Z</time>
      </trkpt>
      <trkpt lat="43.96236" lon="5.06253">
        <ele>141</ele>
        <time>2016-09-03T06:46:12Z</time>
      </trkpt>
      <trkpt lat="43.96234" lon="5.06263">
        <ele>141</ele>
        <time>2016-09-03T06:46:17Z</time>
      </trkpt>
      <trkpt lat="43.96224" lon="5.0629">
        <ele>140</ele>
        <time>2016-09-03T06:46:22Z</time>
      </trkpt>
      <trkpt lat="43.96214" lon="5.06304">
        <ele>139</ele>
        <time>2016-09-03T06:46:27Z</time>
      </trkpt>
      <trkpt lat="43.96201" lon="5.06321">
        <ele>138</ele>
        <time>2016-09-03T06:46:32Z</time>
      </trkpt>
      <trkpt lat="43.96186" lon="5.06338">
        <ele>139</ele>
        <time>2016-09-03T06:46:37Z</time>
      </trkpt>
      <trkpt lat="43.96181" lon="5.06362">
        <ele>140</ele>
        <time>2016-09-03T06:46:42Z</time>
      </trkpt>
      <trkpt lat="43.96179" lon="5.06388">
        <ele>142</ele>
        <time>2016-09-03T06:46:47Z</time>
      </trkpt>
      <trkpt lat="43.96175" lon="5.06415">
        <ele>142</ele>
        <time>2016-09-03T06:46:52Z</time>
      </trkpt>
      <trkpt lat="43.96176" lon="5.06443">
        <ele>142</ele>
        <time>2016-09-03T06:46:57Z</time>
      </trkpt>
      <trkpt lat="43.96175" lon="5.0647">
        <ele>143</ele>
        <time>2016-09-03T06:47:02Z</time>
      </trkpt>
      <trkpt lat="43.96175" lon="5.06493">
        <ele>144</ele>
        <time>2016-09-03T06:47:07Z</time>
      </trkpt>
      <trkpt lat="43.96175" lon="5.06518">
        <ele>146</ele>
        <time>2016-09-03T06:47:12Z</time>
      </trkpt>
      <trkpt lat="43.96169" lon="5.06541">
        <ele>144</ele>
        <time>2016-09-03T06:47:17Z</time>
      </trkpt>
      <trkpt lat="43.96155" lon="5.06564">
        <ele>140</ele>
        <time>2016-09-03T06:47:22Z</time>
      </trkpt>
      <trkpt lat="43.96146" lon="5.06585">
        <ele>138</ele>
        <time>2016-09-03T06:47:27Z</time>
      </trkpt>
      <trkpt lat="43.9614" lon="5.06613">
        <ele>138</ele>
        <time>2016-09-03T06:47:32Z</time>
      </trkpt>
      <trkpt lat="43.9614" lon="5.06633">
        <ele>140</ele>
        <time>2016-09-03T06:47:37Z</time>
      </trkpt>
      <trkpt lat="43.96133" lon="5.06663">
        <ele>141</ele>
        <time>2016-09-03T06:47:42Z</time>
      </trkpt>
      <trkpt lat="43.96119" lon="5.06695">
        <ele>139</ele>
        <time>2016-09-03T06:47:47Z</time>
      </trkpt>
      <trkpt lat="43.96114" lon="5.06732">
        <ele>139</ele>
        <time>2016-09-03T06:47:52Z</time>
      </trkpt>
      <trkpt lat="43.96124" lon="5.06771">
        <ele>143</ele>
        <time>2016-09-03T06:47:57Z</time>
      </trkpt>
      <trkpt lat="43.96124" lon="5.06801">
        <ele>144</ele>
        <time>2016-09-03T06:48:02Z</time>
      </trkpt>
      <trkpt lat="43.96123" lon="5.06837">
        <ele>143</ele>
        <time>2016-09-03T06:48:07Z</time>
      </trkpt>
      <trkpt lat="43.96122" lon="5.06885">
        <ele>143</ele>
        <time>2016-09-03T06:48:14Z</time>
      </trkpt>
      <trkpt lat="43.96123" lon="5.06908">
        <ele>143</ele>
        <time>2016-09-03T06:48:17Z</time>
      </trkpt>
      <trkpt lat="43.96125" lon="5.06933">
        <ele>145</ele>
        <time>2016-09-03T06:48:22Z</time>
      </trkpt>
      <trkpt lat="43.96117" lon="5.06941">
        <ele>144</ele>
        <time>2016-09-03T06:48:27Z</time>
      </trkpt>
      <trkpt lat="43.96117" lon="5.06943">
        <ele>144</ele>
        <time>2016-09-03T06:48:32Z</time>
      </trkpt>
      <trkpt lat="43.96108" lon="5.0695">
        <ele>143</ele>
        <time>2016-09-03T06:48:37Z</time>
      </trkpt>
      <trkpt lat="43.96092" lon="5.06951">
        <ele>142</ele>
        <time>2016-09-03T06:48:42Z</time>
      </trkpt>
      <trkpt lat="43.96077" lon="5.06946">
        <ele>142</ele>
        <time>2016-09-03T06:48:47Z</time>
      </trkpt>
      <trkpt lat="43.96063" lon="5.06938">
        <ele>142</ele>
        <time>2016-09-03T06:48:52Z</time>
      </trkpt>
      <trkpt lat="43.96058" lon="5.06941">
        <ele>143</ele>
        <time>2016-09-03T06:48:57Z</time>
      </trkpt>
      <trkpt lat="43.96058" lon="5.06939">
        <ele>143</ele>
        <time>2016-09-03T06:49:02Z</time>
      </trkpt>
      <trkpt lat="43.96058" lon="5.06939">
        <ele>143</ele>
        <time>2016-09-03T06:49:07Z</time>
      </trkpt>
      <trkpt lat="43.96058" lon="5.06939">
        <ele>143</ele>
        <time>2016-09-03T06:49:12Z</time>
      </trkpt>
      <trkpt lat="43.96058" lon="5.06939">
        <ele>143</ele>
        <time>2016-09-03T06:49:17Z</time>
      </trkpt>
      <trkpt lat="43.96058" lon="5.06939">
        <ele>143</ele>
        <time>2016-09-03T06:49:22Z</time>
      </trkpt>
      <trkpt lat="43.96058" lon="5.06939">
        <ele>143</ele>
        <time>2016-09-03T06:49:27Z</time>
      </trkpt>
      <trkpt lat="43.96058" lon="5.06939">
        <ele>143</ele>
        <time>2016-09-03T06:49:32Z</time>
      </trkpt>
      <trkpt lat="43.96058" lon="5.06939">
        <ele>143</ele>
        <time>2016-09-03T06:49:37Z</time>
      </trkpt>
      <trkpt lat="43.96058" lon="5.06939">
        <ele>143</ele>
        <time>2016-09-03T06:49:42Z</time>
      </trkpt>
      <trkpt lat="43.96058" lon="5.06939">
        <ele>143</ele>
        <time>2016-09-03T06:49:47Z</time>
      </trkpt>
      <trkpt lat="43.96058" lon="5.06939">
        <ele>143</ele>
        <time>2016-09-03T06:49:52Z</time>
      </trkpt>
      <trkpt lat="43.96058" lon="5.06939">
        <ele>143</ele>
        <time>2016-09-03T06:49:57Z</time>
      </trkpt>
      <trkpt lat="43.96058" lon="5.06939">
        <ele>143</ele>
        <time>2016-09-03T06:50:02Z</time>
      </trkpt>
      <trkpt lat="43.96058" lon="5.06939">
        <ele>143</ele>
        <time>2016-09-03T06:50:07Z</time>
      </trkpt>
      <trkpt lat="43.96058" lon="5.06939">
        <ele>143</ele>
        <time>2016-09-03T06:50:12Z</time>
      </trkpt>
      <trkpt lat="43.96058" lon="5.06939">
        <ele>143</ele>
        <time>2016-09-03T06:50:17Z</time>
      </trkpt>
      <trkpt lat="43.96058" lon="5.06941">
        <ele>143</ele>
        <time>2016-09-03T06:50:22Z</time>
      </trkpt>
      <trkpt lat="43.96056" lon="5.06959">
        <ele>144</ele>
        <time>2016-09-03T06:50:27Z</time>
      </trkpt>
      <trkpt lat="43.96054" lon="5.06983">
        <ele>145</ele>
        <time>2016-09-03T06:50:32Z</time>
      </trkpt>
      <trkpt lat="43.96053" lon="5.07006">
        <ele>146</ele>
        <time>2016-09-03T06:50:37Z</time>
      </trkpt>
      <trkpt lat="43.9605" lon="5.07032">
        <ele>148</ele>
        <time>2016-09-03T06:50:42Z</time>
      </trkpt>
      <trkpt lat="43.96046" lon="5.07053">
        <ele>149</ele>
        <time>2016-09-03T06:50:47Z</time>
      </trkpt>
      <trkpt lat="43.96043" lon="5.07077">
        <ele>150</ele>
        <time>2016-09-03T06:50:52Z</time>
      </trkpt>
      <trkpt lat="43.96038" lon="5.07099">
        <ele>151</ele>
        <time>2016-09-03T06:50:57Z</time>
      </trkpt>
      <trkpt lat="43.96034" lon="5.0712">
        <ele>153</ele>
        <time>2016-09-03T06:51:02Z</time>
      </trkpt>
      <trkpt lat="43.9603" lon="5.07139">
        <ele>153</ele>
        <time>2016-09-03T06:51:07Z</time>
      </trkpt>
      <trkpt lat="43.96027" lon="5.0716">
        <ele>154</ele>
        <time>2016-09-03T06:51:12Z</time>
      </trkpt>
      <trkpt lat="43.96024" lon="5.07181">
        <ele>154</ele>
        <time>2016-09-03T06:51:17Z</time>
      </trkpt>
      <trkpt lat="43.96023" lon="5.072">
        <ele>154</ele>
        <time>2016-09-03T06:51:22Z</time>
      </trkpt>
      <trkpt lat="43.96023" lon="5.07217">
        <ele>155</ele>
        <time>2016-09-03T06:51:27Z</time>
      </trkpt>
      <trkpt lat="43.9602" lon="5.07223">
        <ele>155</ele>
        <time>2016-09-03T06:51:32Z</time>
      </trkpt>
      <trkpt lat="43.96016" lon="5.07225">
        <ele>156</ele>
        <time>2016-09-03T06:51:37Z</time>
      </trkpt>
      <trkpt lat="43.96013" lon="5.07231">
        <ele>157</ele>
        <time>2016-09-03T06:51:42Z</time>
      </trkpt>
      <trkpt lat="43.96011" lon="5.07236">
        <ele>157</ele>
        <time>2016-09-03T06:51:47Z</time>
      </trkpt>
      <trkpt lat="43.9601" lon="5.07239">
        <ele>157</ele>
        <time>2016-09-03T06:51:52Z</time>
      </trkpt>
      <trkpt lat="43.9601" lon="5.07239">
        <ele>157</ele>
        <time>2016-09-03T06:51:57Z</time>
      </trkpt>
      <trkpt lat="43.96006" lon="5.07251">
        <ele>158</ele>
        <time>2016-09-03T06:52:02Z</time>
      </trkpt>
      <trkpt lat="43.95995" lon="5.07264">
        <ele>161</ele>
        <time>2016-09-03T06:52:07Z</time>
      </trkpt>
      <trkpt lat="43.95986" lon="5.0727">
        <ele>162</ele>
        <time>2016-09-03T06:52:12Z</time>
      </trkpt>
      <trkpt lat="43.95977" lon="5.07274">
        <ele>164</ele>
        <time>2016-09-03T06:52:17Z</time>
      </trkpt>
      <trkpt lat="43.95967" lon="5.07284">
        <ele>167</ele>
        <time>2016-09-03T06:52:22Z</time>
      </trkpt>
      <trkpt lat="43.95954" lon="5.07297">
        <ele>170</ele>
        <time>2016-09-03T06:52:27Z</time>
      </trkpt>
      <trkpt lat="43.95947" lon="5.07309">
        <ele>171</ele>
        <time>2016-09-03T06:52:32Z</time>
      </trkpt>
      <trkpt lat="43.95953" lon="5.07322">
        <ele>169</ele>
        <time>2016-09-03T06:52:37Z</time>
      </trkpt>
      <trkpt lat="43.9597" lon="5.07333">
        <ele>166</ele>
        <time>2016-09-03T06:52:42Z</time>
      </trkpt>
      <trkpt lat="43.95985" lon="5.07347">
        <ele>162</ele>
        <time>2016-09-03T06:52:47Z</time>
      </trkpt>
      <trkpt lat="43.96001" lon="5.07363">
        <ele>159</ele>
        <time>2016-09-03T06:52:52Z</time>
      </trkpt>
      <trkpt lat="43.96014" lon="5.07378">
        <ele>159</ele>
        <time>2016-09-03T06:52:57Z</time>
      </trkpt>
      <trkpt lat="43.96028" lon="5.07391">
        <ele>159</ele>
        <time>2016-09-03T06:53:02Z</time>
      </trkpt>
      <trkpt lat="43.96039" lon="5.07402">
        <ele>160</ele>
        <time>2016-09-03T06:53:07Z</time>
      </trkpt>
      <trkpt lat="43.96048" lon="5.07415">
        <ele>162</ele>
        <time>2016-09-03T06:53:12Z</time>
      </trkpt>
      <trkpt lat="43.96053" lon="5.07431">
        <ele>164</ele>
        <time>2016-09-03T06:53:17Z</time>
      </trkpt>
      <trkpt lat="43.96058" lon="5.07446">
        <ele>165</ele>
        <time>2016-09-03T06:53:22Z</time>
      </trkpt>
      <trkpt lat="43.96059" lon="5.0746">
        <ele>167</ele>
        <time>2016-09-03T06:53:27Z</time>
      </trkpt>
      <trkpt lat="43.96061" lon="5.07467">
        <ele>167</ele>
        <time>2016-09-03T06:53:32Z</time>
      </trkpt>
      <trkpt lat="43.96061" lon="5.07476">
        <ele>167</ele>
        <time>2016-09-03T06:53:37Z</time>
      </trkpt>
      <trkpt lat="43.9606" lon="5.07485">
        <ele>168</ele>
        <time>2016-09-03T06:53:42Z</time>
      </trkpt>
      <trkpt lat="43.96057" lon="5.07495">
        <ele>168</ele>
        <time>2016-09-03T06:53:47Z</time>
      </trkpt>
      <trkpt lat="43.96052" lon="5.07506">
        <ele>169</ele>
        <time>2016-09-03T06:53:52Z</time>
      </trkpt>
      <trkpt lat="43.96048" lon="5.07512">
        <ele>170</ele>
        <time>2016-09-03T06:53:57Z</time>
      </trkpt>
      <trkpt lat="43.96043" lon="5.07518">
        <ele>171</ele>
        <time>2016-09-03T06:54:02Z</time>
      </trkpt>
      <trkpt lat="43.96039" lon="5.07525">
        <ele>172</ele>
        <time>2016-09-03T06:54:07Z</time>
      </trkpt>
      <trkpt lat="43.96036" lon="5.0753">
        <ele>172</ele>
        <time>2016-09-03T06:54:12Z</time>
      </trkpt>
      <trkpt lat="43.96026" lon="5.07545">
        <ele>175</ele>
        <time>2016-09-03T06:54:21Z</time>
      </trkpt>
      <trkpt lat="43.96019" lon="5.07554">
        <ele>177</ele>
        <time>2016-09-03T06:54:26Z</time>
      </trkpt>
      <trkpt lat="43.96019" lon="5.07557">
        <ele>177</ele>
        <time>2016-09-03T06:54:27Z</time>
      </trkpt>
      <trkpt lat="43.96014" lon="5.07564">
        <ele>178</ele>
        <time>2016-09-03T06:54:32Z</time>
      </trkpt>
      <trkpt lat="43.96009" lon="5.07572">
        <ele>180</ele>
        <time>2016-09-03T06:54:37Z</time>
      </trkpt>
      <trkpt lat="43.96004" lon="5.07583">
        <ele>182</ele>
        <time>2016-09-03T06:54:42Z</time>
      </trkpt>
      <trkpt lat="43.96002" lon="5.07593">
        <ele>183</ele>
        <time>2016-09-03T06:54:47Z</time>
      </trkpt>
      <trkpt lat="43.95997" lon="5.07603">
        <ele>185</ele>
        <time>2016-09-03T06:54:52Z</time>
      </trkpt>
      <trkpt lat="43.95992" lon="5.07611">
        <ele>186</ele>
        <time>2016-09-03T06:54:57Z</time>
      </trkpt>
      <trkpt lat="43.95987" lon="5.0762">
        <ele>187</ele>
        <time>2016-09-03T06:55:02Z</time>
      </trkpt>
      <trkpt lat="43.95988" lon="5.07623">
        <ele>187</ele>
        <time>2016-09-03T06:55:08Z</time>
      </trkpt>
      <trkpt lat="43.95982" lon="5.07632">
        <ele>188</ele>
        <time>2016-09-03T06:55:12Z</time>
      </trkpt>
      <trkpt lat="43.95974" lon="5.07645">
        <ele>189</ele>
        <time>2016-09-03T06:55:17Z</time>
      </trkpt>
      <trkpt lat="43.95966" lon="5.07655">
        <ele>189</ele>
        <time>2016-09-03T06:55:22Z</time>
      </trkpt>
      <trkpt lat="43.95959" lon="5.07663">
        <ele>190</ele>
        <time>2016-09-03T06:55:27Z</time>
      </trkpt>
      <trkpt lat="43.95952" lon="5.07674">
        <ele>192</ele>
        <time>2016-09-03T06:55:32Z</time>
      </trkpt>
      <trkpt lat="43.95947" lon="5.07686">
        <ele>193</ele>
        <time>2016-09-03T06:55:37Z</time>
      </trkpt>
      <trkpt lat="43.95942" lon="5.07695">
        <ele>194</ele>
        <time>2016-09-03T06:55:42Z</time>
      </trkpt>
      <trkpt lat="43.95941" lon="5.0771">
        <ele>194</ele>
        <time>2016-09-03T06:55:47Z</time>
      </trkpt>
      <trkpt lat="43.95941" lon="5.07716">
        <ele>194</ele>
        <time>2016-09-03T06:55:56Z</time>
      </trkpt>
      <trkpt lat="43.9594" lon="5.07716">
        <ele>194</ele>
        <time>2016-09-03T06:55:57Z</time>
      </trkpt>
      <trkpt lat="43.9594" lon="5.07715">
        <ele>195</ele>
        <time>2016-09-03T06:56:02Z</time>
      </trkpt>
      <trkpt lat="43.9594" lon="5.07715">
        <ele>194</ele>
        <time>2016-09-03T06:56:07Z</time>
      </trkpt>
      <trkpt lat="43.9594" lon="5.07715">
        <ele>194</ele>
        <time>2016-09-03T06:56:12Z</time>
      </trkpt>
      <trkpt lat="43.9594" lon="5.07715">
        <ele>194</ele>
        <time>2016-09-03T06:56:20Z</time>
      </trkpt>
      <trkpt lat="43.9594" lon="5.07715">
        <ele>194</ele>
        <time>2016-09-03T06:56:26Z</time>
      </trkpt>
      <trkpt lat="43.9594" lon="5.07715">
        <ele>194</ele>
        <time>2016-09-03T06:56:27Z</time>
      </trkpt>
      <trkpt lat="43.9594" lon="5.07715">
        <ele>194</ele>
        <time>2016-09-03T06:56:32Z</time>
      </trkpt>
      <trkpt lat="43.9594" lon="5.07715">
        <ele>194</ele>
        <time>2016-09-03T06:56:37Z</time>
      </trkpt>
      <trkpt lat="43.9594" lon="5.07715">
        <ele>194</ele>
        <time>2016-09-03T06:56:42Z</time>
      </trkpt>
      <trkpt lat="43.9594" lon="5.07715">
        <ele>194</ele>
        <time>2016-09-03T06:56:47Z</time>
      </trkpt>
      <trkpt lat="43.9594" lon="5.07715">
        <ele>194</ele>
        <time>2016-09-03T06:56:56Z</time>
      </trkpt>
      <trkpt lat="43.9594" lon="5.07715">
        <ele>194</ele>
        <time>2016-09-03T06:56:57Z</time>
      </trkpt>
      <trkpt lat="43.9594" lon="5.07715">
        <ele>194</ele>
        <time>2016-09-03T06:57:02Z</time>
      </trkpt>
      <trkpt lat="43.9594" lon="5.07715">
        <ele>194</ele>
        <time>2016-09-03T06:57:07Z</time>
      </trkpt>
      <trkpt lat="43.95941" lon="5.07722">
        <ele>194</ele>
        <time>2016-09-03T06:57:12Z</time>
      </trkpt>
      <trkpt lat="43.95938" lon="5.07731">
        <ele>195</ele>
        <time>2016-09-03T06:57:17Z</time>
      </trkpt>
      <trkpt lat="43.95936" lon="5.07743">
        <ele>194</ele>
        <time>2016-09-03T06:57:22Z</time>
      </trkpt>
      <trkpt lat="43.95931" lon="5.0776">
        <ele>194</ele>
        <time>2016-09-03T06:57:29Z</time>
      </trkpt>
      <trkpt lat="43.9593" lon="5.07769">
        <ele>193</ele>
        <time>2016-09-03T06:57:32Z</time>
      </trkpt>
      <trkpt lat="43.9593" lon="5.07782">
        <ele>193</ele>
        <time>2016-09-03T06:57:37Z</time>
      </trkpt>
      <trkpt lat="43.95933" lon="5.07794">
        <ele>193</ele>
        <time>2016-09-03T06:57:42Z</time>
      </trkpt>
      <trkpt lat="43.95935" lon="5.07806">
        <ele>193</ele>
        <time>2016-09-03T06:57:47Z</time>
      </trkpt>
      <trkpt lat="43.95937" lon="5.07828">
        <ele>193</ele>
        <time>2016-09-03T06:57:52Z</time>
      </trkpt>
      <trkpt lat="43.9595" lon="5.07843">
        <ele>194</ele>
        <time>2016-09-03T06:57:57Z</time>
      </trkpt>
      <trkpt lat="43.9595" lon="5.07844">
        <ele>194</ele>
        <time>2016-09-03T06:58:02Z</time>
      </trkpt>
      <trkpt lat="43.95949" lon="5.07844">
        <ele>194</ele>
        <time>2016-09-03T06:58:07Z</time>
      </trkpt>
      <trkpt lat="43.9595" lon="5.07844">
        <ele>194</ele>
        <time>2016-09-03T06:58:12Z</time>
      </trkpt>
      <trkpt lat="43.95951" lon="5.07848">
        <ele>194</ele>
        <time>2016-09-03T06:58:17Z</time>
      </trkpt>
      <trkpt lat="43.95958" lon="5.07873">
        <ele>194</ele>
        <time>2016-09-03T06:58:22Z</time>
      </trkpt>
      <trkpt lat="43.95963" lon="5.07915">
        <ele>194</ele>
        <time>2016-09-03T06:58:27Z</time>
      </trkpt>
      <trkpt lat="43.95954" lon="5.07954">
        <ele>192</ele>
        <time>2016-09-03T06:58:32Z</time>
      </trkpt>
      <trkpt lat="43.95922" lon="5.08">
        <ele>189</ele>
        <time>2016-09-03T06:58:39Z</time>
      </trkpt>
      <trkpt lat="43.95915" lon="5.08019">
        <ele>189</ele>
        <time>2016-09-03T06:58:42Z</time>
      </trkpt>
      <trkpt lat="43.95917" lon="5.08035">
        <ele>190</ele>
        <time>2016-09-03T06:58:47Z</time>
      </trkpt>
      <trkpt lat="43.9592" lon="5.08056">
        <ele>191</ele>
        <time>2016-09-03T06:58:52Z</time>
      </trkpt>
      <trkpt lat="43.95929" lon="5.08067">
        <ele>191</ele>
        <time>2016-09-03T06:58:57Z</time>
      </trkpt>
      <trkpt lat="43.95928" lon="5.08068">
        <ele>191</ele>
        <time>2016-09-03T06:59:02Z</time>
      </trkpt>
      <trkpt lat="43.95928" lon="5.08069">
        <ele>191</ele>
        <time>2016-09-03T06:59:07Z</time>
      </trkpt>
      <trkpt lat="43.9593" lon="5.08075">
        <ele>191</ele>
        <time>2016-09-03T06:59:12Z</time>
      </trkpt>
      <trkpt lat="43.95932" lon="5.0808">
        <ele>192</ele>
        <time>2016-09-03T06:59:17Z</time>
      </trkpt>
      <trkpt lat="43.95937" lon="5.08083">
        <ele>192</ele>
        <time>2016-09-03T06:59:22Z</time>
      </trkpt>
      <trkpt lat="43.95943" lon="5.08086">
        <ele>192</ele>
        <time>2016-09-03T06:59:27Z</time>
      </trkpt>
      <trkpt lat="43.95947" lon="5.08094">
        <ele>192</ele>
        <time>2016-09-03T06:59:36Z</time>
      </trkpt>
      <trkpt lat="43.95948" lon="5.08094">
        <ele>192</ele>
        <time>2016-09-03T06:59:37Z</time>
      </trkpt>
      <trkpt lat="43.95953" lon="5.08095">
        <ele>192</ele>
        <time>2016-09-03T06:59:42Z</time>
      </trkpt>
      <trkpt lat="43.95954" lon="5.08097">
        <ele>192</ele>
        <time>2016-09-03T06:59:47Z</time>
      </trkpt>
      <trkpt lat="43.95949" lon="5.08103">
        <ele>192</ele>
        <time>2016-09-03T06:59:52Z</time>
      </trkpt>
      <trkpt lat="43.9594" lon="5.08118">
        <ele>191</ele>
        <time>2016-09-03T06:59:57Z</time>
      </trkpt>
      <trkpt lat="43.95948" lon="5.08134">
        <ele>188</ele>
        <time>2016-09-03T07:00:02Z</time>
      </trkpt>
      <trkpt lat="43.95954" lon="5.08136">
        <ele>188</ele>
        <time>2016-09-03T07:00:07Z</time>
      </trkpt>
      <trkpt lat="43.95963" lon="5.08134">
        <ele>187</ele>
        <time>2016-09-03T07:00:12Z</time>
      </trkpt>
      <trkpt lat="43.95974" lon="5.08133">
        <ele>187</ele>
        <time>2016-09-03T07:00:17Z</time>
      </trkpt>
      <trkpt lat="43.95985" lon="5.08133">
        <ele>186</ele>
        <time>2016-09-03T07:00:22Z</time>
      </trkpt>
      <trkpt lat="43.96003" lon="5.0813">
        <ele>184</ele>
        <time>2016-09-03T07:00:27Z</time>
      </trkpt>
      <trkpt lat="43.96021" lon="5.08129">
        <ele>182</ele>
        <time>2016-09-03T07:00:32Z</time>
      </trkpt>
      <trkpt lat="43.96037" lon="5.08131">
        <ele>180</ele>
        <time>2016-09-03T07:00:37Z</time>
      </trkpt>
      <trkpt lat="43.96051" lon="5.08137">
        <ele>178</ele>
        <time>2016-09-03T07:00:42Z</time>
      </trkpt>
      <trkpt lat="43.9606" lon="5.08147">
        <ele>177</ele>
        <time>2016-09-03T07:00:47Z</time>
      </trkpt>
      <trkpt lat="43.96068" lon="5.08152">
        <ele>178</ele>
        <time>2016-09-03T07:00:52Z</time>
      </trkpt>
      <trkpt lat="43.96079" lon="5.08156">
        <ele>179</ele>
        <time>2016-09-03T07:00:57Z</time>
      </trkpt>
      <trkpt lat="43.96092" lon="5.08158">
        <ele>181</ele>
        <time>2016-09-03T07:01:02Z</time>
      </trkpt>
      <trkpt lat="43.96105" lon="5.08171">
        <ele>181</ele>
        <time>2016-09-03T07:01:07Z</time>
      </trkpt>
      <trkpt lat="43.96117" lon="5.08182">
        <ele>182</ele>
        <time>2016-09-03T07:01:12Z</time>
      </trkpt>
      <trkpt lat="43.96129" lon="5.0818">
        <ele>183</ele>
        <time>2016-09-03T07:01:17Z</time>
      </trkpt>
      <trkpt lat="43.96136" lon="5.08176">
        <ele>185</ele>
        <time>2016-09-03T07:01:22Z</time>
      </trkpt>
      <trkpt lat="43.96146" lon="5.08178">
        <ele>187</ele>
        <time>2016-09-03T07:01:27Z</time>
      </trkpt>
      <trkpt lat="43.96157" lon="5.08189">
        <ele>188</ele>
        <time>2016-09-03T07:01:32Z</time>
      </trkpt>
      <trkpt lat="43.96166" lon="5.08204">
        <ele>188</ele>
        <time>2016-09-03T07:01:37Z</time>
      </trkpt>
      <trkpt lat="43.96176" lon="5.08218">
        <ele>190</ele>
        <time>2016-09-03T07:01:42Z</time>
      </trkpt>
      <trkpt lat="43.96186" lon="5.08232">
        <ele>191</ele>
        <time>2016-09-03T07:01:47Z</time>
      </trkpt>
      <trkpt lat="43.96194" lon="5.08246">
        <ele>192</ele>
        <time>2016-09-03T07:01:52Z</time>
      </trkpt>
      <trkpt lat="43.96199" lon="5.08256">
        <ele>191</ele>
        <time>2016-09-03T07:01:57Z</time>
      </trkpt>
      <trkpt lat="43.96201" lon="5.08261">
        <ele>191</ele>
        <time>2016-09-03T07:02:02Z</time>
      </trkpt>
      <trkpt lat="43.96201" lon="5.08262">
        <ele>191</ele>
        <time>2016-09-03T07:02:07Z</time>
      </trkpt>
      <trkpt lat="43.96201" lon="5.08263">
        <ele>191</ele>
        <time>2016-09-03T07:02:12Z</time>
      </trkpt>
      <trkpt lat="43.962" lon="5.08263">
        <ele>191</ele>
        <time>2016-09-03T07:02:17Z</time>
      </trkpt>
      <trkpt lat="43.962" lon="5.08263">
        <ele>191</ele>
        <time>2016-09-03T07:02:22Z</time>
      </trkpt>
      <trkpt lat="43.962" lon="5.08263">
        <ele>191</ele>
        <time>2016-09-03T07:02:27Z</time>
      </trkpt>
      <trkpt lat="43.962" lon="5.08263">
        <ele>191</ele>
        <time>2016-09-03T07:02:32Z</time>
      </trkpt>
      <trkpt lat="43.962" lon="5.08263">
        <ele>191</ele>
        <time>2016-09-03T07:02:37Z</time>
      </trkpt>
      <trkpt lat="43.96209" lon="5.08264">
        <ele>191</ele>
        <time>2016-09-03T07:02:42Z</time>
      </trkpt>
      <trkpt lat="43.96224" lon="5.0826">
        <ele>193</ele>
        <time>2016-09-03T07:02:47Z</time>
      </trkpt>
      <trkpt lat="43.96238" lon="5.08251">
        <ele>196</ele>
        <time>2016-09-03T07:02:52Z</time>
      </trkpt>
      <trkpt lat="43.96255" lon="5.08245">
        <ele>198</ele>
        <time>2016-09-03T07:02:57Z</time>
      </trkpt>
      <trkpt lat="43.96272" lon="5.08236">
        <ele>200</ele>
        <time>2016-09-03T07:03:02Z</time>
      </trkpt>
      <trkpt lat="43.96291" lon="5.0824">
        <ele>199</ele>
        <time>2016-09-03T07:03:07Z</time>
      </trkpt>
      <trkpt lat="43.96309" lon="5.08239">
        <ele>200</ele>
        <time>2016-09-03T07:03:12Z</time>
      </trkpt>
      <trkpt lat="43.96329" lon="5.08233">
        <ele>200</ele>
        <time>2016-09-03T07:03:17Z</time>
      </trkpt>
      <trkpt lat="43.96348" lon="5.08231">
        <ele>201</ele>
        <time>2016-09-03T07:03:22Z</time>
      </trkpt>
      <trkpt lat="43.9637" lon="5.08245">
        <ele>200</ele>
        <time>2016-09-03T07:03:31Z</time>
      </trkpt>
      <trkpt lat="43.96371" lon="5.08248">
        <ele>199</ele>
        <time>2016-09-03T07:03:32Z</time>
      </trkpt>
      <trkpt lat="43.96381" lon="5.0826">
        <ele>198</ele>
        <time>2016-09-03T07:03:37Z</time>
      </trkpt>
      <trkpt lat="43.96396" lon="5.08256">
        <ele>201</ele>
        <time>2016-09-03T07:03:42Z</time>
      </trkpt>
      <trkpt lat="43.96414" lon="5.08276">
        <ele>200</ele>
        <time>2016-09-03T07:03:49Z</time>
      </trkpt>
      <trkpt lat="43.96425" lon="5.0828">
        <ele>200</ele>
        <time>2016-09-03T07:03:53Z</time>
      </trkpt>
      <trkpt lat="43.96428" lon="5.08295">
        <ele>199</ele>
        <time>2016-09-03T07:03:57Z</time>
      </trkpt>
      <trkpt lat="43.96438" lon="5.08302">
        <ele>198</ele>
        <time>2016-09-03T07:04:02Z</time>
      </trkpt>
      <trkpt lat="43.96454" lon="5.08313">
        <ele>198</ele>
        <time>2016-09-03T07:04:07Z</time>
      </trkpt>
      <trkpt lat="43.96467" lon="5.08336">
        <ele>198</ele>
        <time>2016-09-03T07:04:14Z</time>
      </trkpt>
      <trkpt lat="43.96469" lon="5.08352">
        <ele>199</ele>
        <time>2016-09-03T07:04:20Z</time>
      </trkpt>
      <trkpt lat="43.96476" lon="5.08361">
        <ele>200</ele>
        <time>2016-09-03T07:04:24Z</time>
      </trkpt>
      <trkpt lat="43.96482" lon="5.08366">
        <ele>200</ele>
        <time>2016-09-03T07:04:27Z</time>
      </trkpt>
      <trkpt lat="43.96496" lon="5.08357">
        <ele>203</ele>
        <time>2016-09-03T07:04:32Z</time>
      </trkpt>
      <trkpt lat="43.96511" lon="5.0835">
        <ele>206</ele>
        <time>2016-09-03T07:04:38Z</time>
      </trkpt>
      <trkpt lat="43.96512" lon="5.0835">
        <ele>207</ele>
        <time>2016-09-03T07:04:42Z</time>
      </trkpt>
      <trkpt lat="43.96517" lon="5.08354">
        <ele>208</ele>
        <time>2016-09-03T07:04:48Z</time>
      </trkpt>
      <trkpt lat="43.96524" lon="5.08363">
        <ele>209</ele>
        <time>2016-09-03T07:04:52Z</time>
      </trkpt>
      <trkpt lat="43.96534" lon="5.08374">
        <ele>209</ele>
        <time>2016-09-03T07:04:57Z</time>
      </trkpt>
      <trkpt lat="43.9654" lon="5.08386">
        <ele>209</ele>
        <time>2016-09-03T07:05:02Z</time>
      </trkpt>
      <trkpt lat="43.96548" lon="5.08396">
        <ele>209</ele>
        <time>2016-09-03T07:05:07Z</time>
      </trkpt>
      <trkpt lat="43.96559" lon="5.08402">
        <ele>210</ele>
        <time>2016-09-03T07:05:12Z</time>
      </trkpt>
      <trkpt lat="43.96573" lon="5.08415">
        <ele>210</ele>
        <time>2016-09-03T07:05:18Z</time>
      </trkpt>
      <trkpt lat="43.96585" lon="5.08426">
        <ele>209</ele>
        <time>2016-09-03T07:05:24Z</time>
      </trkpt>
      <trkpt lat="43.96592" lon="5.08426">
        <ele>209</ele>
        <time>2016-09-03T07:05:27Z</time>
      </trkpt>
      <trkpt lat="43.96608" lon="5.08428">
        <ele>210</ele>
        <time>2016-09-03T07:05:33Z</time>
      </trkpt>
      <trkpt lat="43.96623" lon="5.08428">
        <ele>210</ele>
        <time>2016-09-03T07:05:37Z</time>
      </trkpt>
      <trkpt lat="43.96648" lon="5.08429">
        <ele>212</ele>
        <time>2016-09-03T07:05:45Z</time>
      </trkpt>
      <trkpt lat="43.96655" lon="5.08426">
        <ele>213</ele>
        <time>2016-09-03T07:05:47Z</time>
      </trkpt>
      <trkpt lat="43.96682" lon="5.08404">
        <ele>219</ele>
        <time>2016-09-03T07:05:55Z</time>
      </trkpt>
      <trkpt lat="43.96699" lon="5.0839">
        <ele>221</ele>
        <time>2016-09-03T07:06:00Z</time>
      </trkpt>
      <trkpt lat="43.96711" lon="5.08386">
        <ele>223</ele>
        <time>2016-09-03T07:06:03Z</time>
      </trkpt>
      <trkpt lat="43.96725" lon="5.08386">
        <ele>224</ele>
        <time>2016-09-03T07:06:07Z</time>
      </trkpt>
      <trkpt lat="43.96737" lon="5.08389">
        <ele>224</ele>
        <time>2016-09-03T07:06:12Z</time>
      </trkpt>
      <trkpt lat="43.96743" lon="5.08396">
        <ele>224</ele>
        <time>2016-09-03T07:06:17Z</time>
      </trkpt>
      <trkpt lat="43.96747" lon="5.08404">
        <ele>223</ele>
        <time>2016-09-03T07:06:22Z</time>
      </trkpt>
      <trkpt lat="43.96745" lon="5.08396">
        <ele>224</ele>
        <time>2016-09-03T07:06:27Z</time>
      </trkpt>
      <trkpt lat="43.96745" lon="5.08397">
        <ele>224</ele>
        <time>2016-09-03T07:06:32Z</time>
      </trkpt>
      <trkpt lat="43.96745" lon="5.08397">
        <ele>224</ele>
        <time>2016-09-03T07:06:37Z</time>
      </trkpt>
      <trkpt lat="43.96745" lon="5.08397">
        <ele>224</ele>
        <time>2016-09-03T07:06:42Z</time>
      </trkpt>
      <trkpt lat="43.96745" lon="5.08397">
        <ele>224</ele>
        <time>2016-09-03T07:06:47Z</time>
      </trkpt>
      <trkpt lat="43.96745" lon="5.08397">
        <ele>224</ele>
        <time>2016-09-03T07:06:52Z</time>
      </trkpt>
      <trkpt lat="43.96745" lon="5.08396">
        <ele>224</ele>
        <time>2016-09-03T07:06:57Z</time>
      </trkpt>
      <trkpt lat="43.96743" lon="5.08404">
        <ele>223</ele>
        <time>2016-09-03T07:07:02Z</time>
      </trkpt>
      <trkpt lat="43.96748" lon="5.08421">
        <ele>222</ele>
        <time>2016-09-03T07:07:07Z</time>
      </trkpt>
      <trkpt lat="43.9675" lon="5.08434">
        <ele>221</ele>
        <time>2016-09-03T07:07:12Z</time>
      </trkpt>
      <trkpt lat="43.96753" lon="5.08444">
        <ele>220</ele>
        <time>2016-09-03T07:07:17Z</time>
      </trkpt>
      <trkpt lat="43.96757" lon="5.08448">
        <ele>220</ele>
        <time>2016-09-03T07:07:22Z</time>
      </trkpt>
      <trkpt lat="43.96761" lon="5.08454">
        <ele>219</ele>
        <time>2016-09-03T07:07:27Z</time>
      </trkpt>
      <trkpt lat="43.96763" lon="5.0846">
        <ele>219</ele>
        <time>2016-09-03T07:07:32Z</time>
      </trkpt>
      <trkpt lat="43.96767" lon="5.08472">
        <ele>218</ele>
        <time>2016-09-03T07:07:39Z</time>
      </trkpt>
      <trkpt lat="43.96773" lon="5.08476">
        <ele>218</ele>
        <time>2016-09-03T07:07:46Z</time>
      </trkpt>
      <trkpt lat="43.96773" lon="5.08475">
        <ele>218</ele>
        <time>2016-09-03T07:07:51Z</time>
      </trkpt>
      <trkpt lat="43.96773" lon="5.08475">
        <ele>218</ele>
        <time>2016-09-03T07:07:52Z</time>
      </trkpt>
      <trkpt lat="43.96775" lon="5.08477">
        <ele>218</ele>
        <time>2016-09-03T07:07:57Z</time>
      </trkpt>
      <trkpt lat="43.96778" lon="5.08488">
        <ele>218</ele>
        <time>2016-09-03T07:08:02Z</time>
      </trkpt>
      <trkpt lat="43.96781" lon="5.08497">
        <ele>218</ele>
        <time>2016-09-03T07:08:07Z</time>
      </trkpt>
      <trkpt lat="43.96783" lon="5.08506">
        <ele>219</ele>
        <time>2016-09-03T07:08:12Z</time>
      </trkpt>
      <trkpt lat="43.96787" lon="5.08512">
        <ele>219</ele>
        <time>2016-09-03T07:08:17Z</time>
      </trkpt>
      <trkpt lat="43.96793" lon="5.0852">
        <ele>220</ele>
        <time>2016-09-03T07:08:22Z</time>
      </trkpt>
      <trkpt lat="43.96798" lon="5.08532">
        <ele>220</ele>
        <time>2016-09-03T07:08:27Z</time>
      </trkpt>
      <trkpt lat="43.96801" lon="5.08542">
        <ele>221</ele>
        <time>2016-09-03T07:08:32Z</time>
      </trkpt>
      <trkpt lat="43.96804" lon="5.08545">
        <ele>221</ele>
        <time>2016-09-03T07:08:37Z</time>
      </trkpt>
      <trkpt lat="43.96808" lon="5.08544">
        <ele>221</ele>
        <time>2016-09-03T07:08:42Z</time>
      </trkpt>
      <trkpt lat="43.96812" lon="5.08541">
        <ele>221</ele>
        <time>2016-09-03T07:08:47Z</time>
      </trkpt>
      <trkpt lat="43.96821" lon="5.08539">
        <ele>220</ele>
        <time>2016-09-03T07:08:52Z</time>
      </trkpt>
      <trkpt lat="43.96829" lon="5.08537">
        <ele>220</ele>
        <time>2016-09-03T07:08:57Z</time>
      </trkpt>
      <trkpt lat="43.96837" lon="5.08539">
        <ele>220</ele>
        <time>2016-09-03T07:09:02Z</time>
      </trkpt>
      <trkpt lat="43.96845" lon="5.08544">
        <ele>221</ele>
        <time>2016-09-03T07:09:07Z</time>
      </trkpt>
      <trkpt lat="43.96847" lon="5.08557">
        <ele>221</ele>
        <time>2016-09-03T07:09:12Z</time>
      </trkpt>
      <trkpt lat="43.96843" lon="5.08567">
        <ele>223</ele>
        <time>2016-09-03T07:09:17Z</time>
      </trkpt>
      <trkpt lat="43.96838" lon="5.0858">
        <ele>225</ele>
        <time>2016-09-03T07:09:22Z</time>
      </trkpt>
      <trkpt lat="43.96834" lon="5.08589">
        <ele>227</ele>
        <time>2016-09-03T07:09:27Z</time>
      </trkpt>
      <trkpt lat="43.96831" lon="5.08603">
        <ele>229</ele>
        <time>2016-09-03T07:09:32Z</time>
      </trkpt>
      <trkpt lat="43.96829" lon="5.08618">
        <ele>231</ele>
        <time>2016-09-03T07:09:37Z</time>
      </trkpt>
      <trkpt lat="43.9683" lon="5.08628">
        <ele>232</ele>
        <time>2016-09-03T07:09:42Z</time>
      </trkpt>
      <trkpt lat="43.96829" lon="5.08628">
        <ele>232</ele>
        <time>2016-09-03T07:09:47Z</time>
      </trkpt>
      <trkpt lat="43.9683" lon="5.08628">
        <ele>232</ele>
        <time>2016-09-03T07:09:52Z</time>
      </trkpt>
      <trkpt lat="43.9683" lon="5.08628">
        <ele>232</ele>
        <time>2016-09-03T07:09:57Z</time>
      </trkpt>
      <trkpt lat="43.9683" lon="5.08628">
        <ele>232</ele>
        <time>2016-09-03T07:10:02Z</time>
      </trkpt>
      <trkpt lat="43.96831" lon="5.0863">
        <ele>232</ele>
        <time>2016-09-03T07:10:07Z</time>
      </trkpt>
      <trkpt lat="43.96835" lon="5.08639">
        <ele>233</ele>
        <time>2016-09-03T07:10:12Z</time>
      </trkpt>
      <trkpt lat="43.96839" lon="5.08644">
        <ele>233</ele>
        <time>2016-09-03T07:10:17Z</time>
      </trkpt>
      <trkpt lat="43.96836" lon="5.08648">
        <ele>234</ele>
        <time>2016-09-03T07:10:22Z</time>
      </trkpt>
      <trkpt lat="43.9684" lon="5.08645">
        <ele>234</ele>
        <time>2016-09-03T07:10:27Z</time>
      </trkpt>
      <trkpt lat="43.9684" lon="5.08654">
        <ele>234</ele>
        <time>2016-09-03T07:10:32Z</time>
      </trkpt>
      <trkpt lat="43.96841" lon="5.08661">
        <ele>235</ele>
        <time>2016-09-03T07:10:37Z</time>
      </trkpt>
      <trkpt lat="43.96841" lon="5.08667">
        <ele>236</ele>
        <time>2016-09-03T07:10:42Z</time>
      </trkpt>
      <trkpt lat="43.96835" lon="5.08679">
        <ele>236</ele>
        <time>2016-09-03T07:10:51Z</time>
      </trkpt>
      <trkpt lat="43.96835" lon="5.0868">
        <ele>236</ele>
        <time>2016-09-03T07:10:52Z</time>
      </trkpt>
      <trkpt lat="43.96831" lon="5.08691">
        <ele>237</ele>
        <time>2016-09-03T07:10:59Z</time>
      </trkpt>
      <trkpt lat="43.96827" lon="5.0869">
        <ele>237</ele>
        <time>2016-09-03T07:11:04Z</time>
      </trkpt>
      <trkpt lat="43.96822" lon="5.08687">
        <ele>236</ele>
        <time>2016-09-03T07:11:07Z</time>
      </trkpt>
      <trkpt lat="43.96812" lon="5.08696">
        <ele>236</ele>
        <time>2016-09-03T07:11:15Z</time>
      </trkpt>
      <trkpt lat="43.96812" lon="5.08698">
        <ele>236</ele>
        <time>2016-09-03T07:11:17Z</time>
      </trkpt>
      <trkpt lat="43.96807" lon="5.08703">
        <ele>236</ele>
        <time>2016-09-03T07:11:22Z</time>
      </trkpt>
      <trkpt lat="43.96803" lon="5.08709">
        <ele>237</ele>
        <time>2016-09-03T07:11:29Z</time>
      </trkpt>
      <trkpt lat="43.968" lon="5.08718">
        <ele>237</ele>
        <time>2016-09-03T07:11:36Z</time>
      </trkpt>
      <trkpt lat="43.96801" lon="5.0872">
        <ele>237</ele>
        <time>2016-09-03T07:11:37Z</time>
      </trkpt>
      <trkpt lat="43.96803" lon="5.0873">
        <ele>238</ele>
        <time>2016-09-03T07:11:42Z</time>
      </trkpt>
      <trkpt lat="43.96802" lon="5.08737">
        <ele>239</ele>
        <time>2016-09-03T07:11:48Z</time>
      </trkpt>
      <trkpt lat="43.96801" lon="5.08736">
        <ele>239</ele>
        <time>2016-09-03T07:11:53Z</time>
      </trkpt>
      <trkpt lat="43.96801" lon="5.08736">
        <ele>239</ele>
        <time>2016-09-03T07:12:00Z</time>
      </trkpt>
      <trkpt lat="43.96801" lon="5.08736">
        <ele>239</ele>
        <time>2016-09-03T07:12:04Z</time>
      </trkpt>
      <trkpt lat="43.96802" lon="5.08738">
        <ele>239</ele>
        <time>2016-09-03T07:12:09Z</time>
      </trkpt>
      <trkpt lat="43.96802" lon="5.08738">
        <ele>239</ele>
        <time>2016-09-03T07:12:12Z</time>
      </trkpt>
      <trkpt lat="43.96802" lon="5.08738">
        <ele>239</ele>
        <time>2016-09-03T07:12:17Z</time>
      </trkpt>
      <trkpt lat="43.96803" lon="5.08738">
        <ele>239</ele>
        <time>2016-09-03T07:12:22Z</time>
      </trkpt>
      <trkpt lat="43.96802" lon="5.08736">
        <ele>239</ele>
        <time>2016-09-03T07:12:27Z</time>
      </trkpt>
      <trkpt lat="43.968" lon="5.08734">
        <ele>239</ele>
        <time>2016-09-03T07:12:32Z</time>
      </trkpt>
      <trkpt lat="43.96799" lon="5.08733">
        <ele>239</ele>
        <time>2016-09-03T07:12:37Z</time>
      </trkpt>
      <trkpt lat="43.96798" lon="5.08732">
        <ele>238</ele>
        <time>2016-09-03T07:12:44Z</time>
      </trkpt>
      <trkpt lat="43.96798" lon="5.08732">
        <ele>238</ele>
        <time>2016-09-03T07:12:47Z</time>
      </trkpt>
      <trkpt lat="43.96798" lon="5.08732">
        <ele>238</ele>
        <time>2016-09-03T07:12:52Z</time>
      </trkpt>
      <trkpt lat="43.96798" lon="5.08732">
        <ele>238</ele>
        <time>2016-09-03T07:12:57Z</time>
      </trkpt>
      <trkpt lat="43.96798" lon="5.08732">
        <ele>238</ele>
        <time>2016-09-03T07:13:02Z</time>
      </trkpt>
      <trkpt lat="43.96798" lon="5.08732">
        <ele>238</ele>
        <time>2016-09-03T07:13:07Z</time>
      </trkpt>
      <trkpt lat="43.96798" lon="5.08732">
        <ele>238</ele>
        <time>2016-09-03T07:13:12Z</time>
      </trkpt>
      <trkpt lat="43.96798" lon="5.08731">
        <ele>238</ele>
        <time>2016-09-03T07:13:20Z</time>
      </trkpt>
      <trkpt lat="43.96799" lon="5.08731">
        <ele>238</ele>
        <time>2016-09-03T07:13:22Z</time>
      </trkpt>
      <trkpt lat="43.96799" lon="5.08731">
        <ele>238</ele>
        <time>2016-09-03T07:13:27Z</time>
      </trkpt>
      <trkpt lat="43.96799" lon="5.08731">
        <ele>238</ele>
        <time>2016-09-03T07:13:33Z</time>
      </trkpt>
      <trkpt lat="43.96799" lon="5.08731">
        <ele>238</ele>
        <time>2016-09-03T07:13:37Z</time>
      </trkpt>
      <trkpt lat="43.96801" lon="5.08732">
        <ele>239</ele>
        <time>2016-09-03T07:13:46Z</time>
      </trkpt>
      <trkpt lat="43.96801" lon="5.08731">
        <ele>238</ele>
        <time>2016-09-03T07:13:47Z</time>
      </trkpt>
      <trkpt lat="43.96801" lon="5.0873">
        <ele>238</ele>
        <time>2016-09-03T07:13:52Z</time>
      </trkpt>
      <trkpt lat="43.96803" lon="5.08731">
        <ele>238</ele>
        <time>2016-09-03T07:13:58Z</time>
      </trkpt>
      <trkpt lat="43.96802" lon="5.08731">
        <ele>238</ele>
        <time>2016-09-03T07:14:02Z</time>
      </trkpt>
      <trkpt lat="43.96802" lon="5.08731">
        <ele>238</ele>
        <time>2016-09-03T07:14:07Z</time>
      </trkpt>
      <trkpt lat="43.96802" lon="5.08731">
        <ele>238</ele>
        <time>2016-09-03T07:14:12Z</time>
      </trkpt>
      <trkpt lat="43.96798" lon="5.08731">
        <ele>238</ele>
        <time>2016-09-03T07:14:17Z</time>
      </trkpt>
      <trkpt lat="43.96794" lon="5.08741">
        <ele>240</ele>
        <time>2016-09-03T07:14:24Z</time>
      </trkpt>
      <trkpt lat="43.9679" lon="5.08747">
        <ele>240</ele>
        <time>2016-09-03T07:14:27Z</time>
      </trkpt>
      <trkpt lat="43.96787" lon="5.08752">
        <ele>241</ele>
        <time>2016-09-03T07:14:32Z</time>
      </trkpt>
      <trkpt lat="43.96781" lon="5.08757">
        <ele>243</ele>
        <time>2016-09-03T07:14:38Z</time>
      </trkpt>
      <trkpt lat="43.96776" lon="5.08763">
        <ele>245</ele>
        <time>2016-09-03T07:14:42Z</time>
      </trkpt>
      <trkpt lat="43.96775" lon="5.0877">
        <ele>246</ele>
        <time>2016-09-03T07:14:50Z</time>
      </trkpt>
      <trkpt lat="43.96773" lon="5.0877">
        <ele>246</ele>
        <time>2016-09-03T07:14:56Z</time>
      </trkpt>
      <trkpt lat="43.96773" lon="5.0877">
        <ele>246</ele>
        <time>2016-09-03T07:14:58Z</time>
      </trkpt>
      <trkpt lat="43.96766" lon="5.08775">
        <ele>248</ele>
        <time>2016-09-03T07:15:05Z</time>
      </trkpt>
      <trkpt lat="43.96763" lon="5.08776">
        <ele>249</ele>
        <time>2016-09-03T07:15:07Z</time>
      </trkpt>
      <trkpt lat="43.96757" lon="5.0878">
        <ele>250</ele>
        <time>2016-09-03T07:15:12Z</time>
      </trkpt>
      <trkpt lat="43.96751" lon="5.08784">
        <ele>252</ele>
        <time>2016-09-03T07:15:17Z</time>
      </trkpt>
      <trkpt lat="43.96745" lon="5.08788">
        <ele>253</ele>
        <time>2016-09-03T07:15:22Z</time>
      </trkpt>
      <trkpt lat="43.96738" lon="5.08793">
        <ele>254</ele>
        <time>2016-09-03T07:15:27Z</time>
      </trkpt>
      <trkpt lat="43.96731" lon="5.08798">
        <ele>256</ele>
        <time>2016-09-03T07:15:32Z</time>
      </trkpt>
      <trkpt lat="43.96724" lon="5.08807">
        <ele>257</ele>
        <time>2016-09-03T07:15:37Z</time>
      </trkpt>
      <trkpt lat="43.96718" lon="5.08815">
        <ele>258</ele>
        <time>2016-09-03T07:15:42Z</time>
      </trkpt>
      <trkpt lat="43.9671" lon="5.08819">
        <ele>259</ele>
        <time>2016-09-03T07:15:47Z</time>
      </trkpt>
      <trkpt lat="43.96699" lon="5.08819">
        <ele>260</ele>
        <time>2016-09-03T07:15:52Z</time>
      </trkpt>
      <trkpt lat="43.96683" lon="5.08822">
        <ele>260</ele>
        <time>2016-09-03T07:15:57Z</time>
      </trkpt>
      <trkpt lat="43.96674" lon="5.08828">
        <ele>260</ele>
        <time>2016-09-03T07:16:02Z</time>
      </trkpt>
      <trkpt lat="43.96672" lon="5.08829">
        <ele>260</ele>
        <time>2016-09-03T07:16:07Z</time>
      </trkpt>
      <trkpt lat="43.96673" lon="5.0883">
        <ele>260</ele>
        <time>2016-09-03T07:16:12Z</time>
      </trkpt>
      <trkpt lat="43.96674" lon="5.0883">
        <ele>260</ele>
        <time>2016-09-03T07:16:17Z</time>
      </trkpt>
      <trkpt lat="43.96674" lon="5.0883">
        <ele>260</ele>
        <time>2016-09-03T07:16:22Z</time>
      </trkpt>
      <trkpt lat="43.96673" lon="5.0883">
        <ele>260</ele>
        <time>2016-09-03T07:16:27Z</time>
      </trkpt>
      <trkpt lat="43.96674" lon="5.0883">
        <ele>260</ele>
        <time>2016-09-03T07:16:32Z</time>
      </trkpt>
      <trkpt lat="43.96673" lon="5.0883">
        <ele>260</ele>
        <time>2016-09-03T07:16:37Z</time>
      </trkpt>
      <trkpt lat="43.96672" lon="5.08829">
        <ele>260</ele>
        <time>2016-09-03T07:16:42Z</time>
      </trkpt>
      <trkpt lat="43.96672" lon="5.08829">
        <ele>260</ele>
        <time>2016-09-03T07:16:47Z</time>
      </trkpt>
      <trkpt lat="43.96673" lon="5.0883">
        <ele>260</ele>
        <time>2016-09-03T07:16:52Z</time>
      </trkpt>
      <trkpt lat="43.96673" lon="5.0883">
        <ele>260</ele>
        <time>2016-09-03T07:16:57Z</time>
      </trkpt>
      <trkpt lat="43.96673" lon="5.0883">
        <ele>260</ele>
        <time>2016-09-03T07:17:02Z</time>
      </trkpt>
      <trkpt lat="43.96673" lon="5.0883">
        <ele>260</ele>
        <time>2016-09-03T07:17:07Z</time>
      </trkpt>
      <trkpt lat="43.96667" lon="5.08828">
        <ele>260</ele>
        <time>2016-09-03T07:17:12Z</time>
      </trkpt>
      <trkpt lat="43.96661" lon="5.08824">
        <ele>260</ele>
        <time>2016-09-03T07:17:17Z</time>
      </trkpt>
      <trkpt lat="43.96655" lon="5.08819">
        <ele>260</ele>
        <time>2016-09-03T07:17:22Z</time>
      </trkpt>
      <trkpt lat="43.96649" lon="5.08799">
        <ele>259</ele>
        <time>2016-09-03T07:17:27Z</time>
      </trkpt>
      <trkpt lat="43.96642" lon="5.08769">
        <ele>259</ele>
        <time>2016-09-03T07:17:32Z</time>
      </trkpt>
      <trkpt lat="43.96618" lon="5.08755">
        <ele>259</ele>
        <time>2016-09-03T07:17:37Z</time>
      </trkpt>
      <trkpt lat="43.96617" lon="5.08755">
        <ele>259</ele>
        <time>2016-09-03T07:17:42Z</time>
      </trkpt>
      <trkpt lat="43.96608" lon="5.08756">
        <ele>258</ele>
        <time>2016-09-03T07:17:47Z</time>
      </trkpt>
      <trkpt lat="43.96604" lon="5.08745">
        <ele>257</ele>
        <time>2016-09-03T07:17:52Z</time>
      </trkpt>
      <trkpt lat="43.96597" lon="5.08734">
        <ele>255</ele>
        <time>2016-09-03T07:17:57Z</time>
      </trkpt>
      <trkpt lat="43.96593" lon="5.08719">
        <ele>254</ele>
        <time>2016-09-03T07:18:02Z</time>
      </trkpt>
      <trkpt lat="43.96589" lon="5.08701">
        <ele>252</ele>
        <time>2016-09-03T07:18:07Z</time>
      </trkpt>
      <trkpt lat="43.96591" lon="5.08688">
        <ele>251</ele>
        <time>2016-09-03T07:18:12Z</time>
      </trkpt>
      <trkpt lat="43.96585" lon="5.08678">
        <ele>248</ele>
        <time>2016-09-03T07:18:17Z</time>
      </trkpt>
      <trkpt lat="43.96573" lon="5.0866">
        <ele>244</ele>
        <time>2016-09-03T07:18:22Z</time>
      </trkpt>
      <trkpt lat="43.96573" lon="5.08638">
        <ele>240</ele>
        <time>2016-09-03T07:18:27Z</time>
      </trkpt>
      <trkpt lat="43.96579" lon="5.0861">
        <ele>235</ele>
        <time>2016-09-03T07:18:34Z</time>
      </trkpt>
      <trkpt lat="43.96579" lon="5.08604">
        <ele>234</ele>
        <time>2016-09-03T07:18:37Z</time>
      </trkpt>
      <trkpt lat="43.96581" lon="5.08578">
        <ele>229</ele>
        <time>2016-09-03T07:18:45Z</time>
      </trkpt>
      <trkpt lat="43.96585" lon="5.08571">
        <ele>228</ele>
        <time>2016-09-03T07:18:47Z</time>
      </trkpt>
      <trkpt lat="43.9658" lon="5.08562">
        <ele>225</ele>
        <time>2016-09-03T07:18:52Z</time>
      </trkpt>
      <trkpt lat="43.96571" lon="5.08543">
        <ele>221</ele>
        <time>2016-09-03T07:18:59Z</time>
      </trkpt>
      <trkpt lat="43.9657" lon="5.08528">
        <ele>217</ele>
        <time>2016-09-03T07:19:02Z</time>
      </trkpt>
      <trkpt lat="43.96565" lon="5.08515">
        <ele>215</ele>
        <time>2016-09-03T07:19:07Z</time>
      </trkpt>
      <trkpt lat="43.96554" lon="5.08493">
        <ele>210</ele>
        <time>2016-09-03T07:19:15Z</time>
      </trkpt>
      <trkpt lat="43.96559" lon="5.0848">
        <ele>208</ele>
        <time>2016-09-03T07:19:21Z</time>
      </trkpt>
      <trkpt lat="43.96559" lon="5.08478">
        <ele>208</ele>
        <time>2016-09-03T07:19:22Z</time>
      </trkpt>
      <trkpt lat="43.9656" lon="5.08468">
        <ele>207</ele>
        <time>2016-09-03T07:19:27Z</time>
      </trkpt>
      <trkpt lat="43.96563" lon="5.08456">
        <ele>207</ele>
        <time>2016-09-03T07:19:32Z</time>
      </trkpt>
      <trkpt lat="43.96559" lon="5.08444">
        <ele>207</ele>
        <time>2016-09-03T07:19:37Z</time>
      </trkpt>
      <trkpt lat="43.96559" lon="5.08443">
        <ele>207</ele>
        <time>2016-09-03T07:19:42Z</time>
      </trkpt>
      <trkpt lat="43.96557" lon="5.08438">
        <ele>207</ele>
        <time>2016-09-03T07:19:47Z</time>
      </trkpt>
      <trkpt lat="43.96557" lon="5.08427">
        <ele>207</ele>
        <time>2016-09-03T07:19:53Z</time>
      </trkpt>
      <trkpt lat="43.96557" lon="5.08419">
        <ele>208</ele>
        <time>2016-09-03T07:19:57Z</time>
      </trkpt>
      <trkpt lat="43.96558" lon="5.08417">
        <ele>208</ele>
        <time>2016-09-03T07:20:02Z</time>
      </trkpt>
      <trkpt lat="43.96558" lon="5.08416">
        <ele>208</ele>
        <time>2016-09-03T07:20:07Z</time>
      </trkpt>
      <trkpt lat="43.96558" lon="5.08417">
        <ele>208</ele>
        <time>2016-09-03T07:20:12Z</time>
      </trkpt>
      <trkpt lat="43.96559" lon="5.08418">
        <ele>208</ele>
        <time>2016-09-03T07:20:17Z</time>
      </trkpt>
      <trkpt lat="43.96559" lon="5.08418">
        <ele>208</ele>
        <time>2016-09-03T07:20:25Z</time>
      </trkpt>
      <trkpt lat="43.96559" lon="5.08418">
        <ele>208</ele>
        <time>2016-09-03T07:20:27Z</time>
      </trkpt>
      <trkpt lat="43.96559" lon="5.08418">
        <ele>208</ele>
        <time>2016-09-03T07:20:32Z</time>
      </trkpt>
      <trkpt lat="43.96559" lon="5.08418">
        <ele>208</ele>
        <time>2016-09-03T07:20:37Z</time>
      </trkpt>
      <trkpt lat="43.96559" lon="5.08418">
        <ele>208</ele>
        <time>2016-09-03T07:20:42Z</time>
      </trkpt>
      <trkpt lat="43.96558" lon="5.08416">
        <ele>208</ele>
        <time>2016-09-03T07:20:47Z</time>
      </trkpt>
      <trkpt lat="43.96558" lon="5.08414">
        <ele>208</ele>
        <time>2016-09-03T07:20:56Z</time>
      </trkpt>
      <trkpt lat="43.96558" lon="5.08414">
        <ele>208</ele>
        <time>2016-09-03T07:20:57Z</time>
      </trkpt>
      <trkpt lat="43.96558" lon="5.08414">
        <ele>208</ele>
        <time>2016-09-03T07:21:01Z</time>
      </trkpt>
      <trkpt lat="43.96558" lon="5.08414">
        <ele>208</ele>
        <time>2016-09-03T07:21:07Z</time>
      </trkpt>
      <trkpt lat="43.96559" lon="5.08414">
        <ele>208</ele>
        <time>2016-09-03T07:21:12Z</time>
      </trkpt>
      <trkpt lat="43.96559" lon="5.08414">
        <ele>208</ele>
        <time>2016-09-03T07:21:19Z</time>
      </trkpt>
      <trkpt lat="43.96559" lon="5.08414">
        <ele>208</ele>
        <time>2016-09-03T07:21:22Z</time>
      </trkpt>
      <trkpt lat="43.96556" lon="5.08414">
        <ele>208</ele>
        <time>2016-09-03T07:21:29Z</time>
      </trkpt>
      <trkpt lat="43.96557" lon="5.08414">
        <ele>208</ele>
        <time>2016-09-03T07:21:32Z</time>
      </trkpt>
      <trkpt lat="43.96557" lon="5.08414">
        <ele>208</ele>
        <time>2016-09-03T07:21:40Z</time>
      </trkpt>
      <trkpt lat="43.96557" lon="5.08414">
        <ele>208</ele>
        <time>2016-09-03T07:21:42Z</time>
      </trkpt>
      <trkpt lat="43.96559" lon="5.08412">
        <ele>209</ele>
        <time>2016-09-03T07:21:47Z</time>
      </trkpt>
      <trkpt lat="43.96556" lon="5.084">
        <ele>210</ele>
        <time>2016-09-03T07:21:52Z</time>
      </trkpt>
      <trkpt lat="43.96548" lon="5.08386">
        <ele>210</ele>
        <time>2016-09-03T07:22:00Z</time>
      </trkpt>
      <trkpt lat="43.96542" lon="5.08375">
        <ele>210</ele>
        <time>2016-09-03T07:22:06Z</time>
      </trkpt>
      <trkpt lat="43.96539" lon="5.0837">
        <ele>210</ele>
        <time>2016-09-03T07:22:07Z</time>
      </trkpt>
      <trkpt lat="43.96528" lon="5.08362">
        <ele>210</ele>
        <time>2016-09-03T07:22:13Z</time>
      </trkpt>
      <trkpt lat="43.96529" lon="5.08362">
        <ele>210</ele>
        <time>2016-09-03T07:22:17Z</time>
      </trkpt>
      <trkpt lat="43.96529" lon="5.08363">
        <ele>210</ele>
        <time>2016-09-03T07:22:26Z</time>
      </trkpt>
      <trkpt lat="43.96529" lon="5.08363">
        <ele>210</ele>
        <time>2016-09-03T07:22:27Z</time>
      </trkpt>
      <trkpt lat="43.96524" lon="5.08362">
        <ele>209</ele>
        <time>2016-09-03T07:22:35Z</time>
      </trkpt>
      <trkpt lat="43.96524" lon="5.08361">
        <ele>209</ele>
        <time>2016-09-03T07:22:37Z</time>
      </trkpt>
      <trkpt lat="43.96524" lon="5.08361">
        <ele>209</ele>
        <time>2016-09-03T07:22:42Z</time>
      </trkpt>
      <trkpt lat="43.96524" lon="5.08361">
        <ele>209</ele>
        <time>2016-09-03T07:22:47Z</time>
      </trkpt>
      <trkpt lat="43.96524" lon="5.08361">
        <ele>209</ele>
        <time>2016-09-03T07:22:54Z</time>
      </trkpt>
      <trkpt lat="43.96524" lon="5.08361">
        <ele>209</ele>
        <time>2016-09-03T07:22:57Z</time>
      </trkpt>
      <trkpt lat="43.96524" lon="5.08361">
        <ele>209</ele>
        <time>2016-09-03T07:23:02Z</time>
      </trkpt>
      <trkpt lat="43.96524" lon="5.0836">
        <ele>209</ele>
        <time>2016-09-03T07:23:11Z</time>
      </trkpt>
      <trkpt lat="43.96523" lon="5.08361">
        <ele>209</ele>
        <time>2016-09-03T07:23:12Z</time>
      </trkpt>
      <trkpt lat="43.96523" lon="5.08361">
        <ele>209</ele>
        <time>2016-09-03T07:23:17Z</time>
      </trkpt>
      <trkpt lat="43.96523" lon="5.0836">
        <ele>209</ele>
        <time>2016-09-03T07:23:25Z</time>
      </trkpt>
      <trkpt lat="43.96524" lon="5.0836">
        <ele>209</ele>
        <time>2016-09-03T07:23:27Z</time>
      </trkpt>
      <trkpt lat="43.96528" lon="5.08366">
        <ele>209</ele>
        <time>2016-09-03T07:23:32Z</time>
      </trkpt>
      <trkpt lat="43.96533" lon="5.08373">
        <ele>209</ele>
        <time>2016-09-03T07:23:37Z</time>
      </trkpt>
      <trkpt lat="43.9654" lon="5.08375">
        <ele>210</ele>
        <time>2016-09-03T07:23:42Z</time>
      </trkpt>
      <trkpt lat="43.96543" lon="5.08386">
        <ele>209</ele>
        <time>2016-09-03T07:23:47Z</time>
      </trkpt>
      <trkpt lat="43.96544" lon="5.08395">
        <ele>208</ele>
        <time>2016-09-03T07:23:52Z</time>
      </trkpt>
      <trkpt lat="43.96543" lon="5.08405">
        <ele>207</ele>
        <time>2016-09-03T07:23:57Z</time>
      </trkpt>
      <trkpt lat="43.96543" lon="5.08406">
        <ele>207</ele>
        <time>2016-09-03T07:24:02Z</time>
      </trkpt>
      <trkpt lat="43.96542" lon="5.08407">
        <ele>207</ele>
        <time>2016-09-03T07:24:11Z</time>
      </trkpt>
      <trkpt lat="43.96542" lon="5.08407">
        <ele>207</ele>
        <time>2016-09-03T07:24:12Z</time>
      </trkpt>
      <trkpt lat="43.96529" lon="5.08406">
        <ele>205</ele>
        <time>2016-09-03T07:24:17Z</time>
      </trkpt>
      <trkpt lat="43.9652" lon="5.08403">
        <ele>203</ele>
        <time>2016-09-03T07:24:22Z</time>
      </trkpt>
      <trkpt lat="43.96515" lon="5.08402">
        <ele>202</ele>
        <time>2016-09-03T07:24:28Z</time>
      </trkpt>
      <trkpt lat="43.96514" lon="5.08402">
        <ele>202</ele>
        <time>2016-09-03T07:24:32Z</time>
      </trkpt>
      <trkpt lat="43.96512" lon="5.08402">
        <ele>202</ele>
        <time>2016-09-03T07:24:41Z</time>
      </trkpt>
      <trkpt lat="43.96512" lon="5.08402">
        <ele>202</ele>
        <time>2016-09-03T07:24:42Z</time>
      </trkpt>
      <trkpt lat="43.96504" lon="5.08403">
        <ele>201</ele>
        <time>2016-09-03T07:24:47Z</time>
      </trkpt>
      <trkpt lat="43.96493" lon="5.084">
        <ele>201</ele>
        <time>2016-09-03T07:24:52Z</time>
      </trkpt>
      <trkpt lat="43.96484" lon="5.08398">
        <ele>200</ele>
        <time>2016-09-03T07:24:57Z</time>
      </trkpt>
      <trkpt lat="43.96472" lon="5.08398">
        <ele>201</ele>
        <time>2016-09-03T07:25:02Z</time>
      </trkpt>
      <trkpt lat="43.96464" lon="5.08397">
        <ele>201</ele>
        <time>2016-09-03T07:25:07Z</time>
      </trkpt>
      <trkpt lat="43.96456" lon="5.08395">
        <ele>201</ele>
        <time>2016-09-03T07:25:13Z</time>
      </trkpt>
      <trkpt lat="43.96445" lon="5.08393">
        <ele>202</ele>
        <time>2016-09-03T07:25:20Z</time>
      </trkpt>
      <trkpt lat="43.96442" lon="5.08391">
        <ele>202</ele>
        <time>2016-09-03T07:25:22Z</time>
      </trkpt>
      <trkpt lat="43.96432" lon="5.08388">
        <ele>203</ele>
        <time>2016-09-03T07:25:29Z</time>
      </trkpt>
      <trkpt lat="43.96428" lon="5.08388">
        <ele>204</ele>
        <time>2016-09-03T07:25:32Z</time>
      </trkpt>
      <trkpt lat="43.96422" lon="5.08385">
        <ele>204</ele>
        <time>2016-09-03T07:25:37Z</time>
      </trkpt>
      <trkpt lat="43.96414" lon="5.08383">
        <ele>205</ele>
        <time>2016-09-03T07:25:43Z</time>
      </trkpt>
      <trkpt lat="43.96408" lon="5.08385">
        <ele>206</ele>
        <time>2016-09-03T07:25:47Z</time>
      </trkpt>
      <trkpt lat="43.96403" lon="5.08388">
        <ele>208</ele>
        <time>2016-09-03T07:25:52Z</time>
      </trkpt>
      <trkpt lat="43.96394" lon="5.0839">
        <ele>210</ele>
        <time>2016-09-03T07:25:57Z</time>
      </trkpt>
      <trkpt lat="43.96385" lon="5.08391">
        <ele>211</ele>
        <time>2016-09-03T07:26:02Z</time>
      </trkpt>
      <trkpt lat="43.96377" lon="5.08391">
        <ele>211</ele>
        <time>2016-09-03T07:26:07Z</time>
      </trkpt>
      <trkpt lat="43.96368" lon="5.08394">
        <ele>212</ele>
        <time>2016-09-03T07:26:12Z</time>
      </trkpt>
      <trkpt lat="43.96359" lon="5.08395">
        <ele>212</ele>
        <time>2016-09-03T07:26:18Z</time>
      </trkpt>
      <trkpt lat="43.9635" lon="5.08406">
        <ele>215</ele>
        <time>2016-09-03T07:26:26Z</time>
      </trkpt>
      <trkpt lat="43.96352" lon="5.08408">
        <ele>216</ele>
        <time>2016-09-03T07:26:27Z</time>
      </trkpt>
      <trkpt lat="43.96363" lon="5.08419">
        <ele>219</ele>
        <time>2016-09-03T07:26:36Z</time>
      </trkpt>
      <trkpt lat="43.96368" lon="5.08429">
        <ele>221</ele>
        <time>2016-09-03T07:26:41Z</time>
      </trkpt>
      <trkpt lat="43.96372" lon="5.08437">
        <ele>222</ele>
        <time>2016-09-03T07:26:45Z</time>
      </trkpt>
      <trkpt lat="43.96371" lon="5.0844">
        <ele>223</ele>
        <time>2016-09-03T07:26:48Z</time>
      </trkpt>
      <trkpt lat="43.96372" lon="5.08441">
        <ele>223</ele>
        <time>2016-09-03T07:26:56Z</time>
      </trkpt>
      <trkpt lat="43.96371" lon="5.08446">
        <ele>224</ele>
        <time>2016-09-03T07:26:59Z</time>
      </trkpt>
      <trkpt lat="43.96374" lon="5.08461">
        <ele>227</ele>
        <time>2016-09-03T07:27:04Z</time>
      </trkpt>
      <trkpt lat="43.96378" lon="5.0847">
        <ele>228</ele>
        <time>2016-09-03T07:27:07Z</time>
      </trkpt>
      <trkpt lat="43.96387" lon="5.08479">
        <ele>230</ele>
        <time>2016-09-03T07:27:12Z</time>
      </trkpt>
      <trkpt lat="43.96395" lon="5.0849">
        <ele>230</ele>
        <time>2016-09-03T07:27:17Z</time>
      </trkpt>
      <trkpt lat="43.96398" lon="5.08503">
        <ele>231</ele>
        <time>2016-09-03T07:27:23Z</time>
      </trkpt>
      <trkpt lat="43.96398" lon="5.08503">
        <ele>231</ele>
        <time>2016-09-03T07:27:30Z</time>
      </trkpt>
      <trkpt lat="43.96398" lon="5.08503">
        <ele>231</ele>
        <time>2016-09-03T07:27:35Z</time>
      </trkpt>
      <trkpt lat="43.96398" lon="5.08503">
        <ele>231</ele>
        <time>2016-09-03T07:27:37Z</time>
      </trkpt>
      <trkpt lat="43.96398" lon="5.08503">
        <ele>231</ele>
        <time>2016-09-03T07:27:42Z</time>
      </trkpt>
      <trkpt lat="43.96398" lon="5.08503">
        <ele>231</ele>
        <time>2016-09-03T07:27:47Z</time>
      </trkpt>
      <trkpt lat="43.96398" lon="5.08506">
        <ele>231</ele>
        <time>2016-09-03T07:27:54Z</time>
      </trkpt>
      <trkpt lat="43.96398" lon="5.08513">
        <ele>232</ele>
        <time>2016-09-03T07:27:57Z</time>
      </trkpt>
      <trkpt lat="43.96399" lon="5.0852">
        <ele>232</ele>
        <time>2016-09-03T07:28:05Z</time>
      </trkpt>
      <trkpt lat="43.96399" lon="5.0852">
        <ele>232</ele>
        <time>2016-09-03T07:28:07Z</time>
      </trkpt>
      <trkpt lat="43.96399" lon="5.08522">
        <ele>233</ele>
        <time>2016-09-03T07:28:12Z</time>
      </trkpt>
      <trkpt lat="43.96402" lon="5.08525">
        <ele>233</ele>
        <time>2016-09-03T07:28:17Z</time>
      </trkpt>
      <trkpt lat="43.96401" lon="5.08532">
        <ele>233</ele>
        <time>2016-09-03T07:28:22Z</time>
      </trkpt>
      <trkpt lat="43.96394" lon="5.08538">
        <ele>232</ele>
        <time>2016-09-03T07:28:27Z</time>
      </trkpt>
      <trkpt lat="43.96397" lon="5.08542">
        <ele>233</ele>
        <time>2016-09-03T07:28:32Z</time>
      </trkpt>
      <trkpt lat="43.96399" lon="5.08548">
        <ele>234</ele>
        <time>2016-09-03T07:28:37Z</time>
      </trkpt>
      <trkpt lat="43.96405" lon="5.08561">
        <ele>235</ele>
        <time>2016-09-03T07:28:43Z</time>
      </trkpt>
      <trkpt lat="43.96411" lon="5.08575">
        <ele>236</ele>
        <time>2016-09-03T07:28:48Z</time>
      </trkpt>
      <trkpt lat="43.96413" lon="5.08586">
        <ele>236</ele>
        <time>2016-09-03T07:28:52Z</time>
      </trkpt>
      <trkpt lat="43.96415" lon="5.08593">
        <ele>237</ele>
        <time>2016-09-03T07:28:57Z</time>
      </trkpt>
      <trkpt lat="43.96415" lon="5.08611">
        <ele>237</ele>
        <time>2016-09-03T07:29:04Z</time>
      </trkpt>
      <trkpt lat="43.96419" lon="5.08621">
        <ele>237</ele>
        <time>2016-09-03T07:29:07Z</time>
      </trkpt>
      <trkpt lat="43.96425" lon="5.08647">
        <ele>237</ele>
        <time>2016-09-03T07:29:16Z</time>
      </trkpt>
      <trkpt lat="43.96424" lon="5.08649">
        <ele>237</ele>
        <time>2016-09-03T07:29:17Z</time>
      </trkpt>
      <trkpt lat="43.96423" lon="5.08657">
        <ele>236</ele>
        <time>2016-09-03T07:29:22Z</time>
      </trkpt>
      <trkpt lat="43.96425" lon="5.08665">
        <ele>237</ele>
        <time>2016-09-03T07:29:27Z</time>
      </trkpt>
      <trkpt lat="43.96425" lon="5.08665">
        <ele>237</ele>
        <time>2016-09-03T07:29:32Z</time>
      </trkpt>
      <trkpt lat="43.96428" lon="5.08676">
        <ele>237</ele>
        <time>2016-09-03T07:29:38Z</time>
      </trkpt>
      <trkpt lat="43.96424" lon="5.08696">
        <ele>235</ele>
        <time>2016-09-03T07:29:46Z</time>
      </trkpt>
      <trkpt lat="43.96424" lon="5.08697">
        <ele>236</ele>
        <time>2016-09-03T07:29:47Z</time>
      </trkpt>
      <trkpt lat="43.96422" lon="5.08696">
        <ele>235</ele>
        <time>2016-09-03T07:29:52Z</time>
      </trkpt>
      <trkpt lat="43.96422" lon="5.08692">
        <ele>235</ele>
        <time>2016-09-03T07:30:01Z</time>
      </trkpt>
      <trkpt lat="43.96422" lon="5.08692">
        <ele>235</ele>
        <time>2016-09-03T07:30:02Z</time>
      </trkpt>
      <trkpt lat="43.96423" lon="5.08693">
        <ele>235</ele>
        <time>2016-09-03T07:30:07Z</time>
      </trkpt>
      <trkpt lat="43.96422" lon="5.08695">
        <ele>235</ele>
        <time>2016-09-03T07:30:12Z</time>
      </trkpt>
      <trkpt lat="43.96424" lon="5.08693">
        <ele>236</ele>
        <time>2016-09-03T07:30:18Z</time>
      </trkpt>
      <trkpt lat="43.96424" lon="5.08694">
        <ele>235</ele>
        <time>2016-09-03T07:30:22Z</time>
      </trkpt>
      <trkpt lat="43.96423" lon="5.08694">
        <ele>235</ele>
        <time>2016-09-03T07:30:27Z</time>
      </trkpt>
      <trkpt lat="43.96423" lon="5.08695">
        <ele>235</ele>
        <time>2016-09-03T07:30:34Z</time>
      </trkpt>
      <trkpt lat="43.96423" lon="5.08696">
        <ele>235</ele>
        <time>2016-09-03T07:30:37Z</time>
      </trkpt>
      <trkpt lat="43.96424" lon="5.08701">
        <ele>235</ele>
        <time>2016-09-03T07:30:42Z</time>
      </trkpt>
      <trkpt lat="43.96427" lon="5.08708">
        <ele>236</ele>
        <time>2016-09-03T07:30:47Z</time>
      </trkpt>
      <trkpt lat="43.96433" lon="5.08714">
        <ele>238</ele>
        <time>2016-09-03T07:30:51Z</time>
      </trkpt>
      <trkpt lat="43.96441" lon="5.08719">
        <ele>240</ele>
        <time>2016-09-03T07:30:58Z</time>
      </trkpt>
      <trkpt lat="43.96451" lon="5.0872">
        <ele>242</ele>
        <time>2016-09-03T07:31:04Z</time>
      </trkpt>
      <trkpt lat="43.96463" lon="5.08719">
        <ele>245</ele>
        <time>2016-09-03T07:31:10Z</time>
      </trkpt>
      <trkpt lat="43.96467" lon="5.08721">
        <ele>245</ele>
        <time>2016-09-03T07:31:13Z</time>
      </trkpt>
      <trkpt lat="43.96474" lon="5.08722">
        <ele>246</ele>
        <time>2016-09-03T07:31:18Z</time>
      </trkpt>
      <trkpt lat="43.96483" lon="5.08724">
        <ele>248</ele>
        <time>2016-09-03T07:31:22Z</time>
      </trkpt>
      <trkpt lat="43.96491" lon="5.0873">
        <ele>249</ele>
        <time>2016-09-03T07:31:27Z</time>
      </trkpt>
      <trkpt lat="43.965" lon="5.08737">
        <ele>250</ele>
        <time>2016-09-03T07:31:32Z</time>
      </trkpt>
      <trkpt lat="43.96505" lon="5.08746">
        <ele>250</ele>
        <time>2016-09-03T07:31:37Z</time>
      </trkpt>
      <trkpt lat="43.96516" lon="5.08755">
        <ele>250</ele>
        <time>2016-09-03T07:31:44Z</time>
      </trkpt>
      <trkpt lat="43.96519" lon="5.08758">
        <ele>250</ele>
        <time>2016-09-03T07:31:47Z</time>
      </trkpt>
      <trkpt lat="43.96523" lon="5.08761">
        <ele>251</ele>
        <time>2016-09-03T07:31:52Z</time>
      </trkpt>
      <trkpt lat="43.96527" lon="5.0877">
        <ele>251</ele>
        <time>2016-09-03T07:31:57Z</time>
      </trkpt>
      <trkpt lat="43.96533" lon="5.08786">
        <ele>250</ele>
        <time>2016-09-03T07:32:05Z</time>
      </trkpt>
      <trkpt lat="43.96534" lon="5.08788">
        <ele>250</ele>
        <time>2016-09-03T07:32:07Z</time>
      </trkpt>
      <trkpt lat="43.96535" lon="5.08795">
        <ele>250</ele>
        <time>2016-09-03T07:32:12Z</time>
      </trkpt>
      <trkpt lat="43.96539" lon="5.08799">
        <ele>250</ele>
        <time>2016-09-03T07:32:17Z</time>
      </trkpt>
      <trkpt lat="43.96544" lon="5.08806">
        <ele>250</ele>
        <time>2016-09-03T07:32:22Z</time>
      </trkpt>
      <trkpt lat="43.9655" lon="5.08814">
        <ele>251</ele>
        <time>2016-09-03T07:32:27Z</time>
      </trkpt>
      <trkpt lat="43.96558" lon="5.08824">
        <ele>251</ele>
        <time>2016-09-03T07:32:34Z</time>
      </trkpt>
      <trkpt lat="43.96561" lon="5.08828">
        <ele>251</ele>
        <time>2016-09-03T07:32:37Z</time>
      </trkpt>
      <trkpt lat="43.96563" lon="5.08842">
        <ele>251</ele>
        <time>2016-09-03T07:32:45Z</time>
      </trkpt>
      <trkpt lat="43.96565" lon="5.08847">
        <ele>251</ele>
        <time>2016-09-03T07:32:48Z</time>
      </trkpt>
      <trkpt lat="43.96574" lon="5.0886">
        <ele>252</ele>
        <time>2016-09-03T07:32:55Z</time>
      </trkpt>
      <trkpt lat="43.9658" lon="5.08868">
        <ele>253</ele>
        <time>2016-09-03T07:32:59Z</time>
      </trkpt>
      <trkpt lat="43.96583" lon="5.08874">
        <ele>254</ele>
        <time>2016-09-03T07:33:02Z</time>
      </trkpt>
      <trkpt lat="43.96587" lon="5.08891">
        <ele>255</ele>
        <time>2016-09-03T07:33:09Z</time>
      </trkpt>
      <trkpt lat="43.96589" lon="5.08896">
        <ele>256</ele>
        <time>2016-09-03T07:33:12Z</time>
      </trkpt>
      <trkpt lat="43.96602" lon="5.08909">
        <ele>259</ele>
        <time>2016-09-03T07:33:20Z</time>
      </trkpt>
      <trkpt lat="43.96613" lon="5.08918">
        <ele>260</ele>
        <time>2016-09-03T07:33:26Z</time>
      </trkpt>
      <trkpt lat="43.96614" lon="5.08919">
        <ele>260</ele>
        <time>2016-09-03T07:33:27Z</time>
      </trkpt>
      <trkpt lat="43.96621" lon="5.08921">
        <ele>258</ele>
        <time>2016-09-03T07:33:32Z</time>
      </trkpt>
      <trkpt lat="43.96629" lon="5.08925">
        <ele>255</ele>
        <time>2016-09-03T07:33:37Z</time>
      </trkpt>
      <trkpt lat="43.96637" lon="5.0893">
        <ele>253</ele>
        <time>2016-09-03T07:33:42Z</time>
      </trkpt>
      <trkpt lat="43.96649" lon="5.08936">
        <ele>251</ele>
        <time>2016-09-03T07:33:47Z</time>
      </trkpt>
      <trkpt lat="43.96659" lon="5.08938">
        <ele>250</ele>
        <time>2016-09-03T07:33:52Z</time>
      </trkpt>
      <trkpt lat="43.96661" lon="5.0894">
        <ele>250</ele>
        <time>2016-09-03T07:33:57Z</time>
      </trkpt>
      <trkpt lat="43.96659" lon="5.0894">
        <ele>250</ele>
        <time>2016-09-03T07:34:02Z</time>
      </trkpt>
      <trkpt lat="43.96659" lon="5.08941">
        <ele>250</ele>
        <time>2016-09-03T07:34:09Z</time>
      </trkpt>
      <trkpt lat="43.96659" lon="5.08941">
        <ele>250</ele>
        <time>2016-09-03T07:34:12Z</time>
      </trkpt>
      <trkpt lat="43.96659" lon="5.08941">
        <ele>250</ele>
        <time>2016-09-03T07:34:19Z</time>
      </trkpt>
      <trkpt lat="43.96659" lon="5.08941">
        <ele>250</ele>
        <time>2016-09-03T07:34:22Z</time>
      </trkpt>
      <trkpt lat="43.96659" lon="5.08941">
        <ele>250</ele>
        <time>2016-09-03T07:34:27Z</time>
      </trkpt>
      <trkpt lat="43.96661" lon="5.08943">
        <ele>250</ele>
        <time>2016-09-03T07:34:32Z</time>
      </trkpt>
      <trkpt lat="43.96667" lon="5.08947">
        <ele>250</ele>
        <time>2016-09-03T07:34:37Z</time>
      </trkpt>
      <trkpt lat="43.96675" lon="5.08949">
        <ele>250</ele>
        <time>2016-09-03T07:34:42Z</time>
      </trkpt>
      <trkpt lat="43.9668" lon="5.08949">
        <ele>251</ele>
        <time>2016-09-03T07:34:47Z</time>
      </trkpt>
      <trkpt lat="43.9669" lon="5.08953">
        <ele>251</ele>
        <time>2016-09-03T07:34:52Z</time>
      </trkpt>
      <trkpt lat="43.96702" lon="5.08959">
        <ele>252</ele>
        <time>2016-09-03T07:34:57Z</time>
      </trkpt>
      <trkpt lat="43.96714" lon="5.08965">
        <ele>251</ele>
        <time>2016-09-03T07:35:02Z</time>
      </trkpt>
      <trkpt lat="43.96727" lon="5.08969">
        <ele>251</ele>
        <time>2016-09-03T07:35:07Z</time>
      </trkpt>
      <trkpt lat="43.96738" lon="5.08974">
        <ele>251</ele>
        <time>2016-09-03T07:35:12Z</time>
      </trkpt>
      <trkpt lat="43.96752" lon="5.0898">
        <ele>251</ele>
        <time>2016-09-03T07:35:17Z</time>
      </trkpt>
      <trkpt lat="43.96765" lon="5.08987">
        <ele>252</ele>
        <time>2016-09-03T07:35:22Z</time>
      </trkpt>
      <trkpt lat="43.96779" lon="5.08991">
        <ele>253</ele>
        <time>2016-09-03T07:35:27Z</time>
      </trkpt>
      <trkpt lat="43.96792" lon="5.08995">
        <ele>255</ele>
        <time>2016-09-03T07:35:32Z</time>
      </trkpt>
      <trkpt lat="43.96805" lon="5.08998">
        <ele>257</ele>
        <time>2016-09-03T07:35:37Z</time>
      </trkpt>
      <trkpt lat="43.9682" lon="5.09002">
        <ele>258</ele>
        <time>2016-09-03T07:35:42Z</time>
      </trkpt>
      <trkpt lat="43.96832" lon="5.09004">
        <ele>260</ele>
        <time>2016-09-03T07:35:47Z</time>
      </trkpt>
      <trkpt lat="43.96846" lon="5.09007">
        <ele>260</ele>
        <time>2016-09-03T07:35:52Z</time>
      </trkpt>
      <trkpt lat="43.96859" lon="5.0901">
        <ele>260</ele>
        <time>2016-09-03T07:35:57Z</time>
      </trkpt>
      <trkpt lat="43.96869" lon="5.09018">
        <ele>260</ele>
        <time>2016-09-03T07:36:02Z</time>
      </trkpt>
      <trkpt lat="43.96879" lon="5.09022">
        <ele>259</ele>
        <time>2016-09-03T07:36:07Z</time>
      </trkpt>
      <trkpt lat="43.96889" lon="5.09025">
        <ele>260</ele>
        <time>2016-09-03T07:36:12Z</time>
      </trkpt>
      <trkpt lat="43.96898" lon="5.09034">
        <ele>260</ele>
        <time>2016-09-03T07:36:17Z</time>
      </trkpt>
      <trkpt lat="43.96905" lon="5.09043">
        <ele>258</ele>
        <time>2016-09-03T07:36:22Z</time>
      </trkpt>
      <trkpt lat="43.9691" lon="5.0905">
        <ele>257</ele>
        <time>2016-09-03T07:36:27Z</time>
      </trkpt>
      <trkpt lat="43.96907" lon="5.09055">
        <ele>255</ele>
        <time>2016-09-03T07:36:32Z</time>
      </trkpt>
      <trkpt lat="43.96891" lon="5.09059">
        <ele>252</ele>
        <time>2016-09-03T07:36:40Z</time>
      </trkpt>
      <trkpt lat="43.96888" lon="5.09057">
        <ele>253</ele>
        <time>2016-09-03T07:36:43Z</time>
      </trkpt>
      <trkpt lat="43.96885" lon="5.09058">
        <ele>252</ele>
        <time>2016-09-03T07:36:47Z</time>
      </trkpt>
      <trkpt lat="43.96882" lon="5.09056">
        <ele>253</ele>
        <time>2016-09-03T07:36:52Z</time>
      </trkpt>
      <trkpt lat="43.96879" lon="5.09063">
        <ele>251</ele>
        <time>2016-09-03T07:36:57Z</time>
      </trkpt>
      <trkpt lat="43.96878" lon="5.09064">
        <ele>251</ele>
        <time>2016-09-03T07:37:02Z</time>
      </trkpt>
      <trkpt lat="43.96879" lon="5.09064">
        <ele>251</ele>
        <time>2016-09-03T07:37:07Z</time>
      </trkpt>
      <trkpt lat="43.96886" lon="5.09062">
        <ele>251</ele>
        <time>2016-09-03T07:37:13Z</time>
      </trkpt>
      <trkpt lat="43.9689" lon="5.0906">
        <ele>252</ele>
        <time>2016-09-03T07:37:17Z</time>
      </trkpt>
      <trkpt lat="43.96905" lon="5.09059">
        <ele>253</ele>
        <time>2016-09-03T07:37:24Z</time>
      </trkpt>
      <trkpt lat="43.96909" lon="5.09051">
        <ele>256</ele>
        <time>2016-09-03T07:37:27Z</time>
      </trkpt>
      <trkpt lat="43.96922" lon="5.09044">
        <ele>259</ele>
        <time>2016-09-03T07:37:35Z</time>
      </trkpt>
      <trkpt lat="43.96924" lon="5.09041">
        <ele>259</ele>
        <time>2016-09-03T07:37:37Z</time>
      </trkpt>
      <trkpt lat="43.96933" lon="5.09042">
        <ele>260</ele>
        <time>2016-09-03T07:37:44Z</time>
      </trkpt>
      <trkpt lat="43.96937" lon="5.09046">
        <ele>259</ele>
        <time>2016-09-03T07:37:47Z</time>
      </trkpt>
      <trkpt lat="43.96944" lon="5.09049">
        <ele>259</ele>
        <time>2016-09-03T07:37:52Z</time>
      </trkpt>
      <trkpt lat="43.96951" lon="5.09058">
        <ele>259</ele>
        <time>2016-09-03T07:37:57Z</time>
      </trkpt>
      <trkpt lat="43.96954" lon="5.09067">
        <ele>258</ele>
        <time>2016-09-03T07:38:02Z</time>
      </trkpt>
      <trkpt lat="43.96962" lon="5.09075">
        <ele>258</ele>
        <time>2016-09-03T07:38:07Z</time>
      </trkpt>
      <trkpt lat="43.96966" lon="5.09078">
        <ele>258</ele>
        <time>2016-09-03T07:38:12Z</time>
      </trkpt>
      <trkpt lat="43.96966" lon="5.09081">
        <ele>258</ele>
        <time>2016-09-03T07:38:17Z</time>
      </trkpt>
      <trkpt lat="43.96959" lon="5.09088">
        <ele>255</ele>
        <time>2016-09-03T07:38:22Z</time>
      </trkpt>
      <trkpt lat="43.9695" lon="5.0911">
        <ele>255</ele>
        <time>2016-09-03T07:38:27Z</time>
      </trkpt>
      <trkpt lat="43.96935" lon="5.09136">
        <ele>258</ele>
        <time>2016-09-03T07:38:32Z</time>
      </trkpt>
      <trkpt lat="43.96916" lon="5.09124">
        <ele>257</ele>
        <time>2016-09-03T07:38:37Z</time>
      </trkpt>
      <trkpt lat="43.96907" lon="5.09117">
        <ele>255</ele>
        <time>2016-09-03T07:38:42Z</time>
      </trkpt>
      <trkpt lat="43.96912" lon="5.09123">
        <ele>256</ele>
        <time>2016-09-03T07:38:47Z</time>
      </trkpt>
      <trkpt lat="43.96926" lon="5.09132">
        <ele>258</ele>
        <time>2016-09-03T07:38:52Z</time>
      </trkpt>
      <trkpt lat="43.96938" lon="5.09125">
        <ele>257</ele>
        <time>2016-09-03T07:38:57Z</time>
      </trkpt>
      <trkpt lat="43.96951" lon="5.09109">
        <ele>254</ele>
        <time>2016-09-03T07:39:02Z</time>
      </trkpt>
      <trkpt lat="43.96958" lon="5.09091">
        <ele>255</ele>
        <time>2016-09-03T07:39:07Z</time>
      </trkpt>
      <trkpt lat="43.96965" lon="5.09082">
        <ele>257</ele>
        <time>2016-09-03T07:39:12Z</time>
      </trkpt>
      <trkpt lat="43.96968" lon="5.0908">
        <ele>258</ele>
        <time>2016-09-03T07:39:17Z</time>
      </trkpt>
      <trkpt lat="43.96972" lon="5.09076">
        <ele>259</ele>
        <time>2016-09-03T07:39:22Z</time>
      </trkpt>
      <trkpt lat="43.96973" lon="5.09072">
        <ele>260</ele>
        <time>2016-09-03T07:39:27Z</time>
      </trkpt>
      <trkpt lat="43.96978" lon="5.09069">
        <ele>261</ele>
        <time>2016-09-03T07:39:32Z</time>
      </trkpt>
      <trkpt lat="43.96981" lon="5.09074">
        <ele>260</ele>
        <time>2016-09-03T07:39:37Z</time>
      </trkpt>
      <trkpt lat="43.96985" lon="5.09073">
        <ele>261</ele>
        <time>2016-09-03T07:39:42Z</time>
      </trkpt>
      <trkpt lat="43.96994" lon="5.09077">
        <ele>261</ele>
        <time>2016-09-03T07:39:47Z</time>
      </trkpt>
      <trkpt lat="43.96999" lon="5.09089">
        <ele>261</ele>
        <time>2016-09-03T07:39:52Z</time>
      </trkpt>
      <trkpt lat="43.96997" lon="5.09101">
        <ele>260</ele>
        <time>2016-09-03T07:39:57Z</time>
      </trkpt>
      <trkpt lat="43.96998" lon="5.0911">
        <ele>260</ele>
        <time>2016-09-03T07:40:02Z</time>
      </trkpt>
      <trkpt lat="43.96994" lon="5.09115">
        <ele>260</ele>
        <time>2016-09-03T07:40:08Z</time>
      </trkpt>
      <trkpt lat="43.96992" lon="5.09119">
        <ele>260</ele>
        <time>2016-09-03T07:40:12Z</time>
      </trkpt>
      <trkpt lat="43.96994" lon="5.09129">
        <ele>260</ele>
        <time>2016-09-03T07:40:20Z</time>
      </trkpt>
      <trkpt lat="43.96996" lon="5.0914">
        <ele>261</ele>
        <time>2016-09-03T07:40:25Z</time>
      </trkpt>
      <trkpt lat="43.96996" lon="5.09145">
        <ele>261</ele>
        <time>2016-09-03T07:40:27Z</time>
      </trkpt>
      <trkpt lat="43.96998" lon="5.09154">
        <ele>261</ele>
        <time>2016-09-03T07:40:32Z</time>
      </trkpt>
      <trkpt lat="43.96995" lon="5.09163">
        <ele>261</ele>
        <time>2016-09-03T07:40:37Z</time>
      </trkpt>
      <trkpt lat="43.96996" lon="5.09172">
        <ele>262</ele>
        <time>2016-09-03T07:40:42Z</time>
      </trkpt>
      <trkpt lat="43.96995" lon="5.09182">
        <ele>262</ele>
        <time>2016-09-03T07:40:47Z</time>
      </trkpt>
      <trkpt lat="43.96994" lon="5.09191">
        <ele>262</ele>
        <time>2016-09-03T07:40:53Z</time>
      </trkpt>
      <trkpt lat="43.96992" lon="5.09198">
        <ele>262</ele>
        <time>2016-09-03T07:40:57Z</time>
      </trkpt>
      <trkpt lat="43.96989" lon="5.09206">
        <ele>263</ele>
        <time>2016-09-03T07:41:02Z</time>
      </trkpt>
      <trkpt lat="43.96989" lon="5.09213">
        <ele>263</ele>
        <time>2016-09-03T07:41:07Z</time>
      </trkpt>
      <trkpt lat="43.96986" lon="5.09225">
        <ele>264</ele>
        <time>2016-09-03T07:41:12Z</time>
      </trkpt>
      <trkpt lat="43.96985" lon="5.09244">
        <ele>266</ele>
        <time>2016-09-03T07:41:19Z</time>
      </trkpt>
      <trkpt lat="43.96984" lon="5.0925">
        <ele>267</ele>
        <time>2016-09-03T07:41:22Z</time>
      </trkpt>
      <trkpt lat="43.96984" lon="5.09267">
        <ele>269</ele>
        <time>2016-09-03T07:41:29Z</time>
      </trkpt>
      <trkpt lat="43.96983" lon="5.09276">
        <ele>271</ele>
        <time>2016-09-03T07:41:33Z</time>
      </trkpt>
      <trkpt lat="43.96978" lon="5.09287">
        <ele>272</ele>
        <time>2016-09-03T07:41:39Z</time>
      </trkpt>
      <trkpt lat="43.96982" lon="5.09293">
        <ele>273</ele>
        <time>2016-09-03T07:41:42Z</time>
      </trkpt>
      <trkpt lat="43.96981" lon="5.09305">
        <ele>274</ele>
        <time>2016-09-03T07:41:49Z</time>
      </trkpt>
      <trkpt lat="43.9698" lon="5.09311">
        <ele>275</ele>
        <time>2016-09-03T07:41:52Z</time>
      </trkpt>
      <trkpt lat="43.96984" lon="5.09316">
        <ele>276</ele>
        <time>2016-09-03T07:41:57Z</time>
      </trkpt>
      <trkpt lat="43.96987" lon="5.09316">
        <ele>276</ele>
        <time>2016-09-03T07:42:03Z</time>
      </trkpt>
      <trkpt lat="43.96987" lon="5.09317">
        <ele>276</ele>
        <time>2016-09-03T07:42:07Z</time>
      </trkpt>
      <trkpt lat="43.96989" lon="5.09319">
        <ele>277</ele>
        <time>2016-09-03T07:42:12Z</time>
      </trkpt>
      <trkpt lat="43.97002" lon="5.09322">
        <ele>279</ele>
        <time>2016-09-03T07:42:18Z</time>
      </trkpt>
      <trkpt lat="43.9701" lon="5.09326">
        <ele>280</ele>
        <time>2016-09-03T07:42:22Z</time>
      </trkpt>
      <trkpt lat="43.97013" lon="5.09324">
        <ele>280</ele>
        <time>2016-09-03T07:42:27Z</time>
      </trkpt>
      <trkpt lat="43.97012" lon="5.09324">
        <ele>280</ele>
        <time>2016-09-03T07:42:32Z</time>
      </trkpt>
      <trkpt lat="43.97012" lon="5.09324">
        <ele>280</ele>
        <time>2016-09-03T07:42:38Z</time>
      </trkpt>
      <trkpt lat="43.97012" lon="5.09324">
        <ele>280</ele>
        <time>2016-09-03T07:42:42Z</time>
      </trkpt>
      <trkpt lat="43.97012" lon="5.09324">
        <ele>280</ele>
        <time>2016-09-03T07:42:47Z</time>
      </trkpt>
      <trkpt lat="43.97012" lon="5.09324">
        <ele>280</ele>
        <time>2016-09-03T07:42:52Z</time>
      </trkpt>
      <trkpt lat="43.97012" lon="5.09324">
        <ele>280</ele>
        <time>2016-09-03T07:42:57Z</time>
      </trkpt>
      <trkpt lat="43.97012" lon="5.09324">
        <ele>280</ele>
        <time>2016-09-03T07:43:02Z</time>
      </trkpt>
      <trkpt lat="43.97013" lon="5.09324">
        <ele>280</ele>
        <time>2016-09-03T07:43:07Z</time>
      </trkpt>
      <trkpt lat="43.97012" lon="5.09324">
        <ele>280</ele>
        <time>2016-09-03T07:43:12Z</time>
      </trkpt>
      <trkpt lat="43.97012" lon="5.09324">
        <ele>280</ele>
        <time>2016-09-03T07:43:17Z</time>
      </trkpt>
      <trkpt lat="43.97012" lon="5.09324">
        <ele>280</ele>
        <time>2016-09-03T07:43:23Z</time>
      </trkpt>
      <trkpt lat="43.97012" lon="5.09324">
        <ele>280</ele>
        <time>2016-09-03T07:43:27Z</time>
      </trkpt>
      <trkpt lat="43.97012" lon="5.09324">
        <ele>280</ele>
        <time>2016-09-03T07:43:32Z</time>
      </trkpt>
      <trkpt lat="43.97012" lon="5.09324">
        <ele>280</ele>
        <time>2016-09-03T07:43:37Z</time>
      </trkpt>
      <trkpt lat="43.97012" lon="5.09324">
        <ele>280</ele>
        <time>2016-09-03T07:43:42Z</time>
      </trkpt>
      <trkpt lat="43.97012" lon="5.09324">
        <ele>280</ele>
        <time>2016-09-03T07:43:47Z</time>
      </trkpt>
      <trkpt lat="43.97012" lon="5.09324">
        <ele>280</ele>
        <time>2016-09-03T07:43:52Z</time>
      </trkpt>
      <trkpt lat="43.97012" lon="5.09324">
        <ele>280</ele>
        <time>2016-09-03T07:43:57Z</time>
      </trkpt>
      <trkpt lat="43.97012" lon="5.09324">
        <ele>280</ele>
        <time>2016-09-03T07:44:02Z</time>
      </trkpt>
      <trkpt lat="43.97012" lon="5.09324">
        <ele>280</ele>
        <time>2016-09-03T07:44:07Z</time>
      </trkpt>
      <trkpt lat="43.97013" lon="5.09323">
        <ele>280</ele>
        <time>2016-09-03T07:44:16Z</time>
      </trkpt>
      <trkpt lat="43.97013" lon="5.09323">
        <ele>280</ele>
        <time>2016-09-03T07:44:16Z</time>
      </trkpt>
      <trkpt lat="43.97013" lon="5.09323">
        <ele>280</ele>
        <time>2016-09-03T07:44:24Z</time>
      </trkpt>
      <trkpt lat="43.97013" lon="5.09323">
        <ele>280</ele>
        <time>2016-09-03T07:44:28Z</time>
      </trkpt>
      <trkpt lat="43.97013" lon="5.09323">
        <ele>280</ele>
        <time>2016-09-03T07:44:32Z</time>
      </trkpt>
      <trkpt lat="43.97013" lon="5.09323">
        <ele>280</ele>
        <time>2016-09-03T07:44:37Z</time>
      </trkpt>
      <trkpt lat="43.97013" lon="5.09323">
        <ele>280</ele>
        <time>2016-09-03T07:44:43Z</time>
      </trkpt>
      <trkpt lat="43.97013" lon="5.09323">
        <ele>280</ele>
        <time>2016-09-03T07:44:47Z</time>
      </trkpt>
      <trkpt lat="43.97013" lon="5.09323">
        <ele>280</ele>
        <time>2016-09-03T07:44:52Z</time>
      </trkpt>
      <trkpt lat="43.97013" lon="5.09323">
        <ele>280</ele>
        <time>2016-09-03T07:44:57Z</time>
      </trkpt>
      <trkpt lat="43.97013" lon="5.09323">
        <ele>280</ele>
        <time>2016-09-03T07:45:02Z</time>
      </trkpt>
      <trkpt lat="43.97013" lon="5.09323">
        <ele>280</ele>
        <time>2016-09-03T07:45:07Z</time>
      </trkpt>
      <trkpt lat="43.97013" lon="5.09323">
        <ele>280</ele>
        <time>2016-09-03T07:45:12Z</time>
      </trkpt>
      <trkpt lat="43.97013" lon="5.09323">
        <ele>280</ele>
        <time>2016-09-03T07:45:17Z</time>
      </trkpt>
      <trkpt lat="43.97013" lon="5.09323">
        <ele>280</ele>
        <time>2016-09-03T07:45:24Z</time>
      </trkpt>
      <trkpt lat="43.97013" lon="5.09323">
        <ele>280</ele>
        <time>2016-09-03T07:45:29Z</time>
      </trkpt>
      <trkpt lat="43.97012" lon="5.09323">
        <ele>280</ele>
        <time>2016-09-03T07:45:32Z</time>
      </trkpt>
      <trkpt lat="43.97009" lon="5.09322">
        <ele>279</ele>
        <time>2016-09-03T07:45:37Z</time>
      </trkpt>
      <trkpt lat="43.97009" lon="5.09324">
        <ele>279</ele>
        <time>2016-09-03T07:45:42Z</time>
      </trkpt>
      <trkpt lat="43.97009" lon="5.09324">
        <ele>279</ele>
        <time>2016-09-03T07:45:47Z</time>
      </trkpt>
      <trkpt lat="43.97009" lon="5.09324">
        <ele>279</ele>
        <time>2016-09-03T07:45:52Z</time>
      </trkpt>
      <trkpt lat="43.97009" lon="5.09324">
        <ele>279</ele>
        <time>2016-09-03T07:46:01Z</time>
      </trkpt>
      <trkpt lat="43.97009" lon="5.09324">
        <ele>279</ele>
        <time>2016-09-03T07:46:02Z</time>
      </trkpt>
      <trkpt lat="43.97009" lon="5.09324">
        <ele>279</ele>
        <time>2016-09-03T07:46:07Z</time>
      </trkpt>
      <trkpt lat="43.97016" lon="5.09328">
        <ele>280</ele>
        <time>2016-09-03T07:46:12Z</time>
      </trkpt>
      <trkpt lat="43.9703" lon="5.09338">
        <ele>282</ele>
        <time>2016-09-03T07:46:17Z</time>
      </trkpt>
      <trkpt lat="43.97044" lon="5.09348">
        <ele>282</ele>
        <time>2016-09-03T07:46:22Z</time>
      </trkpt>
      <trkpt lat="43.97058" lon="5.09358">
        <ele>281</ele>
        <time>2016-09-03T07:46:27Z</time>
      </trkpt>
      <trkpt lat="43.97072" lon="5.09368">
        <ele>280</ele>
        <time>2016-09-03T07:46:32Z</time>
      </trkpt>
      <trkpt lat="43.97087" lon="5.09377">
        <ele>278</ele>
        <time>2016-09-03T07:46:37Z</time>
      </trkpt>
      <trkpt lat="43.971" lon="5.09382">
        <ele>278</ele>
        <time>2016-09-03T07:46:42Z</time>
      </trkpt>
      <trkpt lat="43.97116" lon="5.09383">
        <ele>278</ele>
        <time>2016-09-03T07:46:47Z</time>
      </trkpt>
      <trkpt lat="43.97127" lon="5.09379">
        <ele>279</ele>
        <time>2016-09-03T07:46:52Z</time>
      </trkpt>
      <trkpt lat="43.97138" lon="5.09376">
        <ele>279</ele>
        <time>2016-09-03T07:46:57Z</time>
      </trkpt>
      <trkpt lat="43.9715" lon="5.09372">
        <ele>281</ele>
        <time>2016-09-03T07:47:02Z</time>
      </trkpt>
      <trkpt lat="43.97166" lon="5.09365">
        <ele>283</ele>
        <time>2016-09-03T07:47:09Z</time>
      </trkpt>
      <trkpt lat="43.97175" lon="5.09363">
        <ele>284</ele>
        <time>2016-09-03T07:47:12Z</time>
      </trkpt>
      <trkpt lat="43.97187" lon="5.09358">
        <ele>285</ele>
        <time>2016-09-03T07:47:17Z</time>
      </trkpt>
      <trkpt lat="43.97199" lon="5.09353">
        <ele>286</ele>
        <time>2016-09-03T07:47:22Z</time>
      </trkpt>
      <trkpt lat="43.97214" lon="5.09348">
        <ele>288</ele>
        <time>2016-09-03T07:47:29Z</time>
      </trkpt>
      <trkpt lat="43.9722" lon="5.09346">
        <ele>289</ele>
        <time>2016-09-03T07:47:32Z</time>
      </trkpt>
      <trkpt lat="43.97231" lon="5.09346">
        <ele>291</ele>
        <time>2016-09-03T07:47:37Z</time>
      </trkpt>
      <trkpt lat="43.97249" lon="5.09352">
        <ele>291</ele>
        <time>2016-09-03T07:47:45Z</time>
      </trkpt>
      <trkpt lat="43.97253" lon="5.09355">
        <ele>292</ele>
        <time>2016-09-03T07:47:48Z</time>
      </trkpt>
      <trkpt lat="43.97259" lon="5.09361">
        <ele>292</ele>
        <time>2016-09-03T07:47:52Z</time>
      </trkpt>
      <trkpt lat="43.97265" lon="5.09368">
        <ele>292</ele>
        <time>2016-09-03T07:47:57Z</time>
      </trkpt>
      <trkpt lat="43.97271" lon="5.09371">
        <ele>292</ele>
        <time>2016-09-03T07:48:02Z</time>
      </trkpt>
      <trkpt lat="43.97282" lon="5.09367">
        <ele>291</ele>
        <time>2016-09-03T07:48:07Z</time>
      </trkpt>
      <trkpt lat="43.97291" lon="5.09376">
        <ele>291</ele>
        <time>2016-09-03T07:48:12Z</time>
      </trkpt>
      <trkpt lat="43.973" lon="5.09388">
        <ele>290</ele>
        <time>2016-09-03T07:48:18Z</time>
      </trkpt>
      <trkpt lat="43.97309" lon="5.094">
        <ele>289</ele>
        <time>2016-09-03T07:48:22Z</time>
      </trkpt>
      <trkpt lat="43.97326" lon="5.09417">
        <ele>288</ele>
        <time>2016-09-03T07:48:27Z</time>
      </trkpt>
      <trkpt lat="43.97342" lon="5.09435">
        <ele>289</ele>
        <time>2016-09-03T07:48:34Z</time>
      </trkpt>
      <trkpt lat="43.97349" lon="5.09442">
        <ele>289</ele>
        <time>2016-09-03T07:48:37Z</time>
      </trkpt>
      <trkpt lat="43.97363" lon="5.09453">
        <ele>291</ele>
        <time>2016-09-03T07:48:42Z</time>
      </trkpt>
      <trkpt lat="43.9738" lon="5.09462">
        <ele>292</ele>
        <time>2016-09-03T07:48:48Z</time>
      </trkpt>
      <trkpt lat="43.97394" lon="5.0947">
        <ele>294</ele>
        <time>2016-09-03T07:48:53Z</time>
      </trkpt>
      <trkpt lat="43.97401" lon="5.09474">
        <ele>294</ele>
        <time>2016-09-03T07:48:57Z</time>
      </trkpt>
      <trkpt lat="43.97407" lon="5.09465">
        <ele>294</ele>
        <time>2016-09-03T07:49:02Z</time>
      </trkpt>
      <trkpt lat="43.97417" lon="5.09463">
        <ele>295</ele>
        <time>2016-09-03T07:49:07Z</time>
      </trkpt>
      <trkpt lat="43.9743" lon="5.09455">
        <ele>296</ele>
        <time>2016-09-03T07:49:14Z</time>
      </trkpt>
      <trkpt lat="43.97437" lon="5.09455">
        <ele>297</ele>
        <time>2016-09-03T07:49:18Z</time>
      </trkpt>
      <trkpt lat="43.97444" lon="5.09463">
        <ele>298</ele>
        <time>2016-09-03T07:49:22Z</time>
      </trkpt>
      <trkpt lat="43.97457" lon="5.09471">
        <ele>299</ele>
        <time>2016-09-03T07:49:27Z</time>
      </trkpt>
      <trkpt lat="43.97464" lon="5.09459">
        <ele>300</ele>
        <time>2016-09-03T07:49:31Z</time>
      </trkpt>
      <trkpt lat="43.97485" lon="5.09458">
        <ele>301</ele>
        <time>2016-09-03T07:49:40Z</time>
      </trkpt>
      <trkpt lat="43.97488" lon="5.09458">
        <ele>301</ele>
        <time>2016-09-03T07:49:41Z</time>
      </trkpt>
      <trkpt lat="43.97502" lon="5.09461">
        <ele>303</ele>
        <time>2016-09-03T07:49:46Z</time>
      </trkpt>
      <trkpt lat="43.97516" lon="5.09465">
        <ele>304</ele>
        <time>2016-09-03T07:49:51Z</time>
      </trkpt>
      <trkpt lat="43.9753" lon="5.09473">
        <ele>304</ele>
        <time>2016-09-03T07:49:56Z</time>
      </trkpt>
      <trkpt lat="43.97545" lon="5.09476">
        <ele>304</ele>
        <time>2016-09-03T07:50:01Z</time>
      </trkpt>
      <trkpt lat="43.97566" lon="5.09479">
        <ele>304</ele>
        <time>2016-09-03T07:50:08Z</time>
      </trkpt>
      <trkpt lat="43.97574" lon="5.09483">
        <ele>305</ele>
        <time>2016-09-03T07:50:11Z</time>
      </trkpt>
      <trkpt lat="43.97584" lon="5.0949">
        <ele>305</ele>
        <time>2016-09-03T07:50:16Z</time>
      </trkpt>
      <trkpt lat="43.97597" lon="5.09494">
        <ele>305</ele>
        <time>2016-09-03T07:50:21Z</time>
      </trkpt>
      <trkpt lat="43.97606" lon="5.09496">
        <ele>305</ele>
        <time>2016-09-03T07:50:26Z</time>
      </trkpt>
      <trkpt lat="43.97621" lon="5.09503">
        <ele>305</ele>
        <time>2016-09-03T07:50:32Z</time>
      </trkpt>
      <trkpt lat="43.97639" lon="5.09506">
        <ele>304</ele>
        <time>2016-09-03T07:50:38Z</time>
      </trkpt>
      <trkpt lat="43.97652" lon="5.09508">
        <ele>303</ele>
        <time>2016-09-03T07:50:41Z</time>
      </trkpt>
      <trkpt lat="43.97679" lon="5.09514">
        <ele>298</ele>
        <time>2016-09-03T07:50:50Z</time>
      </trkpt>
      <trkpt lat="43.97683" lon="5.09516">
        <ele>297</ele>
        <time>2016-09-03T07:50:52Z</time>
      </trkpt>
      <trkpt lat="43.97691" lon="5.09525">
        <ele>296</ele>
        <time>2016-09-03T07:50:56Z</time>
      </trkpt>
      <trkpt lat="43.97693" lon="5.09528">
        <ele>296</ele>
        <time>2016-09-03T07:51:01Z</time>
      </trkpt>
      <trkpt lat="43.97692" lon="5.09528">
        <ele>296</ele>
        <time>2016-09-03T07:51:06Z</time>
      </trkpt>
      <trkpt lat="43.97692" lon="5.09527">
        <ele>296</ele>
        <time>2016-09-03T07:51:11Z</time>
      </trkpt>
      <trkpt lat="43.97692" lon="5.09527">
        <ele>296</ele>
        <time>2016-09-03T07:51:16Z</time>
      </trkpt>
      <trkpt lat="43.97692" lon="5.09527">
        <ele>296</ele>
        <time>2016-09-03T07:51:21Z</time>
      </trkpt>
      <trkpt lat="43.97692" lon="5.09527">
        <ele>296</ele>
        <time>2016-09-03T07:51:26Z</time>
      </trkpt>
      <trkpt lat="43.97692" lon="5.09527">
        <ele>296</ele>
        <time>2016-09-03T07:51:31Z</time>
      </trkpt>
      <trkpt lat="43.97692" lon="5.09527">
        <ele>296</ele>
        <time>2016-09-03T07:51:36Z</time>
      </trkpt>
      <trkpt lat="43.97692" lon="5.09527">
        <ele>296</ele>
        <time>2016-09-03T07:51:41Z</time>
      </trkpt>
      <trkpt lat="43.97692" lon="5.09527">
        <ele>296</ele>
        <time>2016-09-03T07:51:46Z</time>
      </trkpt>
      <trkpt lat="43.97691" lon="5.09526">
        <ele>296</ele>
        <time>2016-09-03T07:51:51Z</time>
      </trkpt>
      <trkpt lat="43.97691" lon="5.09526">
        <ele>297</ele>
        <time>2016-09-03T07:51:56Z</time>
      </trkpt>
      <trkpt lat="43.97691" lon="5.09527">
        <ele>297</ele>
        <time>2016-09-03T07:52:01Z</time>
      </trkpt>
      <trkpt lat="43.9769" lon="5.09527">
        <ele>297</ele>
        <time>2016-09-03T07:52:06Z</time>
      </trkpt>
      <trkpt lat="43.9769" lon="5.09527">
        <ele>297</ele>
        <time>2016-09-03T07:52:11Z</time>
      </trkpt>
      <trkpt lat="43.9769" lon="5.09527">
        <ele>297</ele>
        <time>2016-09-03T07:52:16Z</time>
      </trkpt>
      <trkpt lat="43.9769" lon="5.09527">
        <ele>297</ele>
        <time>2016-09-03T07:52:21Z</time>
      </trkpt>
      <trkpt lat="43.9769" lon="5.09528">
        <ele>297</ele>
        <time>2016-09-03T07:52:26Z</time>
      </trkpt>
      <trkpt lat="43.9769" lon="5.09528">
        <ele>297</ele>
        <time>2016-09-03T07:52:31Z</time>
      </trkpt>
      <trkpt lat="43.9769" lon="5.09528">
        <ele>297</ele>
        <time>2016-09-03T07:52:36Z</time>
      </trkpt>
      <trkpt lat="43.9769" lon="5.09528">
        <ele>297</ele>
        <time>2016-09-03T07:52:41Z</time>
      </trkpt>
      <trkpt lat="43.9769" lon="5.09529">
        <ele>297</ele>
        <time>2016-09-03T07:52:46Z</time>
      </trkpt>
      <trkpt lat="43.9769" lon="5.09528">
        <ele>297</ele>
        <time>2016-09-03T07:52:51Z</time>
      </trkpt>
      <trkpt lat="43.97691" lon="5.09527">
        <ele>297</ele>
        <time>2016-09-03T07:52:56Z</time>
      </trkpt>
      <trkpt lat="43.97691" lon="5.09528">
        <ele>297</ele>
        <time>2016-09-03T07:53:01Z</time>
      </trkpt>
      <trkpt lat="43.9769" lon="5.09528">
        <ele>297</ele>
        <time>2016-09-03T07:53:06Z</time>
      </trkpt>
      <trkpt lat="43.97691" lon="5.09528">
        <ele>297</ele>
        <time>2016-09-03T07:53:11Z</time>
      </trkpt>
      <trkpt lat="43.97691" lon="5.09528">
        <ele>297</ele>
        <time>2016-09-03T07:53:16Z</time>
      </trkpt>
      <trkpt lat="43.97691" lon="5.09529">
        <ele>297</ele>
        <time>2016-09-03T07:53:21Z</time>
      </trkpt>
      <trkpt lat="43.97692" lon="5.09528">
        <ele>297</ele>
        <time>2016-09-03T07:53:26Z</time>
      </trkpt>
      <trkpt lat="43.97693" lon="5.0953">
        <ele>296</ele>
        <time>2016-09-03T07:53:31Z</time>
      </trkpt>
      <trkpt lat="43.97693" lon="5.0953">
        <ele>296</ele>
        <time>2016-09-03T07:53:36Z</time>
      </trkpt>
      <trkpt lat="43.97694" lon="5.09532">
        <ele>297</ele>
        <time>2016-09-03T07:53:41Z</time>
      </trkpt>
      <trkpt lat="43.97694" lon="5.09532">
        <ele>296</ele>
        <time>2016-09-03T07:53:46Z</time>
      </trkpt>
      <trkpt lat="43.97696" lon="5.09531">
        <ele>296</ele>
        <time>2016-09-03T07:53:51Z</time>
      </trkpt>
      <trkpt lat="43.97698" lon="5.09529">
        <ele>295</ele>
        <time>2016-09-03T07:53:56Z</time>
      </trkpt>
      <trkpt lat="43.97698" lon="5.09529">
        <ele>295</ele>
        <time>2016-09-03T07:54:01Z</time>
      </trkpt>
      <trkpt lat="43.97698" lon="5.0953">
        <ele>295</ele>
        <time>2016-09-03T07:54:06Z</time>
      </trkpt>
      <trkpt lat="43.97698" lon="5.0953">
        <ele>296</ele>
        <time>2016-09-03T07:54:11Z</time>
      </trkpt>
      <trkpt lat="43.97698" lon="5.0953">
        <ele>296</ele>
        <time>2016-09-03T07:54:16Z</time>
      </trkpt>
      <trkpt lat="43.97698" lon="5.0953">
        <ele>296</ele>
        <time>2016-09-03T07:54:21Z</time>
      </trkpt>
      <trkpt lat="43.97698" lon="5.0953">
        <ele>296</ele>
        <time>2016-09-03T07:54:26Z</time>
      </trkpt>
      <trkpt lat="43.97698" lon="5.0953">
        <ele>296</ele>
        <time>2016-09-03T07:54:31Z</time>
      </trkpt>
      <trkpt lat="43.97697" lon="5.09532">
        <ele>296</ele>
        <time>2016-09-03T07:54:36Z</time>
      </trkpt>
      <trkpt lat="43.977" lon="5.09532">
        <ele>295</ele>
        <time>2016-09-03T07:54:41Z</time>
      </trkpt>
      <trkpt lat="43.977" lon="5.09533">
        <ele>295</ele>
        <time>2016-09-03T07:54:46Z</time>
      </trkpt>
      <trkpt lat="43.97701" lon="5.09533">
        <ele>295</ele>
        <time>2016-09-03T07:54:51Z</time>
      </trkpt>
      <trkpt lat="43.97707" lon="5.09532">
        <ele>294</ele>
        <time>2016-09-03T07:54:56Z</time>
      </trkpt>
      <trkpt lat="43.97715" lon="5.09531">
        <ele>293</ele>
        <time>2016-09-03T07:55:01Z</time>
      </trkpt>
      <trkpt lat="43.97725" lon="5.09531">
        <ele>291</ele>
        <time>2016-09-03T07:55:06Z</time>
      </trkpt>
      <trkpt lat="43.97731" lon="5.09532">
        <ele>290</ele>
        <time>2016-09-03T07:55:11Z</time>
      </trkpt>
      <trkpt lat="43.97737" lon="5.09545">
        <ele>290</ele>
        <time>2016-09-03T07:55:16Z</time>
      </trkpt>
      <trkpt lat="43.97748" lon="5.09549">
        <ele>288</ele>
        <time>2016-09-03T07:55:21Z</time>
      </trkpt>
      <trkpt lat="43.97755" lon="5.09548">
        <ele>287</ele>
        <time>2016-09-03T07:55:26Z</time>
      </trkpt>
      <trkpt lat="43.97758" lon="5.09551">
        <ele>287</ele>
        <time>2016-09-03T07:55:31Z</time>
      </trkpt>
      <trkpt lat="43.9777" lon="5.09559">
        <ele>285</ele>
        <time>2016-09-03T07:55:36Z</time>
      </trkpt>
      <trkpt lat="43.97779" lon="5.09552">
        <ele>284</ele>
        <time>2016-09-03T07:55:41Z</time>
      </trkpt>
      <trkpt lat="43.9778" lon="5.09553">
        <ele>284</ele>
        <time>2016-09-03T07:55:46Z</time>
      </trkpt>
      <trkpt lat="43.97781" lon="5.09553">
        <ele>284</ele>
        <time>2016-09-03T07:55:51Z</time>
      </trkpt>
      <trkpt lat="43.97781" lon="5.09553">
        <ele>284</ele>
        <time>2016-09-03T07:55:56Z</time>
      </trkpt>
      <trkpt lat="43.97781" lon="5.09553">
        <ele>284</ele>
        <time>2016-09-03T07:56:01Z</time>
      </trkpt>
      <trkpt lat="43.9778" lon="5.09553">
        <ele>284</ele>
        <time>2016-09-03T07:56:06Z</time>
      </trkpt>
      <trkpt lat="43.9778" lon="5.09552">
        <ele>284</ele>
        <time>2016-09-03T07:56:11Z</time>
      </trkpt>
      <trkpt lat="43.9778" lon="5.09552">
        <ele>284</ele>
        <time>2016-09-03T07:56:16Z</time>
      </trkpt>
      <trkpt lat="43.97782" lon="5.09552">
        <ele>284</ele>
        <time>2016-09-03T07:56:21Z</time>
      </trkpt>
      <trkpt lat="43.97784" lon="5.09551">
        <ele>284</ele>
        <time>2016-09-03T07:56:26Z</time>
      </trkpt>
      <trkpt lat="43.97784" lon="5.09551">
        <ele>284</ele>
        <time>2016-09-03T07:56:31Z</time>
      </trkpt>
      <trkpt lat="43.97784" lon="5.09551">
        <ele>284</ele>
        <time>2016-09-03T07:56:36Z</time>
      </trkpt>
      <trkpt lat="43.97784" lon="5.09551">
        <ele>284</ele>
        <time>2016-09-03T07:56:41Z</time>
      </trkpt>
      <trkpt lat="43.97784" lon="5.09551">
        <ele>284</ele>
        <time>2016-09-03T07:56:46Z</time>
      </trkpt>
      <trkpt lat="43.97784" lon="5.09551">
        <ele>284</ele>
        <time>2016-09-03T07:56:51Z</time>
      </trkpt>
      <trkpt lat="43.97784" lon="5.09551">
        <ele>284</ele>
        <time>2016-09-03T07:56:57Z</time>
      </trkpt>
      <trkpt lat="43.97784" lon="5.09551">
        <ele>284</ele>
        <time>2016-09-03T07:57:01Z</time>
      </trkpt>
      <trkpt lat="43.97784" lon="5.09551">
        <ele>284</ele>
        <time>2016-09-03T07:57:06Z</time>
      </trkpt>
      <trkpt lat="43.97784" lon="5.09551">
        <ele>284</ele>
        <time>2016-09-03T07:57:14Z</time>
      </trkpt>
      <trkpt lat="43.97784" lon="5.09551">
        <ele>284</ele>
        <time>2016-09-03T07:57:16Z</time>
      </trkpt>
      <trkpt lat="43.97784" lon="5.09551">
        <ele>284</ele>
        <time>2016-09-03T07:57:20Z</time>
      </trkpt>
      <trkpt lat="43.97785" lon="5.09551">
        <ele>284</ele>
        <time>2016-09-03T07:57:25Z</time>
      </trkpt>
      <trkpt lat="43.97786" lon="5.09548">
        <ele>284</ele>
        <time>2016-09-03T07:57:30Z</time>
      </trkpt>
      <trkpt lat="43.97786" lon="5.09548">
        <ele>284</ele>
        <time>2016-09-03T07:57:35Z</time>
      </trkpt>
      <trkpt lat="43.97786" lon="5.09548">
        <ele>284</ele>
        <time>2016-09-03T07:57:40Z</time>
      </trkpt>
      <trkpt lat="43.97786" lon="5.09548">
        <ele>284</ele>
        <time>2016-09-03T07:57:45Z</time>
      </trkpt>
      <trkpt lat="43.97786" lon="5.09548">
        <ele>284</ele>
        <time>2016-09-03T07:57:50Z</time>
      </trkpt>
      <trkpt lat="43.97786" lon="5.09548">
        <ele>284</ele>
        <time>2016-09-03T07:57:56Z</time>
      </trkpt>
      <trkpt lat="43.97786" lon="5.09548">
        <ele>284</ele>
        <time>2016-09-03T07:58:00Z</time>
      </trkpt>
      <trkpt lat="43.97786" lon="5.09548">
        <ele>284</ele>
        <time>2016-09-03T07:58:05Z</time>
      </trkpt>
      <trkpt lat="43.97786" lon="5.09548">
        <ele>284</ele>
        <time>2016-09-03T07:58:10Z</time>
      </trkpt>
      <trkpt lat="43.97786" lon="5.09548">
        <ele>284</ele>
        <time>2016-09-03T07:58:15Z</time>
      </trkpt>
      <trkpt lat="43.97785" lon="5.09548">
        <ele>284</ele>
        <time>2016-09-03T07:58:20Z</time>
      </trkpt>
      <trkpt lat="43.97785" lon="5.09548">
        <ele>284</ele>
        <time>2016-09-03T07:58:26Z</time>
      </trkpt>
      <trkpt lat="43.97785" lon="5.09548">
        <ele>284</ele>
        <time>2016-09-03T07:58:34Z</time>
      </trkpt>
      <trkpt lat="43.97785" lon="5.09548">
        <ele>284</ele>
        <time>2016-09-03T07:58:35Z</time>
      </trkpt>
      <trkpt lat="43.97785" lon="5.09548">
        <ele>284</ele>
        <time>2016-09-03T07:58:40Z</time>
      </trkpt>
      <trkpt lat="43.97785" lon="5.09548">
        <ele>284</ele>
        <time>2016-09-03T07:58:45Z</time>
      </trkpt>
      <trkpt lat="43.97785" lon="5.09548">
        <ele>284</ele>
        <time>2016-09-03T07:58:51Z</time>
      </trkpt>
      <trkpt lat="43.97785" lon="5.09548">
        <ele>284</ele>
        <time>2016-09-03T07:58:56Z</time>
      </trkpt>
      <trkpt lat="43.97785" lon="5.09548">
        <ele>284</ele>
        <time>2016-09-03T07:59:00Z</time>
      </trkpt>
      <trkpt lat="43.97785" lon="5.09548">
        <ele>284</ele>
        <time>2016-09-03T07:59:07Z</time>
      </trkpt>
      <trkpt lat="43.97785" lon="5.09548">
        <ele>284</ele>
        <time>2016-09-03T07:59:10Z</time>
      </trkpt>
      <trkpt lat="43.97785" lon="5.09548">
        <ele>284</ele>
        <time>2016-09-03T07:59:15Z</time>
      </trkpt>
      <trkpt lat="43.97785" lon="5.09548">
        <ele>284</ele>
        <time>2016-09-03T07:59:20Z</time>
      </trkpt>
      <trkpt lat="43.97785" lon="5.09548">
        <ele>284</ele>
        <time>2016-09-03T07:59:25Z</time>
      </trkpt>
      <trkpt lat="43.97785" lon="5.09548">
        <ele>284</ele>
        <time>2016-09-03T07:59:31Z</time>
      </trkpt>
      <trkpt lat="43.97785" lon="5.09548">
        <ele>284</ele>
        <time>2016-09-03T07:59:35Z</time>
      </trkpt>
      <trkpt lat="43.97785" lon="5.09548">
        <ele>284</ele>
        <time>2016-09-03T07:59:40Z</time>
      </trkpt>
      <trkpt lat="43.97786" lon="5.09548">
        <ele>284</ele>
        <time>2016-09-03T07:59:48Z</time>
      </trkpt>
      <trkpt lat="43.97786" lon="5.09548">
        <ele>284</ele>
        <time>2016-09-03T07:59:52Z</time>
      </trkpt>
      <trkpt lat="43.97786" lon="5.09548">
        <ele>284</ele>
        <time>2016-09-03T07:59:55Z</time>
      </trkpt>
      <trkpt lat="43.97787" lon="5.09549">
        <ele>284</ele>
        <time>2016-09-03T08:00:00Z</time>
      </trkpt>
      <trkpt lat="43.97787" lon="5.09549">
        <ele>284</ele>
        <time>2016-09-03T08:00:05Z</time>
      </trkpt>
      <trkpt lat="43.97787" lon="5.09549">
        <ele>284</ele>
        <time>2016-09-03T08:00:10Z</time>
      </trkpt>
      <trkpt lat="43.97788" lon="5.09549">
        <ele>284</ele>
        <time>2016-09-03T08:00:15Z</time>
      </trkpt>
      <trkpt lat="43.97786" lon="5.09549">
        <ele>284</ele>
        <time>2016-09-03T08:00:20Z</time>
      </trkpt>
      <trkpt lat="43.97786" lon="5.09549">
        <ele>284</ele>
        <time>2016-09-03T08:00:25Z</time>
      </trkpt>
      <trkpt lat="43.97785" lon="5.09549">
        <ele>284</ele>
        <time>2016-09-03T08:00:31Z</time>
      </trkpt>
      <trkpt lat="43.97785" lon="5.09549">
        <ele>284</ele>
        <time>2016-09-03T08:00:35Z</time>
      </trkpt>
      <trkpt lat="43.97785" lon="5.09549">
        <ele>284</ele>
        <time>2016-09-03T08:00:40Z</time>
      </trkpt>
      <trkpt lat="43.97785" lon="5.09549">
        <ele>284</ele>
        <time>2016-09-03T08:00:45Z</time>
      </trkpt>
      <trkpt lat="43.97785" lon="5.09549">
        <ele>284</ele>
        <time>2016-09-03T08:00:50Z</time>
      </trkpt>
      <trkpt lat="43.97785" lon="5.09549">
        <ele>284</ele>
        <time>2016-09-03T08:00:55Z</time>
      </trkpt>
      <trkpt lat="43.97785" lon="5.09549">
        <ele>284</ele>
        <time>2016-09-03T08:01:00Z</time>
      </trkpt>
      <trkpt lat="43.97785" lon="5.09549">
        <ele>284</ele>
        <time>2016-09-03T08:01:05Z</time>
      </trkpt>
      <trkpt lat="43.97785" lon="5.09549">
        <ele>284</ele>
        <time>2016-09-03T08:01:10Z</time>
      </trkpt>
      <trkpt lat="43.97785" lon="5.09549">
        <ele>284</ele>
        <time>2016-09-03T08:01:15Z</time>
      </trkpt>
      <trkpt lat="43.97785" lon="5.09549">
        <ele>284</ele>
        <time>2016-09-03T08:01:20Z</time>
      </trkpt>
      <trkpt lat="43.97785" lon="5.09549">
        <ele>284</ele>
        <time>2016-09-03T08:01:25Z</time>
      </trkpt>
      <trkpt lat="43.97785" lon="5.09548">
        <ele>284</ele>
        <time>2016-09-03T08:01:30Z</time>
      </trkpt>
      <trkpt lat="43.97785" lon="5.09549">
        <ele>284</ele>
        <time>2016-09-03T08:01:35Z</time>
      </trkpt>
      <trkpt lat="43.97785" lon="5.09549">
        <ele>284</ele>
        <time>2016-09-03T08:01:40Z</time>
      </trkpt>
      <trkpt lat="43.97786" lon="5.09549">
        <ele>284</ele>
        <time>2016-09-03T08:01:45Z</time>
      </trkpt>
      <trkpt lat="43.97786" lon="5.09549">
        <ele>284</ele>
        <time>2016-09-03T08:01:50Z</time>
      </trkpt>
      <trkpt lat="43.97788" lon="5.09549">
        <ele>284</ele>
        <time>2016-09-03T08:01:55Z</time>
      </trkpt>
      <trkpt lat="43.97796" lon="5.09547">
        <ele>283</ele>
        <time>2016-09-03T08:02:00Z</time>
      </trkpt>
      <trkpt lat="43.97803" lon="5.09545">
        <ele>282</ele>
        <time>2016-09-03T08:02:09Z</time>
      </trkpt>
      <trkpt lat="43.97803" lon="5.09544">
        <ele>282</ele>
        <time>2016-09-03T08:02:10Z</time>
      </trkpt>
      <trkpt lat="43.97812" lon="5.09541">
        <ele>282</ele>
        <time>2016-09-03T08:02:15Z</time>
      </trkpt>
      <trkpt lat="43.97837" lon="5.09543">
        <ele>281</ele>
        <time>2016-09-03T08:02:24Z</time>
      </trkpt>
      <trkpt lat="43.9785" lon="5.09556">
        <ele>280</ele>
        <time>2016-09-03T08:02:28Z</time>
      </trkpt>
      <trkpt lat="43.97857" lon="5.09561">
        <ele>280</ele>
        <time>2016-09-03T08:02:30Z</time>
      </trkpt>
      <trkpt lat="43.97875" lon="5.09574">
        <ele>280</ele>
        <time>2016-09-03T08:02:35Z</time>
      </trkpt>
      <trkpt lat="43.97893" lon="5.09591">
        <ele>280</ele>
        <time>2016-09-03T08:02:40Z</time>
      </trkpt>
      <trkpt lat="43.97907" lon="5.09611">
        <ele>280</ele>
        <time>2016-09-03T08:02:45Z</time>
      </trkpt>
      <trkpt lat="43.97928" lon="5.09624">
        <ele>280</ele>
        <time>2016-09-03T08:02:50Z</time>
      </trkpt>
      <trkpt lat="43.97951" lon="5.09632">
        <ele>281</ele>
        <time>2016-09-03T08:02:55Z</time>
      </trkpt>
      <trkpt lat="43.97975" lon="5.09648">
        <ele>282</ele>
        <time>2016-09-03T08:03:00Z</time>
      </trkpt>
      <trkpt lat="43.97995" lon="5.09663">
        <ele>281</ele>
        <time>2016-09-03T08:03:05Z</time>
      </trkpt>
      <trkpt lat="43.98015" lon="5.09683">
        <ele>279</ele>
        <time>2016-09-03T08:03:10Z</time>
      </trkpt>
      <trkpt lat="43.98031" lon="5.09679">
        <ele>280</ele>
        <time>2016-09-03T08:03:15Z</time>
      </trkpt>
      <trkpt lat="43.98047" lon="5.09694">
        <ele>279</ele>
        <time>2016-09-03T08:03:21Z</time>
      </trkpt>
      <trkpt lat="43.98057" lon="5.09706">
        <ele>279</ele>
        <time>2016-09-03T08:03:25Z</time>
      </trkpt>
      <trkpt lat="43.98069" lon="5.097">
        <ele>280</ele>
        <time>2016-09-03T08:03:30Z</time>
      </trkpt>
      <trkpt lat="43.98081" lon="5.09707">
        <ele>280</ele>
        <time>2016-09-03T08:03:35Z</time>
      </trkpt>
      <trkpt lat="43.98104" lon="5.09705">
        <ele>278</ele>
        <time>2016-09-03T08:03:40Z</time>
      </trkpt>
      <trkpt lat="43.98119" lon="5.09711">
        <ele>275</ele>
        <time>2016-09-03T08:03:49Z</time>
      </trkpt>
      <trkpt lat="43.98121" lon="5.09711">
        <ele>275</ele>
        <time>2016-09-03T08:03:50Z</time>
      </trkpt>
      <trkpt lat="43.98136" lon="5.09719">
        <ele>271</ele>
        <time>2016-09-03T08:03:55Z</time>
      </trkpt>
      <trkpt lat="43.98148" lon="5.09727">
        <ele>268</ele>
        <time>2016-09-03T08:04:00Z</time>
      </trkpt>
      <trkpt lat="43.98165" lon="5.09709">
        <ele>264</ele>
        <time>2016-09-03T08:04:05Z</time>
      </trkpt>
      <trkpt lat="43.98181" lon="5.09703">
        <ele>259</ele>
        <time>2016-09-03T08:04:10Z</time>
      </trkpt>
      <trkpt lat="43.98191" lon="5.097">
        <ele>255</ele>
        <time>2016-09-03T08:04:15Z</time>
      </trkpt>
      <trkpt lat="43.98215" lon="5.09678">
        <ele>245</ele>
        <time>2016-09-03T08:04:20Z</time>
      </trkpt>
      <trkpt lat="43.98222" lon="5.09663">
        <ele>242</ele>
        <time>2016-09-03T08:04:25Z</time>
      </trkpt>
      <trkpt lat="43.98217" lon="5.09657">
        <ele>244</ele>
        <time>2016-09-03T08:04:30Z</time>
      </trkpt>
      <trkpt lat="43.9821" lon="5.09649">
        <ele>247</ele>
        <time>2016-09-03T08:04:35Z</time>
      </trkpt>
      <trkpt lat="43.9821" lon="5.09651">
        <ele>247</ele>
        <time>2016-09-03T08:04:40Z</time>
      </trkpt>
      <trkpt lat="43.9821" lon="5.09651">
        <ele>247</ele>
        <time>2016-09-03T08:04:45Z</time>
      </trkpt>
      <trkpt lat="43.9821" lon="5.09651">
        <ele>247</ele>
        <time>2016-09-03T08:04:54Z</time>
      </trkpt>
      <trkpt lat="43.9821" lon="5.09651">
        <ele>247</ele>
        <time>2016-09-03T08:04:55Z</time>
      </trkpt>
      <trkpt lat="43.9821" lon="5.09651">
        <ele>247</ele>
        <time>2016-09-03T08:05:00Z</time>
      </trkpt>
      <trkpt lat="43.9821" lon="5.09651">
        <ele>247</ele>
        <time>2016-09-03T08:05:05Z</time>
      </trkpt>
      <trkpt lat="43.98207" lon="5.09647">
        <ele>248</ele>
        <time>2016-09-03T08:05:10Z</time>
      </trkpt>
      <trkpt lat="43.982" lon="5.09637">
        <ele>252</ele>
        <time>2016-09-03T08:05:15Z</time>
      </trkpt>
      <trkpt lat="43.98193" lon="5.09613">
        <ele>256</ele>
        <time>2016-09-03T08:05:20Z</time>
      </trkpt>
      <trkpt lat="43.98196" lon="5.09582">
        <ele>256</ele>
        <time>2016-09-03T08:05:26Z</time>
      </trkpt>
      <trkpt lat="43.98198" lon="5.09565">
        <ele>256</ele>
        <time>2016-09-03T08:05:30Z</time>
      </trkpt>
      <trkpt lat="43.982" lon="5.09548">
        <ele>256</ele>
        <time>2016-09-03T08:05:35Z</time>
      </trkpt>
      <trkpt lat="43.982" lon="5.09532">
        <ele>258</ele>
        <time>2016-09-03T08:05:40Z</time>
      </trkpt>
      <trkpt lat="43.98197" lon="5.09514">
        <ele>260</ele>
        <time>2016-09-03T08:05:45Z</time>
      </trkpt>
      <trkpt lat="43.98194" lon="5.09495">
        <ele>262</ele>
        <time>2016-09-03T08:05:50Z</time>
      </trkpt>
      <trkpt lat="43.98193" lon="5.09481">
        <ele>262</ele>
        <time>2016-09-03T08:05:55Z</time>
      </trkpt>
      <trkpt lat="43.98198" lon="5.09466">
        <ele>260</ele>
        <time>2016-09-03T08:06:00Z</time>
      </trkpt>
      <trkpt lat="43.98215" lon="5.09455">
        <ele>254</ele>
        <time>2016-09-03T08:06:05Z</time>
      </trkpt>
      <trkpt lat="43.98224" lon="5.09441">
        <ele>250</ele>
        <time>2016-09-03T08:06:10Z</time>
      </trkpt>
      <trkpt lat="43.9822" lon="5.09426">
        <ele>251</ele>
        <time>2016-09-03T08:06:15Z</time>
      </trkpt>
      <trkpt lat="43.98212" lon="5.09413">
        <ele>254</ele>
        <time>2016-09-03T08:06:20Z</time>
      </trkpt>
      <trkpt lat="43.98203" lon="5.09406">
        <ele>258</ele>
        <time>2016-09-03T08:06:25Z</time>
      </trkpt>
      <trkpt lat="43.98196" lon="5.09396">
        <ele>260</ele>
        <time>2016-09-03T08:06:30Z</time>
      </trkpt>
      <trkpt lat="43.98192" lon="5.09382">
        <ele>261</ele>
        <time>2016-09-03T08:06:35Z</time>
      </trkpt>
      <trkpt lat="43.98189" lon="5.0937">
        <ele>262</ele>
        <time>2016-09-03T08:06:40Z</time>
      </trkpt>
      <trkpt lat="43.98187" lon="5.09358">
        <ele>261</ele>
        <time>2016-09-03T08:06:45Z</time>
      </trkpt>
      <trkpt lat="43.98183" lon="5.09347">
        <ele>261</ele>
        <time>2016-09-03T08:06:50Z</time>
      </trkpt>
      <trkpt lat="43.98184" lon="5.09335">
        <ele>260</ele>
        <time>2016-09-03T08:06:55Z</time>
      </trkpt>
      <trkpt lat="43.98185" lon="5.09323">
        <ele>258</ele>
        <time>2016-09-03T08:07:00Z</time>
      </trkpt>
      <trkpt lat="43.98184" lon="5.09311">
        <ele>256</ele>
        <time>2016-09-03T08:07:05Z</time>
      </trkpt>
      <trkpt lat="43.98186" lon="5.09304">
        <ele>255</ele>
        <time>2016-09-03T08:07:10Z</time>
      </trkpt>
      <trkpt lat="43.98192" lon="5.09297">
        <ele>255</ele>
        <time>2016-09-03T08:07:15Z</time>
      </trkpt>
      <trkpt lat="43.98201" lon="5.09285">
        <ele>253</ele>
        <time>2016-09-03T08:07:20Z</time>
      </trkpt>
      <trkpt lat="43.98222" lon="5.09262">
        <ele>247</ele>
        <time>2016-09-03T08:07:25Z</time>
      </trkpt>
      <trkpt lat="43.9824" lon="5.09246">
        <ele>244</ele>
        <time>2016-09-03T08:07:30Z</time>
      </trkpt>
      <trkpt lat="43.98247" lon="5.09236">
        <ele>241</ele>
        <time>2016-09-03T08:07:35Z</time>
      </trkpt>
      <trkpt lat="43.98255" lon="5.09235">
        <ele>241</ele>
        <time>2016-09-03T08:07:40Z</time>
      </trkpt>
      <trkpt lat="43.98263" lon="5.0923">
        <ele>240</ele>
        <time>2016-09-03T08:07:45Z</time>
      </trkpt>
      <trkpt lat="43.98278" lon="5.09214">
        <ele>234</ele>
        <time>2016-09-03T08:07:50Z</time>
      </trkpt>
      <trkpt lat="43.98296" lon="5.09196">
        <ele>228</ele>
        <time>2016-09-03T08:07:57Z</time>
      </trkpt>
      <trkpt lat="43.983" lon="5.09179">
        <ele>225</ele>
        <time>2016-09-03T08:08:03Z</time>
      </trkpt>
      <trkpt lat="43.98298" lon="5.0917">
        <ele>223</ele>
        <time>2016-09-03T08:08:05Z</time>
      </trkpt>
      <trkpt lat="43.98305" lon="5.09151">
        <ele>221</ele>
        <time>2016-09-03T08:08:10Z</time>
      </trkpt>
      <trkpt lat="43.9831" lon="5.09142">
        <ele>221</ele>
        <time>2016-09-03T08:08:17Z</time>
      </trkpt>
      <trkpt lat="43.98312" lon="5.09133">
        <ele>220</ele>
        <time>2016-09-03T08:08:23Z</time>
      </trkpt>
      <trkpt lat="43.98313" lon="5.09134">
        <ele>221</ele>
        <time>2016-09-03T08:08:25Z</time>
      </trkpt>
      <trkpt lat="43.98313" lon="5.09133">
        <ele>220</ele>
        <time>2016-09-03T08:08:30Z</time>
      </trkpt>
      <trkpt lat="43.98313" lon="5.09133">
        <ele>220</ele>
        <time>2016-09-03T08:08:35Z</time>
      </trkpt>
      <trkpt lat="43.98315" lon="5.09134">
        <ele>221</ele>
        <time>2016-09-03T08:08:40Z</time>
      </trkpt>
      <trkpt lat="43.98313" lon="5.09133">
        <ele>220</ele>
        <time>2016-09-03T08:08:45Z</time>
      </trkpt>
      <trkpt lat="43.98313" lon="5.09131">
        <ele>220</ele>
        <time>2016-09-03T08:08:50Z</time>
      </trkpt>
      <trkpt lat="43.98313" lon="5.0913">
        <ele>220</ele>
        <time>2016-09-03T08:08:55Z</time>
      </trkpt>
      <trkpt lat="43.98313" lon="5.0913">
        <ele>220</ele>
        <time>2016-09-03T08:09:00Z</time>
      </trkpt>
      <trkpt lat="43.98312" lon="5.09131">
        <ele>220</ele>
        <time>2016-09-03T08:09:05Z</time>
      </trkpt>
      <trkpt lat="43.98312" lon="5.09131">
        <ele>220</ele>
        <time>2016-09-03T08:09:10Z</time>
      </trkpt>
      <trkpt lat="43.98311" lon="5.0913">
        <ele>220</ele>
        <time>2016-09-03T08:09:15Z</time>
      </trkpt>
      <trkpt lat="43.98312" lon="5.09131">
        <ele>220</ele>
        <time>2016-09-03T08:09:20Z</time>
      </trkpt>
      <trkpt lat="43.98313" lon="5.09131">
        <ele>220</ele>
        <time>2016-09-03T08:09:25Z</time>
      </trkpt>
      <trkpt lat="43.98313" lon="5.09131">
        <ele>220</ele>
        <time>2016-09-03T08:09:30Z</time>
      </trkpt>
      <trkpt lat="43.98313" lon="5.09131">
        <ele>220</ele>
        <time>2016-09-03T08:09:35Z</time>
      </trkpt>
      <trkpt lat="43.98313" lon="5.09131">
        <ele>220</ele>
        <time>2016-09-03T08:09:40Z</time>
      </trkpt>
      <trkpt lat="43.98313" lon="5.09131">
        <ele>220</ele>
        <time>2016-09-03T08:09:45Z</time>
      </trkpt>
      <trkpt lat="43.98313" lon="5.09131">
        <ele>220</ele>
        <time>2016-09-03T08:09:50Z</time>
      </trkpt>
      <trkpt lat="43.98313" lon="5.09131">
        <ele>220</ele>
        <time>2016-09-03T08:09:55Z</time>
      </trkpt>
      <trkpt lat="43.98313" lon="5.09131">
        <ele>220</ele>
        <time>2016-09-03T08:10:00Z</time>
      </trkpt>
      <trkpt lat="43.98312" lon="5.09131">
        <ele>220</ele>
        <time>2016-09-03T08:10:05Z</time>
      </trkpt>
      <trkpt lat="43.98312" lon="5.09131">
        <ele>220</ele>
        <time>2016-09-03T08:10:10Z</time>
      </trkpt>
      <trkpt lat="43.98311" lon="5.09131">
        <ele>220</ele>
        <time>2016-09-03T08:10:15Z</time>
      </trkpt>
      <trkpt lat="43.98311" lon="5.0913">
        <ele>220</ele>
        <time>2016-09-03T08:10:20Z</time>
      </trkpt>
      <trkpt lat="43.98307" lon="5.09126">
        <ele>219</ele>
        <time>2016-09-03T08:10:25Z</time>
      </trkpt>
      <trkpt lat="43.98299" lon="5.09108">
        <ele>217</ele>
        <time>2016-09-03T08:10:30Z</time>
      </trkpt>
      <trkpt lat="43.98314" lon="5.09081">
        <ele>216</ele>
        <time>2016-09-03T08:10:35Z</time>
      </trkpt>
      <trkpt lat="43.98328" lon="5.09062">
        <ele>215</ele>
        <time>2016-09-03T08:10:40Z</time>
      </trkpt>
      <trkpt lat="43.98324" lon="5.09042">
        <ele>212</ele>
        <time>2016-09-03T08:10:45Z</time>
      </trkpt>
      <trkpt lat="43.98324" lon="5.09023">
        <ele>209</ele>
        <time>2016-09-03T08:10:50Z</time>
      </trkpt>
      <trkpt lat="43.98327" lon="5.09012">
        <ele>207</ele>
        <time>2016-09-03T08:10:55Z</time>
      </trkpt>
      <trkpt lat="43.98337" lon="5.09007">
        <ele>206</ele>
        <time>2016-09-03T08:11:00Z</time>
      </trkpt>
      <trkpt lat="43.98356" lon="5.08995">
        <ele>202</ele>
        <time>2016-09-03T08:11:07Z</time>
      </trkpt>
      <trkpt lat="43.98371" lon="5.08976">
        <ele>197</ele>
        <time>2016-09-03T08:11:13Z</time>
      </trkpt>
      <trkpt lat="43.98372" lon="5.08969">
        <ele>196</ele>
        <time>2016-09-03T08:11:15Z</time>
      </trkpt>
      <trkpt lat="43.984" lon="5.08921">
        <ele>191</ele>
        <time>2016-09-03T08:11:24Z</time>
      </trkpt>
      <trkpt lat="43.98401" lon="5.08919">
        <ele>191</ele>
        <time>2016-09-03T08:11:26Z</time>
      </trkpt>
      <trkpt lat="43.984" lon="5.08917">
        <ele>190</ele>
        <time>2016-09-03T08:11:30Z</time>
      </trkpt>
      <trkpt lat="43.98401" lon="5.08914">
        <ele>190</ele>
        <time>2016-09-03T08:11:35Z</time>
      </trkpt>
      <trkpt lat="43.98401" lon="5.08914">
        <ele>190</ele>
        <time>2016-09-03T08:11:40Z</time>
      </trkpt>
      <trkpt lat="43.98401" lon="5.08913">
        <ele>190</ele>
        <time>2016-09-03T08:11:45Z</time>
      </trkpt>
      <trkpt lat="43.98401" lon="5.08914">
        <ele>190</ele>
        <time>2016-09-03T08:11:54Z</time>
      </trkpt>
      <trkpt lat="43.98401" lon="5.08914">
        <ele>190</ele>
        <time>2016-09-03T08:11:55Z</time>
      </trkpt>
      <trkpt lat="43.98401" lon="5.08914">
        <ele>190</ele>
        <time>2016-09-03T08:12:00Z</time>
      </trkpt>
      <trkpt lat="43.984" lon="5.08913">
        <ele>190</ele>
        <time>2016-09-03T08:12:05Z</time>
      </trkpt>
      <trkpt lat="43.98401" lon="5.08913">
        <ele>190</ele>
        <time>2016-09-03T08:12:13Z</time>
      </trkpt>
      <trkpt lat="43.98401" lon="5.08913">
        <ele>190</ele>
        <time>2016-09-03T08:12:15Z</time>
      </trkpt>
      <trkpt lat="43.98401" lon="5.08913">
        <ele>190</ele>
        <time>2016-09-03T08:12:20Z</time>
      </trkpt>
      <trkpt lat="43.98401" lon="5.08913">
        <ele>190</ele>
        <time>2016-09-03T08:12:25Z</time>
      </trkpt>
      <trkpt lat="43.98402" lon="5.08914">
        <ele>190</ele>
        <time>2016-09-03T08:12:32Z</time>
      </trkpt>
      <trkpt lat="43.98402" lon="5.08914">
        <ele>190</ele>
        <time>2016-09-03T08:12:35Z</time>
      </trkpt>
      <trkpt lat="43.98402" lon="5.08914">
        <ele>190</ele>
        <time>2016-09-03T08:12:40Z</time>
      </trkpt>
      <trkpt lat="43.98403" lon="5.08914">
        <ele>190</ele>
        <time>2016-09-03T08:12:45Z</time>
      </trkpt>
      <trkpt lat="43.98403" lon="5.08915">
        <ele>190</ele>
        <time>2016-09-03T08:12:50Z</time>
      </trkpt>
      <trkpt lat="43.98405" lon="5.08914">
        <ele>190</ele>
        <time>2016-09-03T08:12:55Z</time>
      </trkpt>
      <trkpt lat="43.98407" lon="5.08913">
        <ele>190</ele>
        <time>2016-09-03T08:13:00Z</time>
      </trkpt>
      <trkpt lat="43.9841" lon="5.08917">
        <ele>190</ele>
        <time>2016-09-03T08:13:05Z</time>
      </trkpt>
      <trkpt lat="43.98433" lon="5.08913">
        <ele>187</ele>
        <time>2016-09-03T08:13:14Z</time>
      </trkpt>
      <trkpt lat="43.98435" lon="5.08914">
        <ele>187</ele>
        <time>2016-09-03T08:13:15Z</time>
      </trkpt>
      <trkpt lat="43.98452" lon="5.08896">
        <ele>183</ele>
        <time>2016-09-03T08:13:20Z</time>
      </trkpt>
      <trkpt lat="43.98471" lon="5.08864">
        <ele>178</ele>
        <time>2016-09-03T08:13:29Z</time>
      </trkpt>
      <trkpt lat="43.98473" lon="5.08862">
        <ele>178</ele>
        <time>2016-09-03T08:13:30Z</time>
      </trkpt>
      <trkpt lat="43.98487" lon="5.08863">
        <ele>176</ele>
        <time>2016-09-03T08:13:35Z</time>
      </trkpt>
      <trkpt lat="43.98495" lon="5.08853">
        <ele>176</ele>
        <time>2016-09-03T08:13:40Z</time>
      </trkpt>
      <trkpt lat="43.9851" lon="5.0882">
        <ele>175</ele>
        <time>2016-09-03T08:13:47Z</time>
      </trkpt>
      <trkpt lat="43.9852" lon="5.08819">
        <ele>174</ele>
        <time>2016-09-03T08:13:50Z</time>
      </trkpt>
      <trkpt lat="43.98533" lon="5.088">
        <ele>174</ele>
        <time>2016-09-03T08:13:55Z</time>
      </trkpt>
      <trkpt lat="43.98544" lon="5.08786">
        <ele>173</ele>
        <time>2016-09-03T08:14:00Z</time>
      </trkpt>
      <trkpt lat="43.98537" lon="5.08774">
        <ele>174</ele>
        <time>2016-09-03T08:14:05Z</time>
      </trkpt>
      <trkpt lat="43.98529" lon="5.08761">
        <ele>174</ele>
        <time>2016-09-03T08:14:13Z</time>
      </trkpt>
      <trkpt lat="43.98528" lon="5.08761">
        <ele>174</ele>
        <time>2016-09-03T08:14:15Z</time>
      </trkpt>
      <trkpt lat="43.98528" lon="5.08761">
        <ele>174</ele>
        <time>2016-09-03T08:14:20Z</time>
      </trkpt>
      <trkpt lat="43.98527" lon="5.08759">
        <ele>174</ele>
        <time>2016-09-03T08:14:26Z</time>
      </trkpt>
      <trkpt lat="43.98525" lon="5.08756">
        <ele>174</ele>
        <time>2016-09-03T08:14:30Z</time>
      </trkpt>
      <trkpt lat="43.98523" lon="5.08754">
        <ele>174</ele>
        <time>2016-09-03T08:14:35Z</time>
      </trkpt>
      <trkpt lat="43.98522" lon="5.08753">
        <ele>174</ele>
        <time>2016-09-03T08:14:40Z</time>
      </trkpt>
      <trkpt lat="43.98522" lon="5.08755">
        <ele>174</ele>
        <time>2016-09-03T08:14:45Z</time>
      </trkpt>
      <trkpt lat="43.98522" lon="5.08753">
        <ele>174</ele>
        <time>2016-09-03T08:14:50Z</time>
      </trkpt>
      <trkpt lat="43.98522" lon="5.08753">
        <ele>174</ele>
        <time>2016-09-03T08:14:55Z</time>
      </trkpt>
      <trkpt lat="43.98522" lon="5.08753">
        <ele>174</ele>
        <time>2016-09-03T08:15:00Z</time>
      </trkpt>
      <trkpt lat="43.98522" lon="5.08753">
        <ele>174</ele>
        <time>2016-09-03T08:15:05Z</time>
      </trkpt>
      <trkpt lat="43.98522" lon="5.08753">
        <ele>174</ele>
        <time>2016-09-03T08:15:10Z</time>
      </trkpt>
      <trkpt lat="43.98522" lon="5.08753">
        <ele>174</ele>
        <time>2016-09-03T08:15:15Z</time>
      </trkpt>
      <trkpt lat="43.98522" lon="5.08753">
        <ele>174</ele>
        <time>2016-09-03T08:15:20Z</time>
      </trkpt>
      <trkpt lat="43.98522" lon="5.08753">
        <ele>174</ele>
        <time>2016-09-03T08:15:25Z</time>
      </trkpt>
      <trkpt lat="43.98522" lon="5.08753">
        <ele>174</ele>
        <time>2016-09-03T08:15:30Z</time>
      </trkpt>
      <trkpt lat="43.98522" lon="5.08753">
        <ele>174</ele>
        <time>2016-09-03T08:15:35Z</time>
      </trkpt>
      <trkpt lat="43.98521" lon="5.08753">
        <ele>174</ele>
        <time>2016-09-03T08:15:40Z</time>
      </trkpt>
      <trkpt lat="43.98521" lon="5.08753">
        <ele>174</ele>
        <time>2016-09-03T08:15:45Z</time>
      </trkpt>
      <trkpt lat="43.98521" lon="5.08753">
        <ele>174</ele>
        <time>2016-09-03T08:15:50Z</time>
      </trkpt>
      <trkpt lat="43.98521" lon="5.08753">
        <ele>174</ele>
        <time>2016-09-03T08:15:55Z</time>
      </trkpt>
      <trkpt lat="43.98521" lon="5.08753">
        <ele>174</ele>
        <time>2016-09-03T08:16:00Z</time>
      </trkpt>
      <trkpt lat="43.9852" lon="5.08752">
        <ele>174</ele>
        <time>2016-09-03T08:16:05Z</time>
      </trkpt>
      <trkpt lat="43.9852" lon="5.08752">
        <ele>174</ele>
        <time>2016-09-03T08:16:10Z</time>
      </trkpt>
      <trkpt lat="43.98519" lon="5.08749">
        <ele>174</ele>
        <time>2016-09-03T08:16:15Z</time>
      </trkpt>
      <trkpt lat="43.98515" lon="5.08744">
        <ele>174</ele>
        <time>2016-09-03T08:16:20Z</time>
      </trkpt>
      <trkpt lat="43.98508" lon="5.08736">
        <ele>174</ele>
        <time>2016-09-03T08:16:25Z</time>
      </trkpt>
      <trkpt lat="43.98498" lon="5.08725">
        <ele>174</ele>
        <time>2016-09-03T08:16:30Z</time>
      </trkpt>
      <trkpt lat="43.9849" lon="5.08712">
        <ele>174</ele>
        <time>2016-09-03T08:16:35Z</time>
      </trkpt>
      <trkpt lat="43.98486" lon="5.08706">
        <ele>174</ele>
        <time>2016-09-03T08:16:40Z</time>
      </trkpt>
      <trkpt lat="43.98482" lon="5.08699">
        <ele>174</ele>
        <time>2016-09-03T08:16:45Z</time>
      </trkpt>
      <trkpt lat="43.98481" lon="5.08697">
        <ele>174</ele>
        <time>2016-09-03T08:16:50Z</time>
      </trkpt>
      <trkpt lat="43.98474" lon="5.08681">
        <ele>175</ele>
        <time>2016-09-03T08:16:55Z</time>
      </trkpt>
      <trkpt lat="43.98459" lon="5.08664">
        <ele>175</ele>
        <time>2016-09-03T08:17:00Z</time>
      </trkpt>
      <trkpt lat="43.98447" lon="5.08653">
        <ele>175</ele>
        <time>2016-09-03T08:17:05Z</time>
      </trkpt>
      <trkpt lat="43.98437" lon="5.08646">
        <ele>175</ele>
        <time>2016-09-03T08:17:10Z</time>
      </trkpt>
      <trkpt lat="43.98428" lon="5.08641">
        <ele>176</ele>
        <time>2016-09-03T08:17:15Z</time>
      </trkpt>
      <trkpt lat="43.9842" lon="5.08637">
        <ele>176</ele>
        <time>2016-09-03T08:17:20Z</time>
      </trkpt>
      <trkpt lat="43.98412" lon="5.0863">
        <ele>176</ele>
        <time>2016-09-03T08:17:25Z</time>
      </trkpt>
      <trkpt lat="43.98399" lon="5.08619">
        <ele>175</ele>
        <time>2016-09-03T08:17:30Z</time>
      </trkpt>
      <trkpt lat="43.98387" lon="5.08604">
        <ele>175</ele>
        <time>2016-09-03T08:17:35Z</time>
      </trkpt>
      <trkpt lat="43.98376" lon="5.08591">
        <ele>175</ele>
        <time>2016-09-03T08:17:40Z</time>
      </trkpt>
      <trkpt lat="43.98364" lon="5.08581">
        <ele>175</ele>
        <time>2016-09-03T08:17:45Z</time>
      </trkpt>
      <trkpt lat="43.98352" lon="5.08571">
        <ele>174</ele>
        <time>2016-09-03T08:17:50Z</time>
      </trkpt>
      <trkpt lat="43.98342" lon="5.08558">
        <ele>173</ele>
        <time>2016-09-03T08:17:55Z</time>
      </trkpt>
      <trkpt lat="43.98331" lon="5.08536">
        <ele>172</ele>
        <time>2016-09-03T08:18:00Z</time>
      </trkpt>
      <trkpt lat="43.98314" lon="5.0852">
        <ele>169</ele>
        <time>2016-09-03T08:18:05Z</time>
      </trkpt>
      <trkpt lat="43.98294" lon="5.08507">
        <ele>165</ele>
        <time>2016-09-03T08:18:10Z</time>
      </trkpt>
      <trkpt lat="43.98274" lon="5.08489">
        <ele>163</ele>
        <time>2016-09-03T08:18:15Z</time>
      </trkpt>
      <trkpt lat="43.98254" lon="5.08469">
        <ele>164</ele>
        <time>2016-09-03T08:18:20Z</time>
      </trkpt>
      <trkpt lat="43.98242" lon="5.08454">
        <ele>164</ele>
        <time>2016-09-03T08:18:25Z</time>
      </trkpt>
      <trkpt lat="43.98228" lon="5.08431">
        <ele>164</ele>
        <time>2016-09-03T08:18:31Z</time>
      </trkpt>
      <trkpt lat="43.9822" lon="5.08415">
        <ele>163</ele>
        <time>2016-09-03T08:18:35Z</time>
      </trkpt>
      <trkpt lat="43.98211" lon="5.08393">
        <ele>162</ele>
        <time>2016-09-03T08:18:41Z</time>
      </trkpt>
      <trkpt lat="43.98206" lon="5.08376">
        <ele>162</ele>
        <time>2016-09-03T08:18:45Z</time>
      </trkpt>
      <trkpt lat="43.98197" lon="5.08358">
        <ele>161</ele>
        <time>2016-09-03T08:18:50Z</time>
      </trkpt>
      <trkpt lat="43.98187" lon="5.08325">
        <ele>160</ele>
        <time>2016-09-03T08:18:59Z</time>
      </trkpt>
      <trkpt lat="43.98185" lon="5.08319">
        <ele>160</ele>
        <time>2016-09-03T08:19:00Z</time>
      </trkpt>
      <trkpt lat="43.98171" lon="5.08293">
        <ele>160</ele>
        <time>2016-09-03T08:19:06Z</time>
      </trkpt>
      <trkpt lat="43.98165" lon="5.08286">
        <ele>160</ele>
        <time>2016-09-03T08:19:10Z</time>
      </trkpt>
      <trkpt lat="43.98161" lon="5.08289">
        <ele>161</ele>
        <time>2016-09-03T08:19:15Z</time>
      </trkpt>
      <trkpt lat="43.98163" lon="5.08293">
        <ele>160</ele>
        <time>2016-09-03T08:19:20Z</time>
      </trkpt>
      <trkpt lat="43.9817" lon="5.08305">
        <ele>160</ele>
        <time>2016-09-03T08:19:25Z</time>
      </trkpt>
      <trkpt lat="43.98178" lon="5.08323">
        <ele>160</ele>
        <time>2016-09-03T08:19:30Z</time>
      </trkpt>
      <trkpt lat="43.98185" lon="5.08342">
        <ele>161</ele>
        <time>2016-09-03T08:19:35Z</time>
      </trkpt>
      <trkpt lat="43.98191" lon="5.08365">
        <ele>161</ele>
        <time>2016-09-03T08:19:40Z</time>
      </trkpt>
      <trkpt lat="43.98199" lon="5.08386">
        <ele>162</ele>
        <time>2016-09-03T08:19:45Z</time>
      </trkpt>
      <trkpt lat="43.98211" lon="5.08407">
        <ele>163</ele>
        <time>2016-09-03T08:19:50Z</time>
      </trkpt>
      <trkpt lat="43.9822" lon="5.08429">
        <ele>163</ele>
        <time>2016-09-03T08:19:55Z</time>
      </trkpt>
      <trkpt lat="43.98233" lon="5.0845">
        <ele>164</ele>
        <time>2016-09-03T08:20:00Z</time>
      </trkpt>
      <trkpt lat="43.98246" lon="5.08467">
        <ele>164</ele>
        <time>2016-09-03T08:20:05Z</time>
      </trkpt>
      <trkpt lat="43.9826" lon="5.08481">
        <ele>163</ele>
        <time>2016-09-03T08:20:10Z</time>
      </trkpt>
      <trkpt lat="43.98271" lon="5.08495">
        <ele>164</ele>
        <time>2016-09-03T08:20:15Z</time>
      </trkpt>
      <trkpt lat="43.9829" lon="5.08512">
        <ele>166</ele>
        <time>2016-09-03T08:20:22Z</time>
      </trkpt>
      <trkpt lat="43.98303" lon="5.08518">
        <ele>167</ele>
        <time>2016-09-03T08:20:26Z</time>
      </trkpt>
      <trkpt lat="43.98315" lon="5.08526">
        <ele>169</ele>
        <time>2016-09-03T08:20:30Z</time>
      </trkpt>
      <trkpt lat="43.98328" lon="5.08537">
        <ele>171</ele>
        <time>2016-09-03T08:20:35Z</time>
      </trkpt>
      <trkpt lat="43.98338" lon="5.08554">
        <ele>173</ele>
        <time>2016-09-03T08:20:40Z</time>
      </trkpt>
      <trkpt lat="43.98349" lon="5.08568">
        <ele>174</ele>
        <time>2016-09-03T08:20:45Z</time>
      </trkpt>
      <trkpt lat="43.98361" lon="5.08582">
        <ele>174</ele>
        <time>2016-09-03T08:20:50Z</time>
      </trkpt>
      <trkpt lat="43.98368" lon="5.08592">
        <ele>175</ele>
        <time>2016-09-03T08:20:55Z</time>
      </trkpt>
      <trkpt lat="43.98361" lon="5.08605">
        <ele>175</ele>
        <time>2016-09-03T08:21:00Z</time>
      </trkpt>
      <trkpt lat="43.98356" lon="5.08623">
        <ele>174</ele>
        <time>2016-09-03T08:21:05Z</time>
      </trkpt>
      <trkpt lat="43.98348" lon="5.0864">
        <ele>174</ele>
        <time>2016-09-03T08:21:10Z</time>
      </trkpt>
      <trkpt lat="43.98337" lon="5.08651">
        <ele>173</ele>
        <time>2016-09-03T08:21:15Z</time>
      </trkpt>
      <trkpt lat="43.98332" lon="5.08667">
        <ele>173</ele>
        <time>2016-09-03T08:21:20Z</time>
      </trkpt>
      <trkpt lat="43.98334" lon="5.08684">
        <ele>174</ele>
        <time>2016-09-03T08:21:25Z</time>
      </trkpt>
      <trkpt lat="43.98332" lon="5.08699">
        <ele>175</ele>
        <time>2016-09-03T08:21:30Z</time>
      </trkpt>
      <trkpt lat="43.9833" lon="5.0871">
        <ele>175</ele>
        <time>2016-09-03T08:21:35Z</time>
      </trkpt>
      <trkpt lat="43.9833" lon="5.08717">
        <ele>176</ele>
        <time>2016-09-03T08:21:40Z</time>
      </trkpt>
      <trkpt lat="43.98332" lon="5.08726">
        <ele>176</ele>
        <time>2016-09-03T08:21:45Z</time>
      </trkpt>
      <trkpt lat="43.98331" lon="5.0873">
        <ele>177</ele>
        <time>2016-09-03T08:21:50Z</time>
      </trkpt>
      <trkpt lat="43.98329" lon="5.08734">
        <ele>177</ele>
        <time>2016-09-03T08:21:55Z</time>
      </trkpt>
      <trkpt lat="43.98321" lon="5.08742">
        <ele>177</ele>
        <time>2016-09-03T08:22:00Z</time>
      </trkpt>
      <trkpt lat="43.98316" lon="5.0875">
        <ele>178</ele>
        <time>2016-09-03T08:22:05Z</time>
      </trkpt>
      <trkpt lat="43.9831" lon="5.08755">
        <ele>178</ele>
        <time>2016-09-03T08:22:10Z</time>
      </trkpt>
      <trkpt lat="43.98305" lon="5.08763">
        <ele>179</ele>
        <time>2016-09-03T08:22:14Z</time>
      </trkpt>
      <trkpt lat="43.98302" lon="5.08777">
        <ele>180</ele>
        <time>2016-09-03T08:22:20Z</time>
      </trkpt>
      <trkpt lat="43.98295" lon="5.08785">
        <ele>180</ele>
        <time>2016-09-03T08:22:25Z</time>
      </trkpt>
      <trkpt lat="43.98287" lon="5.0879">
        <ele>180</ele>
        <time>2016-09-03T08:22:30Z</time>
      </trkpt>
      <trkpt lat="43.98275" lon="5.08795">
        <ele>180</ele>
        <time>2016-09-03T08:22:35Z</time>
      </trkpt>
      <trkpt lat="43.98265" lon="5.08799">
        <ele>180</ele>
        <time>2016-09-03T08:22:40Z</time>
      </trkpt>
      <trkpt lat="43.98253" lon="5.0881">
        <ele>181</ele>
        <time>2016-09-03T08:22:45Z</time>
      </trkpt>
      <trkpt lat="43.98242" lon="5.08826">
        <ele>183</ele>
        <time>2016-09-03T08:22:50Z</time>
      </trkpt>
      <trkpt lat="43.98231" lon="5.08837">
        <ele>183</ele>
        <time>2016-09-03T08:22:55Z</time>
      </trkpt>
      <trkpt lat="43.98227" lon="5.08854">
        <ele>185</ele>
        <time>2016-09-03T08:23:00Z</time>
      </trkpt>
      <trkpt lat="43.98228" lon="5.08865">
        <ele>186</ele>
        <time>2016-09-03T08:23:05Z</time>
      </trkpt>
      <trkpt lat="43.98224" lon="5.08876">
        <ele>187</ele>
        <time>2016-09-03T08:23:10Z</time>
      </trkpt>
      <trkpt lat="43.98215" lon="5.08882">
        <ele>187</ele>
        <time>2016-09-03T08:23:15Z</time>
      </trkpt>
      <trkpt lat="43.98205" lon="5.08887">
        <ele>188</ele>
        <time>2016-09-03T08:23:20Z</time>
      </trkpt>
      <trkpt lat="43.98191" lon="5.08889">
        <ele>189</ele>
        <time>2016-09-03T08:23:28Z</time>
      </trkpt>
      <trkpt lat="43.98188" lon="5.08891">
        <ele>190</ele>
        <time>2016-09-03T08:23:30Z</time>
      </trkpt>
      <trkpt lat="43.98177" lon="5.08892">
        <ele>191</ele>
        <time>2016-09-03T08:23:35Z</time>
      </trkpt>
      <trkpt lat="43.98168" lon="5.08898">
        <ele>194</ele>
        <time>2016-09-03T08:23:40Z</time>
      </trkpt>
      <trkpt lat="43.98159" lon="5.08904">
        <ele>196</ele>
        <time>2016-09-03T08:23:45Z</time>
      </trkpt>
      <trkpt lat="43.98152" lon="5.08916">
        <ele>199</ele>
        <time>2016-09-03T08:23:50Z</time>
      </trkpt>
      <trkpt lat="43.98147" lon="5.08929">
        <ele>201</ele>
        <time>2016-09-03T08:23:55Z</time>
      </trkpt>
      <trkpt lat="43.9814" lon="5.08943">
        <ele>203</ele>
        <time>2016-09-03T08:24:00Z</time>
      </trkpt>
      <trkpt lat="43.98136" lon="5.0895">
        <ele>204</ele>
        <time>2016-09-03T08:24:04Z</time>
      </trkpt>
      <trkpt lat="43.98132" lon="5.08963">
        <ele>204</ele>
        <time>2016-09-03T08:24:10Z</time>
      </trkpt>
      <trkpt lat="43.98129" lon="5.08975">
        <ele>205</ele>
        <time>2016-09-03T08:24:15Z</time>
      </trkpt>
      <trkpt lat="43.98126" lon="5.08985">
        <ele>205</ele>
        <time>2016-09-03T08:24:20Z</time>
      </trkpt>
      <trkpt lat="43.98116" lon="5.09">
        <ele>208</ele>
        <time>2016-09-03T08:24:27Z</time>
      </trkpt>
      <trkpt lat="43.98114" lon="5.09005">
        <ele>209</ele>
        <time>2016-09-03T08:24:30Z</time>
      </trkpt>
      <trkpt lat="43.98107" lon="5.09001">
        <ele>211</ele>
        <time>2016-09-03T08:24:39Z</time>
      </trkpt>
      <trkpt lat="43.98107" lon="5.09">
        <ele>211</ele>
        <time>2016-09-03T08:24:40Z</time>
      </trkpt>
      <trkpt lat="43.9811" lon="5.08992">
        <ele>210</ele>
        <time>2016-09-03T08:24:45Z</time>
      </trkpt>
      <trkpt lat="43.98113" lon="5.08979">
        <ele>209</ele>
        <time>2016-09-03T08:24:50Z</time>
      </trkpt>
      <trkpt lat="43.98116" lon="5.08959">
        <ele>209</ele>
        <time>2016-09-03T08:24:56Z</time>
      </trkpt>
      <trkpt lat="43.98125" lon="5.08939">
        <ele>207</ele>
        <time>2016-09-03T08:25:00Z</time>
      </trkpt>
      <trkpt lat="43.98138" lon="5.08892">
        <ele>201</ele>
        <time>2016-09-03T08:25:06Z</time>
      </trkpt>
      <trkpt lat="43.98149" lon="5.08861">
        <ele>195</ele>
        <time>2016-09-03T08:25:10Z</time>
      </trkpt>
      <trkpt lat="43.98147" lon="5.08828">
        <ele>192</ele>
        <time>2016-09-03T08:25:16Z</time>
      </trkpt>
      <trkpt lat="43.9814" lon="5.08819">
        <ele>192</ele>
        <time>2016-09-03T08:25:20Z</time>
      </trkpt>
      <trkpt lat="43.9813" lon="5.08816">
        <ele>194</ele>
        <time>2016-09-03T08:25:25Z</time>
      </trkpt>
      <trkpt lat="43.9812" lon="5.0881">
        <ele>194</ele>
        <time>2016-09-03T08:25:30Z</time>
      </trkpt>
      <trkpt lat="43.98109" lon="5.088">
        <ele>195</ele>
        <time>2016-09-03T08:25:35Z</time>
      </trkpt>
      <trkpt lat="43.98098" lon="5.08791">
        <ele>195</ele>
        <time>2016-09-03T08:25:40Z</time>
      </trkpt>
      <trkpt lat="43.98093" lon="5.08786">
        <ele>196</ele>
        <time>2016-09-03T08:25:45Z</time>
      </trkpt>
      <trkpt lat="43.98083" lon="5.08778">
        <ele>196</ele>
        <time>2016-09-03T08:25:50Z</time>
      </trkpt>
      <trkpt lat="43.98073" lon="5.08769">
        <ele>196</ele>
        <time>2016-09-03T08:25:55Z</time>
      </trkpt>
      <trkpt lat="43.98063" lon="5.08759">
        <ele>195</ele>
        <time>2016-09-03T08:26:00Z</time>
      </trkpt>
      <trkpt lat="43.98054" lon="5.08752">
        <ele>194</ele>
        <time>2016-09-03T08:26:05Z</time>
      </trkpt>
      <trkpt lat="43.98045" lon="5.08748">
        <ele>193</ele>
        <time>2016-09-03T08:26:10Z</time>
      </trkpt>
      <trkpt lat="43.98034" lon="5.0875">
        <ele>193</ele>
        <time>2016-09-03T08:26:15Z</time>
      </trkpt>
      <trkpt lat="43.98024" lon="5.08752">
        <ele>193</ele>
        <time>2016-09-03T08:26:20Z</time>
      </trkpt>
      <trkpt lat="43.98018" lon="5.08758">
        <ele>194</ele>
        <time>2016-09-03T08:26:25Z</time>
      </trkpt>
      <trkpt lat="43.98013" lon="5.08767">
        <ele>196</ele>
        <time>2016-09-03T08:26:30Z</time>
      </trkpt>
      <trkpt lat="43.98005" lon="5.08769">
        <ele>196</ele>
        <time>2016-09-03T08:26:35Z</time>
      </trkpt>
      <trkpt lat="43.97991" lon="5.08769">
        <ele>196</ele>
        <time>2016-09-03T08:26:40Z</time>
      </trkpt>
      <trkpt lat="43.9798" lon="5.08779">
        <ele>198</ele>
        <time>2016-09-03T08:26:45Z</time>
      </trkpt>
      <trkpt lat="43.97968" lon="5.08784">
        <ele>199</ele>
        <time>2016-09-03T08:26:50Z</time>
      </trkpt>
      <trkpt lat="43.97955" lon="5.0879">
        <ele>201</ele>
        <time>2016-09-03T08:26:55Z</time>
      </trkpt>
      <trkpt lat="43.97947" lon="5.08792">
        <ele>203</ele>
        <time>2016-09-03T08:27:00Z</time>
      </trkpt>
      <trkpt lat="43.97939" lon="5.08788">
        <ele>203</ele>
        <time>2016-09-03T08:27:05Z</time>
      </trkpt>
      <trkpt lat="43.97935" lon="5.08769">
        <ele>200</ele>
        <time>2016-09-03T08:27:10Z</time>
      </trkpt>
      <trkpt lat="43.97928" lon="5.08752">
        <ele>199</ele>
        <time>2016-09-03T08:27:15Z</time>
      </trkpt>
      <trkpt lat="43.97916" lon="5.08742">
        <ele>199</ele>
        <time>2016-09-03T08:27:20Z</time>
      </trkpt>
      <trkpt lat="43.97907" lon="5.08733">
        <ele>199</ele>
        <time>2016-09-03T08:27:25Z</time>
      </trkpt>
      <trkpt lat="43.97896" lon="5.08732">
        <ele>200</ele>
        <time>2016-09-03T08:27:30Z</time>
      </trkpt>
      <trkpt lat="43.97874" lon="5.08713">
        <ele>200</ele>
        <time>2016-09-03T08:27:39Z</time>
      </trkpt>
      <trkpt lat="43.97873" lon="5.08709">
        <ele>200</ele>
        <time>2016-09-03T08:27:40Z</time>
      </trkpt>
      <trkpt lat="43.97859" lon="5.08704">
        <ele>201</ele>
        <time>2016-09-03T08:27:47Z</time>
      </trkpt>
      <trkpt lat="43.97855" lon="5.08708">
        <ele>202</ele>
        <time>2016-09-03T08:27:50Z</time>
      </trkpt>
      <trkpt lat="43.97849" lon="5.08717">
        <ele>204</ele>
        <time>2016-09-03T08:27:55Z</time>
      </trkpt>
      <trkpt lat="43.97844" lon="5.08725">
        <ele>207</ele>
        <time>2016-09-03T08:28:00Z</time>
      </trkpt>
      <trkpt lat="43.97829" lon="5.08741">
        <ele>212</ele>
        <time>2016-09-03T08:28:09Z</time>
      </trkpt>
      <trkpt lat="43.97826" lon="5.08741">
        <ele>213</ele>
        <time>2016-09-03T08:28:10Z</time>
      </trkpt>
      <trkpt lat="43.9781" lon="5.08737">
        <ele>215</ele>
        <time>2016-09-03T08:28:15Z</time>
      </trkpt>
      <trkpt lat="43.97795" lon="5.08733">
        <ele>218</ele>
        <time>2016-09-03T08:28:20Z</time>
      </trkpt>
      <trkpt lat="43.97782" lon="5.0873">
        <ele>219</ele>
        <time>2016-09-03T08:28:25Z</time>
      </trkpt>
      <trkpt lat="43.97767" lon="5.08727">
        <ele>219</ele>
        <time>2016-09-03T08:28:30Z</time>
      </trkpt>
      <trkpt lat="43.97749" lon="5.08722">
        <ele>216</ele>
        <time>2016-09-03T08:28:35Z</time>
      </trkpt>
      <trkpt lat="43.97733" lon="5.08737">
        <ele>214</ele>
        <time>2016-09-03T08:28:40Z</time>
      </trkpt>
      <trkpt lat="43.9773" lon="5.0875">
        <ele>214</ele>
        <time>2016-09-03T08:28:45Z</time>
      </trkpt>
      <trkpt lat="43.97726" lon="5.08761">
        <ele>214</ele>
        <time>2016-09-03T08:28:50Z</time>
      </trkpt>
      <trkpt lat="43.97723" lon="5.08771">
        <ele>215</ele>
        <time>2016-09-03T08:28:55Z</time>
      </trkpt>
      <trkpt lat="43.97722" lon="5.08774">
        <ele>215</ele>
        <time>2016-09-03T08:29:00Z</time>
      </trkpt>
      <trkpt lat="43.97717" lon="5.08779">
        <ele>214</ele>
        <time>2016-09-03T08:29:05Z</time>
      </trkpt>
      <trkpt lat="43.97712" lon="5.08789">
        <ele>214</ele>
        <time>2016-09-03T08:29:10Z</time>
      </trkpt>
      <trkpt lat="43.97706" lon="5.08797">
        <ele>214</ele>
        <time>2016-09-03T08:29:15Z</time>
      </trkpt>
      <trkpt lat="43.97702" lon="5.08805">
        <ele>214</ele>
        <time>2016-09-03T08:29:20Z</time>
      </trkpt>
      <trkpt lat="43.97697" lon="5.08811">
        <ele>214</ele>
        <time>2016-09-03T08:29:25Z</time>
      </trkpt>
      <trkpt lat="43.97692" lon="5.08816">
        <ele>214</ele>
        <time>2016-09-03T08:29:30Z</time>
      </trkpt>
      <trkpt lat="43.97687" lon="5.08824">
        <ele>214</ele>
        <time>2016-09-03T08:29:35Z</time>
      </trkpt>
      <trkpt lat="43.97683" lon="5.08832">
        <ele>215</ele>
        <time>2016-09-03T08:29:40Z</time>
      </trkpt>
      <trkpt lat="43.97676" lon="5.08844">
        <ele>216</ele>
        <time>2016-09-03T08:29:48Z</time>
      </trkpt>
      <trkpt lat="43.97674" lon="5.08848">
        <ele>215</ele>
        <time>2016-09-03T08:29:50Z</time>
      </trkpt>
      <trkpt lat="43.97666" lon="5.08867">
        <ele>216</ele>
        <time>2016-09-03T08:29:55Z</time>
      </trkpt>
      <trkpt lat="43.97667" lon="5.08896">
        <ele>222</ele>
        <time>2016-09-03T08:30:00Z</time>
      </trkpt>
      <trkpt lat="43.97673" lon="5.08921">
        <ele>230</ele>
        <time>2016-09-03T08:30:05Z</time>
      </trkpt>
      <trkpt lat="43.97664" lon="5.08935">
        <ele>228</ele>
        <time>2016-09-03T08:30:10Z</time>
      </trkpt>
      <trkpt lat="43.97651" lon="5.08939">
        <ele>221</ele>
        <time>2016-09-03T08:30:15Z</time>
      </trkpt>
      <trkpt lat="43.97639" lon="5.08942">
        <ele>217</ele>
        <time>2016-09-03T08:30:20Z</time>
      </trkpt>
      <trkpt lat="43.97631" lon="5.08948">
        <ele>216</ele>
        <time>2016-09-03T08:30:25Z</time>
      </trkpt>
      <trkpt lat="43.97626" lon="5.08956">
        <ele>217</ele>
        <time>2016-09-03T08:30:30Z</time>
      </trkpt>
      <trkpt lat="43.97622" lon="5.08964">
        <ele>218</ele>
        <time>2016-09-03T08:30:35Z</time>
      </trkpt>
      <trkpt lat="43.9762" lon="5.08973">
        <ele>220</ele>
        <time>2016-09-03T08:30:40Z</time>
      </trkpt>
      <trkpt lat="43.97618" lon="5.08984">
        <ele>222</ele>
        <time>2016-09-03T08:30:45Z</time>
      </trkpt>
      <trkpt lat="43.97615" lon="5.08992">
        <ele>224</ele>
        <time>2016-09-03T08:30:50Z</time>
      </trkpt>
      <trkpt lat="43.97613" lon="5.09003">
        <ele>226</ele>
        <time>2016-09-03T08:30:55Z</time>
      </trkpt>
      <trkpt lat="43.97612" lon="5.09013">
        <ele>228</ele>
        <time>2016-09-03T08:31:00Z</time>
      </trkpt>
      <trkpt lat="43.97609" lon="5.09024">
        <ele>230</ele>
        <time>2016-09-03T08:31:05Z</time>
      </trkpt>
      <trkpt lat="43.97607" lon="5.09034">
        <ele>232</ele>
        <time>2016-09-03T08:31:10Z</time>
      </trkpt>
      <trkpt lat="43.97603" lon="5.09042">
        <ele>233</ele>
        <time>2016-09-03T08:31:15Z</time>
      </trkpt>
      <trkpt lat="43.97602" lon="5.09052">
        <ele>234</ele>
        <time>2016-09-03T08:31:20Z</time>
      </trkpt>
      <trkpt lat="43.97601" lon="5.09062">
        <ele>235</ele>
        <time>2016-09-03T08:31:25Z</time>
      </trkpt>
      <trkpt lat="43.97596" lon="5.0908">
        <ele>237</ele>
        <time>2016-09-03T08:31:33Z</time>
      </trkpt>
      <trkpt lat="43.97596" lon="5.09084">
        <ele>238</ele>
        <time>2016-09-03T08:31:35Z</time>
      </trkpt>
      <trkpt lat="43.97594" lon="5.09094">
        <ele>240</ele>
        <time>2016-09-03T08:31:40Z</time>
      </trkpt>
      <trkpt lat="43.97592" lon="5.09105">
        <ele>241</ele>
        <time>2016-09-03T08:31:45Z</time>
      </trkpt>
      <trkpt lat="43.97588" lon="5.09114">
        <ele>241</ele>
        <time>2016-09-03T08:31:50Z</time>
      </trkpt>
      <trkpt lat="43.97583" lon="5.09121">
        <ele>242</ele>
        <time>2016-09-03T08:31:55Z</time>
      </trkpt>
      <trkpt lat="43.97578" lon="5.09121">
        <ele>241</ele>
        <time>2016-09-03T08:32:00Z</time>
      </trkpt>
      <trkpt lat="43.97575" lon="5.09122">
        <ele>241</ele>
        <time>2016-09-03T08:32:05Z</time>
      </trkpt>
      <trkpt lat="43.97575" lon="5.09123">
        <ele>241</ele>
        <time>2016-09-03T08:32:10Z</time>
      </trkpt>
      <trkpt lat="43.97575" lon="5.09123">
        <ele>241</ele>
        <time>2016-09-03T08:32:15Z</time>
      </trkpt>
      <trkpt lat="43.97575" lon="5.09123">
        <ele>241</ele>
        <time>2016-09-03T08:32:20Z</time>
      </trkpt>
      <trkpt lat="43.97575" lon="5.09123">
        <ele>241</ele>
        <time>2016-09-03T08:32:25Z</time>
      </trkpt>
      <trkpt lat="43.97575" lon="5.09123">
        <ele>241</ele>
        <time>2016-09-03T08:32:30Z</time>
      </trkpt>
      <trkpt lat="43.97575" lon="5.09123">
        <ele>241</ele>
        <time>2016-09-03T08:32:35Z</time>
      </trkpt>
      <trkpt lat="43.97575" lon="5.09123">
        <ele>241</ele>
        <time>2016-09-03T08:32:40Z</time>
      </trkpt>
      <trkpt lat="43.97575" lon="5.09123">
        <ele>241</ele>
        <time>2016-09-03T08:32:45Z</time>
      </trkpt>
      <trkpt lat="43.97575" lon="5.09123">
        <ele>241</ele>
        <time>2016-09-03T08:32:50Z</time>
      </trkpt>
      <trkpt lat="43.97575" lon="5.09123">
        <ele>241</ele>
        <time>2016-09-03T08:32:55Z</time>
      </trkpt>
      <trkpt lat="43.97575" lon="5.09123">
        <ele>241</ele>
        <time>2016-09-03T08:33:00Z</time>
      </trkpt>
      <trkpt lat="43.97575" lon="5.09123">
        <ele>241</ele>
        <time>2016-09-03T08:33:05Z</time>
      </trkpt>
      <trkpt lat="43.97573" lon="5.09122">
        <ele>241</ele>
        <time>2016-09-03T08:33:10Z</time>
      </trkpt>
      <trkpt lat="43.97566" lon="5.09118">
        <ele>240</ele>
        <time>2016-09-03T08:33:16Z</time>
      </trkpt>
      <trkpt lat="43.9756" lon="5.0911">
        <ele>239</ele>
        <time>2016-09-03T08:33:20Z</time>
      </trkpt>
      <trkpt lat="43.97551" lon="5.09098">
        <ele>236</ele>
        <time>2016-09-03T08:33:26Z</time>
      </trkpt>
      <trkpt lat="43.97546" lon="5.0909">
        <ele>236</ele>
        <time>2016-09-03T08:33:30Z</time>
      </trkpt>
      <trkpt lat="43.97539" lon="5.0908">
        <ele>235</ele>
        <time>2016-09-03T08:33:35Z</time>
      </trkpt>
      <trkpt lat="43.97531" lon="5.09072">
        <ele>234</ele>
        <time>2016-09-03T08:33:40Z</time>
      </trkpt>
      <trkpt lat="43.97521" lon="5.09064">
        <ele>234</ele>
        <time>2016-09-03T08:33:45Z</time>
      </trkpt>
      <trkpt lat="43.97506" lon="5.09057">
        <ele>236</ele>
        <time>2016-09-03T08:33:52Z</time>
      </trkpt>
      <trkpt lat="43.97499" lon="5.09054">
        <ele>237</ele>
        <time>2016-09-03T08:33:55Z</time>
      </trkpt>
      <trkpt lat="43.97487" lon="5.0905">
        <ele>239</ele>
        <time>2016-09-03T08:34:00Z</time>
      </trkpt>
      <trkpt lat="43.97476" lon="5.09046">
        <ele>242</ele>
        <time>2016-09-03T08:34:05Z</time>
      </trkpt>
      <trkpt lat="43.97465" lon="5.09043">
        <ele>246</ele>
        <time>2016-09-03T08:34:10Z</time>
      </trkpt>
      <trkpt lat="43.97456" lon="5.09038">
        <ele>249</ele>
        <time>2016-09-03T08:34:15Z</time>
      </trkpt>
      <trkpt lat="43.97451" lon="5.09034">
        <ele>251</ele>
        <time>2016-09-03T08:34:20Z</time>
      </trkpt>
      <trkpt lat="43.97449" lon="5.09021">
        <ele>249</ele>
        <time>2016-09-03T08:34:25Z</time>
      </trkpt>
      <trkpt lat="43.97444" lon="5.09001">
        <ele>248</ele>
        <time>2016-09-03T08:34:30Z</time>
      </trkpt>
      <trkpt lat="43.97436" lon="5.08975">
        <ele>246</ele>
        <time>2016-09-03T08:34:35Z</time>
      </trkpt>
      <trkpt lat="43.97425" lon="5.08945">
        <ele>245</ele>
        <time>2016-09-03T08:34:41Z</time>
      </trkpt>
      <trkpt lat="43.97419" lon="5.08923">
        <ele>245</ele>
        <time>2016-09-03T08:34:45Z</time>
      </trkpt>
      <trkpt lat="43.97411" lon="5.08902">
        <ele>247</ele>
        <time>2016-09-03T08:34:50Z</time>
      </trkpt>
      <trkpt lat="43.97405" lon="5.08864">
        <ele>248</ele>
        <time>2016-09-03T08:34:56Z</time>
      </trkpt>
      <trkpt lat="43.97403" lon="5.08839">
        <ele>248</ele>
        <time>2016-09-03T08:35:00Z</time>
      </trkpt>
      <trkpt lat="43.97396" lon="5.08809">
        <ele>245</ele>
        <time>2016-09-03T08:35:05Z</time>
      </trkpt>
      <trkpt lat="43.97382" lon="5.08784">
        <ele>245</ele>
        <time>2016-09-03T08:35:10Z</time>
      </trkpt>
      <trkpt lat="43.97363" lon="5.08774">
        <ele>249</ele>
        <time>2016-09-03T08:35:15Z</time>
      </trkpt>
      <trkpt lat="43.97348" lon="5.0875">
        <ele>250</ele>
        <time>2016-09-03T08:35:20Z</time>
      </trkpt>
      <trkpt lat="43.97343" lon="5.0874">
        <ele>249</ele>
        <time>2016-09-03T08:35:25Z</time>
      </trkpt>
      <trkpt lat="43.97326" lon="5.08732">
        <ele>253</ele>
        <time>2016-09-03T08:35:30Z</time>
      </trkpt>
      <trkpt lat="43.9731" lon="5.0872">
        <ele>255</ele>
        <time>2016-09-03T08:35:35Z</time>
      </trkpt>
      <trkpt lat="43.97294" lon="5.08712">
        <ele>257</ele>
        <time>2016-09-03T08:35:40Z</time>
      </trkpt>
      <trkpt lat="43.97276" lon="5.08703">
        <ele>257</ele>
        <time>2016-09-03T08:35:45Z</time>
      </trkpt>
      <trkpt lat="43.97258" lon="5.08696">
        <ele>257</ele>
        <time>2016-09-03T08:35:50Z</time>
      </trkpt>
      <trkpt lat="43.97231" lon="5.08689">
        <ele>255</ele>
        <time>2016-09-03T08:35:55Z</time>
      </trkpt>
      <trkpt lat="43.97205" lon="5.08672">
        <ele>253</ele>
        <time>2016-09-03T08:36:00Z</time>
      </trkpt>
      <trkpt lat="43.97167" lon="5.08659">
        <ele>251</ele>
        <time>2016-09-03T08:36:05Z</time>
      </trkpt>
      <trkpt lat="43.97137" lon="5.08643">
        <ele>248</ele>
        <time>2016-09-03T08:36:10Z</time>
      </trkpt>
      <trkpt lat="43.97107" lon="5.08628">
        <ele>245</ele>
        <time>2016-09-03T08:36:16Z</time>
      </trkpt>
      <trkpt lat="43.97077" lon="5.08603">
        <ele>245</ele>
        <time>2016-09-03T08:36:22Z</time>
      </trkpt>
      <trkpt lat="43.97048" lon="5.08561">
        <ele>245</ele>
        <time>2016-09-03T08:36:29Z</time>
      </trkpt>
      <trkpt lat="43.97039" lon="5.08548">
        <ele>245</ele>
        <time>2016-09-03T08:36:32Z</time>
      </trkpt>
      <trkpt lat="43.97024" lon="5.08538">
        <ele>244</ele>
        <time>2016-09-03T08:36:35Z</time>
      </trkpt>
      <trkpt lat="43.96991" lon="5.08515">
        <ele>238</ele>
        <time>2016-09-03T08:36:41Z</time>
      </trkpt>
      <trkpt lat="43.96967" lon="5.08499">
        <ele>235</ele>
        <time>2016-09-03T08:36:45Z</time>
      </trkpt>
      <trkpt lat="43.96939" lon="5.08473">
        <ele>235</ele>
        <time>2016-09-03T08:36:50Z</time>
      </trkpt>
      <trkpt lat="43.96913" lon="5.08446">
        <ele>238</ele>
        <time>2016-09-03T08:36:55Z</time>
      </trkpt>
      <trkpt lat="43.96883" lon="5.08436">
        <ele>237</ele>
        <time>2016-09-03T08:37:01Z</time>
      </trkpt>
      <trkpt lat="43.96863" lon="5.08428">
        <ele>234</ele>
        <time>2016-09-03T08:37:05Z</time>
      </trkpt>
      <trkpt lat="43.9684" lon="5.08411">
        <ele>230</ele>
        <time>2016-09-03T08:37:10Z</time>
      </trkpt>
      <trkpt lat="43.96828" lon="5.08398">
        <ele>229</ele>
        <time>2016-09-03T08:37:18Z</time>
      </trkpt>
      <trkpt lat="43.96826" lon="5.08396">
        <ele>229</ele>
        <time>2016-09-03T08:37:20Z</time>
      </trkpt>
      <trkpt lat="43.96823" lon="5.08394">
        <ele>228</ele>
        <time>2016-09-03T08:37:25Z</time>
      </trkpt>
      <trkpt lat="43.96824" lon="5.08395">
        <ele>228</ele>
        <time>2016-09-03T08:37:30Z</time>
      </trkpt>
      <trkpt lat="43.96823" lon="5.08395">
        <ele>228</ele>
        <time>2016-09-03T08:37:35Z</time>
      </trkpt>
      <trkpt lat="43.9682" lon="5.08393">
        <ele>229</ele>
        <time>2016-09-03T08:37:40Z</time>
      </trkpt>
      <trkpt lat="43.96814" lon="5.08384">
        <ele>230</ele>
        <time>2016-09-03T08:37:46Z</time>
      </trkpt>
      <trkpt lat="43.96809" lon="5.08373">
        <ele>231</ele>
        <time>2016-09-03T08:37:50Z</time>
      </trkpt>
      <trkpt lat="43.96807" lon="5.08367">
        <ele>232</ele>
        <time>2016-09-03T08:37:58Z</time>
      </trkpt>
      <trkpt lat="43.96808" lon="5.08365">
        <ele>232</ele>
        <time>2016-09-03T08:38:00Z</time>
      </trkpt>
      <trkpt lat="43.96805" lon="5.08356">
        <ele>233</ele>
        <time>2016-09-03T08:38:06Z</time>
      </trkpt>
      <trkpt lat="43.96805" lon="5.08353">
        <ele>233</ele>
        <time>2016-09-03T08:38:10Z</time>
      </trkpt>
      <trkpt lat="43.96805" lon="5.08353">
        <ele>233</ele>
        <time>2016-09-03T08:38:15Z</time>
      </trkpt>
      <trkpt lat="43.96805" lon="5.08354">
        <ele>233</ele>
        <time>2016-09-03T08:38:20Z</time>
      </trkpt>
      <trkpt lat="43.96804" lon="5.08354">
        <ele>233</ele>
        <time>2016-09-03T08:38:25Z</time>
      </trkpt>
      <trkpt lat="43.96803" lon="5.08352">
        <ele>233</ele>
        <time>2016-09-03T08:38:30Z</time>
      </trkpt>
      <trkpt lat="43.96802" lon="5.08352">
        <ele>233</ele>
        <time>2016-09-03T08:38:35Z</time>
      </trkpt>
      <trkpt lat="43.96802" lon="5.08353">
        <ele>233</ele>
        <time>2016-09-03T08:38:40Z</time>
      </trkpt>
      <trkpt lat="43.96802" lon="5.08353">
        <ele>233</ele>
        <time>2016-09-03T08:38:45Z</time>
      </trkpt>
      <trkpt lat="43.96802" lon="5.08353">
        <ele>233</ele>
        <time>2016-09-03T08:38:50Z</time>
      </trkpt>
      <trkpt lat="43.96805" lon="5.08354">
        <ele>233</ele>
        <time>2016-09-03T08:38:55Z</time>
      </trkpt>
      <trkpt lat="43.96805" lon="5.08355">
        <ele>233</ele>
        <time>2016-09-03T08:39:00Z</time>
      </trkpt>
      <trkpt lat="43.96805" lon="5.08355">
        <ele>233</ele>
        <time>2016-09-03T08:39:06Z</time>
      </trkpt>
      <trkpt lat="43.96805" lon="5.08355">
        <ele>233</ele>
        <time>2016-09-03T08:39:10Z</time>
      </trkpt>
      <trkpt lat="43.96805" lon="5.08355">
        <ele>233</ele>
        <time>2016-09-03T08:39:15Z</time>
      </trkpt>
      <trkpt lat="43.96805" lon="5.08355">
        <ele>233</ele>
        <time>2016-09-03T08:39:21Z</time>
      </trkpt>
      <trkpt lat="43.96805" lon="5.08355">
        <ele>233</ele>
        <time>2016-09-03T08:39:25Z</time>
      </trkpt>
      <trkpt lat="43.96805" lon="5.08356">
        <ele>233</ele>
        <time>2016-09-03T08:39:33Z</time>
      </trkpt>
      <trkpt lat="43.96804" lon="5.08356">
        <ele>233</ele>
        <time>2016-09-03T08:39:39Z</time>
      </trkpt>
      <trkpt lat="43.96804" lon="5.08356">
        <ele>233</ele>
        <time>2016-09-03T08:39:40Z</time>
      </trkpt>
      <trkpt lat="43.96803" lon="5.08356">
        <ele>233</ele>
        <time>2016-09-03T08:39:45Z</time>
      </trkpt>
      <trkpt lat="43.96803" lon="5.08356">
        <ele>233</ele>
        <time>2016-09-03T08:39:51Z</time>
      </trkpt>
      <trkpt lat="43.96803" lon="5.08356">
        <ele>233</ele>
        <time>2016-09-03T08:39:55Z</time>
      </trkpt>
      <trkpt lat="43.96803" lon="5.08356">
        <ele>233</ele>
        <time>2016-09-03T08:40:00Z</time>
      </trkpt>
      <trkpt lat="43.96803" lon="5.08355">
        <ele>233</ele>
        <time>2016-09-03T08:40:05Z</time>
      </trkpt>
      <trkpt lat="43.96803" lon="5.08355">
        <ele>233</ele>
        <time>2016-09-03T08:40:12Z</time>
      </trkpt>
      <trkpt lat="43.96803" lon="5.08355">
        <ele>233</ele>
        <time>2016-09-03T08:40:15Z</time>
      </trkpt>
      <trkpt lat="43.96803" lon="5.08355">
        <ele>233</ele>
        <time>2016-09-03T08:40:24Z</time>
      </trkpt>
      <trkpt lat="43.96803" lon="5.08355">
        <ele>233</ele>
        <time>2016-09-03T08:40:25Z</time>
      </trkpt>
      <trkpt lat="43.96803" lon="5.08355">
        <ele>233</ele>
        <time>2016-09-03T08:40:31Z</time>
      </trkpt>
      <trkpt lat="43.96803" lon="5.08355">
        <ele>233</ele>
        <time>2016-09-03T08:40:35Z</time>
      </trkpt>
      <trkpt lat="43.96803" lon="5.08355">
        <ele>233</ele>
        <time>2016-09-03T08:40:40Z</time>
      </trkpt>
      <trkpt lat="43.96803" lon="5.08355">
        <ele>233</ele>
        <time>2016-09-03T08:40:45Z</time>
      </trkpt>
      <trkpt lat="43.96803" lon="5.08355">
        <ele>233</ele>
        <time>2016-09-03T08:40:50Z</time>
      </trkpt>
      <trkpt lat="43.96803" lon="5.08355">
        <ele>233</ele>
        <time>2016-09-03T08:40:55Z</time>
      </trkpt>
      <trkpt lat="43.96803" lon="5.08355">
        <ele>233</ele>
        <time>2016-09-03T08:41:00Z</time>
      </trkpt>
      <trkpt lat="43.96803" lon="5.08355">
        <ele>233</ele>
        <time>2016-09-03T08:41:05Z</time>
      </trkpt>
      <trkpt lat="43.96803" lon="5.08355">
        <ele>233</ele>
        <time>2016-09-03T08:41:10Z</time>
      </trkpt>
      <trkpt lat="43.96803" lon="5.08355">
        <ele>233</ele>
        <time>2016-09-03T08:41:15Z</time>
      </trkpt>
      <trkpt lat="43.96803" lon="5.08355">
        <ele>233</ele>
        <time>2016-09-03T08:41:20Z</time>
      </trkpt>
      <trkpt lat="43.96803" lon="5.08355">
        <ele>233</ele>
        <time>2016-09-03T08:41:25Z</time>
      </trkpt>
      <trkpt lat="43.96803" lon="5.08355">
        <ele>233</ele>
        <time>2016-09-03T08:41:30Z</time>
      </trkpt>
      <trkpt lat="43.96803" lon="5.08355">
        <ele>233</ele>
        <time>2016-09-03T08:41:35Z</time>
      </trkpt>
      <trkpt lat="43.96803" lon="5.08355">
        <ele>233</ele>
        <time>2016-09-03T08:41:40Z</time>
      </trkpt>
      <trkpt lat="43.96803" lon="5.08355">
        <ele>233</ele>
        <time>2016-09-03T08:41:45Z</time>
      </trkpt>
      <trkpt lat="43.96803" lon="5.08355">
        <ele>233</ele>
        <time>2016-09-03T08:41:50Z</time>
      </trkpt>
      <trkpt lat="43.96803" lon="5.08355">
        <ele>233</ele>
        <time>2016-09-03T08:41:55Z</time>
      </trkpt>
      <trkpt lat="43.96803" lon="5.08355">
        <ele>233</ele>
        <time>2016-09-03T08:42:00Z</time>
      </trkpt>
      <trkpt lat="43.96803" lon="5.08355">
        <ele>233</ele>
        <time>2016-09-03T08:42:05Z</time>
      </trkpt>
      <trkpt lat="43.96803" lon="5.08355">
        <ele>233</ele>
        <time>2016-09-03T08:42:10Z</time>
      </trkpt>
      <trkpt lat="43.96803" lon="5.08355">
        <ele>233</ele>
        <time>2016-09-03T08:42:15Z</time>
      </trkpt>
      <trkpt lat="43.96803" lon="5.08355">
        <ele>233</ele>
        <time>2016-09-03T08:42:20Z</time>
      </trkpt>
      <trkpt lat="43.96803" lon="5.08355">
        <ele>233</ele>
        <time>2016-09-03T08:42:25Z</time>
      </trkpt>
      <trkpt lat="43.96803" lon="5.08355">
        <ele>233</ele>
        <time>2016-09-03T08:42:34Z</time>
      </trkpt>
      <trkpt lat="43.96803" lon="5.08355">
        <ele>233</ele>
        <time>2016-09-03T08:42:35Z</time>
      </trkpt>
      <trkpt lat="43.96803" lon="5.08355">
        <ele>233</ele>
        <time>2016-09-03T08:42:40Z</time>
      </trkpt>
      <trkpt lat="43.96803" lon="5.08355">
        <ele>233</ele>
        <time>2016-09-03T08:42:45Z</time>
      </trkpt>
      <trkpt lat="43.96803" lon="5.08355">
        <ele>233</ele>
        <time>2016-09-03T08:42:50Z</time>
      </trkpt>
      <trkpt lat="43.96803" lon="5.08355">
        <ele>233</ele>
        <time>2016-09-03T08:42:56Z</time>
      </trkpt>
      <trkpt lat="43.96803" lon="5.08355">
        <ele>233</ele>
        <time>2016-09-03T08:43:00Z</time>
      </trkpt>
      <trkpt lat="43.96803" lon="5.08355">
        <ele>233</ele>
        <time>2016-09-03T08:43:05Z</time>
      </trkpt>
      <trkpt lat="43.96803" lon="5.08355">
        <ele>233</ele>
        <time>2016-09-03T08:43:10Z</time>
      </trkpt>
      <trkpt lat="43.96804" lon="5.08354">
        <ele>233</ele>
        <time>2016-09-03T08:43:15Z</time>
      </trkpt>
      <trkpt lat="43.96803" lon="5.08351">
        <ele>233</ele>
        <time>2016-09-03T08:43:20Z</time>
      </trkpt>
      <trkpt lat="43.96804" lon="5.08351">
        <ele>233</ele>
        <time>2016-09-03T08:43:25Z</time>
      </trkpt>
      <trkpt lat="43.96804" lon="5.08351">
        <ele>233</ele>
        <time>2016-09-03T08:43:30Z</time>
      </trkpt>
      <trkpt lat="43.96804" lon="5.08351">
        <ele>233</ele>
        <time>2016-09-03T08:43:35Z</time>
      </trkpt>
      <trkpt lat="43.96804" lon="5.08351">
        <ele>233</ele>
        <time>2016-09-03T08:43:40Z</time>
      </trkpt>
      <trkpt lat="43.96804" lon="5.08351">
        <ele>233</ele>
        <time>2016-09-03T08:43:45Z</time>
      </trkpt>
      <trkpt lat="43.96804" lon="5.08351">
        <ele>233</ele>
        <time>2016-09-03T08:43:50Z</time>
      </trkpt>
      <trkpt lat="43.96804" lon="5.08351">
        <ele>233</ele>
        <time>2016-09-03T08:43:55Z</time>
      </trkpt>
      <trkpt lat="43.96804" lon="5.08351">
        <ele>233</ele>
        <time>2016-09-03T08:44:00Z</time>
      </trkpt>
      <trkpt lat="43.96804" lon="5.08351">
        <ele>233</ele>
        <time>2016-09-03T08:44:05Z</time>
      </trkpt>
      <trkpt lat="43.96804" lon="5.08351">
        <ele>233</ele>
        <time>2016-09-03T08:44:12Z</time>
      </trkpt>
      <trkpt lat="43.96804" lon="5.08351">
        <ele>233</ele>
        <time>2016-09-03T08:44:15Z</time>
      </trkpt>
      <trkpt lat="43.96804" lon="5.08351">
        <ele>233</ele>
        <time>2016-09-03T08:44:20Z</time>
      </trkpt>
      <trkpt lat="43.96804" lon="5.08351">
        <ele>233</ele>
        <time>2016-09-03T08:44:25Z</time>
      </trkpt>
      <trkpt lat="43.96804" lon="5.08351">
        <ele>233</ele>
        <time>2016-09-03T08:44:31Z</time>
      </trkpt>
      <trkpt lat="43.96804" lon="5.08351">
        <ele>233</ele>
        <time>2016-09-03T08:44:35Z</time>
      </trkpt>
      <trkpt lat="43.96804" lon="5.08351">
        <ele>233</ele>
        <time>2016-09-03T08:44:40Z</time>
      </trkpt>
      <trkpt lat="43.96804" lon="5.08351">
        <ele>233</ele>
        <time>2016-09-03T08:44:45Z</time>
      </trkpt>
      <trkpt lat="43.96804" lon="5.08351">
        <ele>233</ele>
        <time>2016-09-03T08:44:53Z</time>
      </trkpt>
      <trkpt lat="43.96804" lon="5.08351">
        <ele>233</ele>
        <time>2016-09-03T08:44:55Z</time>
      </trkpt>
      <trkpt lat="43.96804" lon="5.0835">
        <ele>233</ele>
        <time>2016-09-03T08:45:00Z</time>
      </trkpt>
      <trkpt lat="43.96803" lon="5.08351">
        <ele>233</ele>
        <time>2016-09-03T08:45:07Z</time>
      </trkpt>
      <trkpt lat="43.96803" lon="5.08351">
        <ele>233</ele>
        <time>2016-09-03T08:45:10Z</time>
      </trkpt>
      <trkpt lat="43.96798" lon="5.08345">
        <ele>233</ele>
        <time>2016-09-03T08:45:15Z</time>
      </trkpt>
      <trkpt lat="43.96793" lon="5.08337">
        <ele>232</ele>
        <time>2016-09-03T08:45:20Z</time>
      </trkpt>
      <trkpt lat="43.96786" lon="5.0833">
        <ele>231</ele>
        <time>2016-09-03T08:45:25Z</time>
      </trkpt>
      <trkpt lat="43.96781" lon="5.08321">
        <ele>230</ele>
        <time>2016-09-03T08:45:30Z</time>
      </trkpt>
      <trkpt lat="43.96763" lon="5.08301">
        <ele>227</ele>
        <time>2016-09-03T08:45:39Z</time>
      </trkpt>
      <trkpt lat="43.96754" lon="5.08294">
        <ele>227</ele>
        <time>2016-09-03T08:45:42Z</time>
      </trkpt>
      <trkpt lat="43.9675" lon="5.08289">
        <ele>227</ele>
        <time>2016-09-03T08:45:45Z</time>
      </trkpt>
      <trkpt lat="43.96748" lon="5.08288">
        <ele>227</ele>
        <time>2016-09-03T08:45:50Z</time>
      </trkpt>
      <trkpt lat="43.96749" lon="5.08289">
        <ele>227</ele>
        <time>2016-09-03T08:45:55Z</time>
      </trkpt>
      <trkpt lat="43.96749" lon="5.08289">
        <ele>227</ele>
        <time>2016-09-03T08:46:00Z</time>
      </trkpt>
      <trkpt lat="43.96748" lon="5.08289">
        <ele>227</ele>
        <time>2016-09-03T08:46:09Z</time>
      </trkpt>
      <trkpt lat="43.96747" lon="5.08291">
        <ele>227</ele>
        <time>2016-09-03T08:46:10Z</time>
      </trkpt>
      <trkpt lat="43.96743" lon="5.08301">
        <ele>227</ele>
        <time>2016-09-03T08:46:15Z</time>
      </trkpt>
      <trkpt lat="43.96734" lon="5.0831">
        <ele>227</ele>
        <time>2016-09-03T08:46:20Z</time>
      </trkpt>
      <trkpt lat="43.9673" lon="5.08323">
        <ele>227</ele>
        <time>2016-09-03T08:46:25Z</time>
      </trkpt>
      <trkpt lat="43.96731" lon="5.08339">
        <ele>227</ele>
        <time>2016-09-03T08:46:30Z</time>
      </trkpt>
      <trkpt lat="43.96732" lon="5.08354">
        <ele>226</ele>
        <time>2016-09-03T08:46:35Z</time>
      </trkpt>
      <trkpt lat="43.96733" lon="5.08371">
        <ele>226</ele>
        <time>2016-09-03T08:46:40Z</time>
      </trkpt>
      <trkpt lat="43.96732" lon="5.08376">
        <ele>225</ele>
        <time>2016-09-03T08:46:45Z</time>
      </trkpt>
      <trkpt lat="43.96732" lon="5.08376">
        <ele>225</ele>
        <time>2016-09-03T08:46:52Z</time>
      </trkpt>
      <trkpt lat="43.9673" lon="5.08377">
        <ele>225</ele>
        <time>2016-09-03T08:46:55Z</time>
      </trkpt>
      <trkpt lat="43.96729" lon="5.08377">
        <ele>225</ele>
        <time>2016-09-03T08:47:00Z</time>
      </trkpt>
      <trkpt lat="43.96729" lon="5.08377">
        <ele>225</ele>
        <time>2016-09-03T08:47:05Z</time>
      </trkpt>
      <trkpt lat="43.96729" lon="5.08377">
        <ele>225</ele>
        <time>2016-09-03T08:47:10Z</time>
      </trkpt>
      <trkpt lat="43.96729" lon="5.08378">
        <ele>225</ele>
        <time>2016-09-03T08:47:15Z</time>
      </trkpt>
      <trkpt lat="43.9673" lon="5.08378">
        <ele>225</ele>
        <time>2016-09-03T08:47:22Z</time>
      </trkpt>
      <trkpt lat="43.96726" lon="5.08377">
        <ele>225</ele>
        <time>2016-09-03T08:47:25Z</time>
      </trkpt>
      <trkpt lat="43.96712" lon="5.0839">
        <ele>222</ele>
        <time>2016-09-03T08:47:31Z</time>
      </trkpt>
      <trkpt lat="43.96695" lon="5.08394">
        <ele>221</ele>
        <time>2016-09-03T08:47:36Z</time>
      </trkpt>
      <trkpt lat="43.96683" lon="5.084">
        <ele>219</ele>
        <time>2016-09-03T08:47:44Z</time>
      </trkpt>
      <trkpt lat="43.96683" lon="5.084">
        <ele>219</ele>
        <time>2016-09-03T08:47:46Z</time>
      </trkpt>
      <trkpt lat="43.96684" lon="5.08399">
        <ele>219</ele>
        <time>2016-09-03T08:47:50Z</time>
      </trkpt>
      <trkpt lat="43.96684" lon="5.08399">
        <ele>219</ele>
        <time>2016-09-03T08:47:55Z</time>
      </trkpt>
      <trkpt lat="43.96684" lon="5.08399">
        <ele>219</ele>
        <time>2016-09-03T08:48:00Z</time>
      </trkpt>
      <trkpt lat="43.96684" lon="5.084">
        <ele>219</ele>
        <time>2016-09-03T08:48:05Z</time>
      </trkpt>
      <trkpt lat="43.96682" lon="5.08403">
        <ele>219</ele>
        <time>2016-09-03T08:48:11Z</time>
      </trkpt>
      <trkpt lat="43.96675" lon="5.08413">
        <ele>217</ele>
        <time>2016-09-03T08:48:16Z</time>
      </trkpt>
      <trkpt lat="43.96665" lon="5.0842">
        <ele>215</ele>
        <time>2016-09-03T08:48:20Z</time>
      </trkpt>
      <trkpt lat="43.96645" lon="5.08432">
        <ele>212</ele>
        <time>2016-09-03T08:48:25Z</time>
      </trkpt>
      <trkpt lat="43.96628" lon="5.08427">
        <ele>210</ele>
        <time>2016-09-03T08:48:30Z</time>
      </trkpt>
      <trkpt lat="43.96615" lon="5.08423">
        <ele>210</ele>
        <time>2016-09-03T08:48:35Z</time>
      </trkpt>
      <trkpt lat="43.96589" lon="5.08411">
        <ele>211</ele>
        <time>2016-09-03T08:48:42Z</time>
      </trkpt>
      <trkpt lat="43.96575" lon="5.08402">
        <ele>211</ele>
        <time>2016-09-03T08:48:45Z</time>
      </trkpt>
      <trkpt lat="43.96558" lon="5.08387">
        <ele>211</ele>
        <time>2016-09-03T08:48:50Z</time>
      </trkpt>
      <trkpt lat="43.96529" lon="5.08362">
        <ele>210</ele>
        <time>2016-09-03T08:48:59Z</time>
      </trkpt>
      <trkpt lat="43.96517" lon="5.08353">
        <ele>208</ele>
        <time>2016-09-03T08:49:02Z</time>
      </trkpt>
      <trkpt lat="43.96491" lon="5.08366">
        <ele>201</ele>
        <time>2016-09-03T08:49:08Z</time>
      </trkpt>
      <trkpt lat="43.96487" lon="5.08361">
        <ele>201</ele>
        <time>2016-09-03T08:49:10Z</time>
      </trkpt>
      <trkpt lat="43.9647" lon="5.08329">
        <ele>199</ele>
        <time>2016-09-03T08:49:19Z</time>
      </trkpt>
      <trkpt lat="43.9647" lon="5.08327">
        <ele>199</ele>
        <time>2016-09-03T08:49:20Z</time>
      </trkpt>
      <trkpt lat="43.96458" lon="5.08308">
        <ele>198</ele>
        <time>2016-09-03T08:49:25Z</time>
      </trkpt>
      <trkpt lat="43.96429" lon="5.08276">
        <ele>201</ele>
        <time>2016-09-03T08:49:34Z</time>
      </trkpt>
      <trkpt lat="43.96419" lon="5.08269">
        <ele>201</ele>
        <time>2016-09-03T08:49:37Z</time>
      </trkpt>
      <trkpt lat="43.96413" lon="5.08258">
        <ele>202</ele>
        <time>2016-09-03T08:49:40Z</time>
      </trkpt>
      <trkpt lat="43.96389" lon="5.08258">
        <ele>199</ele>
        <time>2016-09-03T08:49:45Z</time>
      </trkpt>
      <trkpt lat="43.9637" lon="5.08247">
        <ele>199</ele>
        <time>2016-09-03T08:49:50Z</time>
      </trkpt>
      <trkpt lat="43.96347" lon="5.08233">
        <ele>201</ele>
        <time>2016-09-03T08:49:56Z</time>
      </trkpt>
      <trkpt lat="43.96323" lon="5.08231">
        <ele>201</ele>
        <time>2016-09-03T08:50:00Z</time>
      </trkpt>
      <trkpt lat="43.96294" lon="5.08237">
        <ele>200</ele>
        <time>2016-09-03T08:50:05Z</time>
      </trkpt>
      <trkpt lat="43.96266" lon="5.08236">
        <ele>200</ele>
        <time>2016-09-03T08:50:10Z</time>
      </trkpt>
      <trkpt lat="43.96241" lon="5.08248">
        <ele>197</ele>
        <time>2016-09-03T08:50:15Z</time>
      </trkpt>
      <trkpt lat="43.96205" lon="5.08262">
        <ele>191</ele>
        <time>2016-09-03T08:50:23Z</time>
      </trkpt>
      <trkpt lat="43.96201" lon="5.08262">
        <ele>191</ele>
        <time>2016-09-03T08:50:25Z</time>
      </trkpt>
      <trkpt lat="43.96198" lon="5.0826">
        <ele>191</ele>
        <time>2016-09-03T08:50:30Z</time>
      </trkpt>
      <trkpt lat="43.96199" lon="5.08259">
        <ele>191</ele>
        <time>2016-09-03T08:50:35Z</time>
      </trkpt>
      <trkpt lat="43.96193" lon="5.08248">
        <ele>191</ele>
        <time>2016-09-03T08:50:41Z</time>
      </trkpt>
      <trkpt lat="43.96193" lon="5.08247">
        <ele>191</ele>
        <time>2016-09-03T08:50:45Z</time>
      </trkpt>
      <trkpt lat="43.96194" lon="5.08247">
        <ele>191</ele>
        <time>2016-09-03T08:50:50Z</time>
      </trkpt>
      <trkpt lat="43.96194" lon="5.08246">
        <ele>192</ele>
        <time>2016-09-03T08:50:55Z</time>
      </trkpt>
      <trkpt lat="43.96194" lon="5.08246">
        <ele>192</ele>
        <time>2016-09-03T08:51:00Z</time>
      </trkpt>
      <trkpt lat="43.96194" lon="5.08246">
        <ele>192</ele>
        <time>2016-09-03T08:51:05Z</time>
      </trkpt>
      <trkpt lat="43.96194" lon="5.08246">
        <ele>192</ele>
        <time>2016-09-03T08:51:10Z</time>
      </trkpt>
      <trkpt lat="43.96194" lon="5.08246">
        <ele>192</ele>
        <time>2016-09-03T08:51:15Z</time>
      </trkpt>
      <trkpt lat="43.96194" lon="5.08246">
        <ele>192</ele>
        <time>2016-09-03T08:51:20Z</time>
      </trkpt>
      <trkpt lat="43.96194" lon="5.08246">
        <ele>192</ele>
        <time>2016-09-03T08:51:25Z</time>
      </trkpt>
      <trkpt lat="43.96194" lon="5.08246">
        <ele>192</ele>
        <time>2016-09-03T08:51:30Z</time>
      </trkpt>
      <trkpt lat="43.96194" lon="5.08246">
        <ele>192</ele>
        <time>2016-09-03T08:51:35Z</time>
      </trkpt>
      <trkpt lat="43.96195" lon="5.08246">
        <ele>192</ele>
        <time>2016-09-03T08:51:40Z</time>
      </trkpt>
      <trkpt lat="43.96193" lon="5.08247">
        <ele>191</ele>
        <time>2016-09-03T08:51:47Z</time>
      </trkpt>
      <trkpt lat="43.96193" lon="5.08248">
        <ele>191</ele>
        <time>2016-09-03T08:51:50Z</time>
      </trkpt>
      <trkpt lat="43.96193" lon="5.08248">
        <ele>191</ele>
        <time>2016-09-03T08:51:55Z</time>
      </trkpt>
      <trkpt lat="43.9619" lon="5.08241">
        <ele>191</ele>
        <time>2016-09-03T08:52:01Z</time>
      </trkpt>
      <trkpt lat="43.96183" lon="5.08225">
        <ele>191</ele>
        <time>2016-09-03T08:52:05Z</time>
      </trkpt>
      <trkpt lat="43.96168" lon="5.08205">
        <ele>189</ele>
        <time>2016-09-03T08:52:10Z</time>
      </trkpt>
      <trkpt lat="43.96155" lon="5.08182">
        <ele>188</ele>
        <time>2016-09-03T08:52:15Z</time>
      </trkpt>
      <trkpt lat="43.96138" lon="5.08149">
        <ele>189</ele>
        <time>2016-09-03T08:52:21Z</time>
      </trkpt>
      <trkpt lat="43.96127" lon="5.08124">
        <ele>191</ele>
        <time>2016-09-03T08:52:25Z</time>
      </trkpt>
      <trkpt lat="43.96114" lon="5.08097">
        <ele>188</ele>
        <time>2016-09-03T08:52:30Z</time>
      </trkpt>
      <trkpt lat="43.96099" lon="5.08076">
        <ele>187</ele>
        <time>2016-09-03T08:52:35Z</time>
      </trkpt>
      <trkpt lat="43.96092" lon="5.08055">
        <ele>188</ele>
        <time>2016-09-03T08:52:40Z</time>
      </trkpt>
      <trkpt lat="43.96104" lon="5.08025">
        <ele>190</ele>
        <time>2016-09-03T08:52:47Z</time>
      </trkpt>
      <trkpt lat="43.96109" lon="5.08016">
        <ele>190</ele>
        <time>2016-09-03T08:52:50Z</time>
      </trkpt>
      <trkpt lat="43.96125" lon="5.07993">
        <ele>192</ele>
        <time>2016-09-03T08:52:57Z</time>
      </trkpt>
      <trkpt lat="43.96133" lon="5.07969">
        <ele>195</ele>
        <time>2016-09-03T08:53:03Z</time>
      </trkpt>
      <trkpt lat="43.9613" lon="5.07947">
        <ele>197</ele>
        <time>2016-09-03T08:53:08Z</time>
      </trkpt>
      <trkpt lat="43.96117" lon="5.07933">
        <ele>198</ele>
        <time>2016-09-03T08:53:14Z</time>
      </trkpt>
      <trkpt lat="43.96115" lon="5.07932">
        <ele>199</ele>
        <time>2016-09-03T08:53:15Z</time>
      </trkpt>
      <trkpt lat="43.96103" lon="5.07928">
        <ele>199</ele>
        <time>2016-09-03T08:53:20Z</time>
      </trkpt>
      <trkpt lat="43.96078" lon="5.07929">
        <ele>199</ele>
        <time>2016-09-03T08:53:28Z</time>
      </trkpt>
      <trkpt lat="43.96072" lon="5.07928">
        <ele>199</ele>
        <time>2016-09-03T08:53:30Z</time>
      </trkpt>
      <trkpt lat="43.96056" lon="5.07925">
        <ele>199</ele>
        <time>2016-09-03T08:53:35Z</time>
      </trkpt>
      <trkpt lat="43.96034" lon="5.07915">
        <ele>200</ele>
        <time>2016-09-03T08:53:42Z</time>
      </trkpt>
      <trkpt lat="43.96019" lon="5.07906">
        <ele>200</ele>
        <time>2016-09-03T08:53:46Z</time>
      </trkpt>
      <trkpt lat="43.96006" lon="5.07895">
        <ele>199</ele>
        <time>2016-09-03T08:53:50Z</time>
      </trkpt>
      <trkpt lat="43.95991" lon="5.07878">
        <ele>198</ele>
        <time>2016-09-03T08:53:55Z</time>
      </trkpt>
      <trkpt lat="43.95974" lon="5.07863">
        <ele>196</ele>
        <time>2016-09-03T08:54:00Z</time>
      </trkpt>
      <trkpt lat="43.95959" lon="5.07849">
        <ele>195</ele>
        <time>2016-09-03T08:54:05Z</time>
      </trkpt>
      <trkpt lat="43.95945" lon="5.07834">
        <ele>193</ele>
        <time>2016-09-03T08:54:10Z</time>
      </trkpt>
      <trkpt lat="43.95938" lon="5.07812">
        <ele>193</ele>
        <time>2016-09-03T08:54:16Z</time>
      </trkpt>
      <trkpt lat="43.95929" lon="5.07781">
        <ele>193</ele>
        <time>2016-09-03T08:54:22Z</time>
      </trkpt>
      <trkpt lat="43.95933" lon="5.07756">
        <ele>194</ele>
        <time>2016-09-03T08:54:26Z</time>
      </trkpt>
      <trkpt lat="43.95941" lon="5.07713">
        <ele>194</ele>
        <time>2016-09-03T08:54:31Z</time>
      </trkpt>
      <trkpt lat="43.95948" lon="5.07685">
        <ele>192</ele>
        <time>2016-09-03T08:54:35Z</time>
      </trkpt>
      <trkpt lat="43.95969" lon="5.07653">
        <ele>189</ele>
        <time>2016-09-03T08:54:40Z</time>
      </trkpt>
      <trkpt lat="43.95989" lon="5.07617">
        <ele>187</ele>
        <time>2016-09-03T08:54:45Z</time>
      </trkpt>
      <trkpt lat="43.96012" lon="5.07583">
        <ele>181</ele>
        <time>2016-09-03T08:54:50Z</time>
      </trkpt>
      <trkpt lat="43.96042" lon="5.07518">
        <ele>171</ele>
        <time>2016-09-03T08:54:58Z</time>
      </trkpt>
      <trkpt lat="43.96049" lon="5.07501">
        <ele>169</ele>
        <time>2016-09-03T08:55:00Z</time>
      </trkpt>
      <trkpt lat="43.96056" lon="5.07442">
        <ele>165</ele>
        <time>2016-09-03T08:55:07Z</time>
      </trkpt>
      <trkpt lat="43.96049" lon="5.07417">
        <ele>162</ele>
        <time>2016-09-03T08:55:10Z</time>
      </trkpt>
      <trkpt lat="43.96027" lon="5.07386">
        <ele>159</ele>
        <time>2016-09-03T08:55:15Z</time>
      </trkpt>
      <trkpt lat="43.96009" lon="5.07364">
        <ele>159</ele>
        <time>2016-09-03T08:55:20Z</time>
      </trkpt>
      <trkpt lat="43.95993" lon="5.07349">
        <ele>161</ele>
        <time>2016-09-03T08:55:25Z</time>
      </trkpt>
      <trkpt lat="43.95975" lon="5.07332">
        <ele>165</ele>
        <time>2016-09-03T08:55:30Z</time>
      </trkpt>
      <trkpt lat="43.95957" lon="5.0732">
        <ele>169</ele>
        <time>2016-09-03T08:55:35Z</time>
      </trkpt>
      <trkpt lat="43.95946" lon="5.07318">
        <ele>170</ele>
        <time>2016-09-03T08:55:40Z</time>
      </trkpt>
      <trkpt lat="43.95942" lon="5.07315">
        <ele>171</ele>
        <time>2016-09-03T08:55:45Z</time>
      </trkpt>
      <trkpt lat="43.95942" lon="5.07315">
        <ele>171</ele>
        <time>2016-09-03T08:55:50Z</time>
      </trkpt>
      <trkpt lat="43.95942" lon="5.07316">
        <ele>171</ele>
        <time>2016-09-03T08:55:55Z</time>
      </trkpt>
      <trkpt lat="43.95942" lon="5.07316">
        <ele>171</ele>
        <time>2016-09-03T08:56:00Z</time>
      </trkpt>
      <trkpt lat="43.95942" lon="5.07316">
        <ele>171</ele>
        <time>2016-09-03T08:56:05Z</time>
      </trkpt>
      <trkpt lat="43.95942" lon="5.07316">
        <ele>171</ele>
        <time>2016-09-03T08:56:12Z</time>
      </trkpt>
      <trkpt lat="43.95945" lon="5.07311">
        <ele>171</ele>
        <time>2016-09-03T08:56:15Z</time>
      </trkpt>
      <trkpt lat="43.95958" lon="5.07291">
        <ele>169</ele>
        <time>2016-09-03T08:56:20Z</time>
      </trkpt>
      <trkpt lat="43.95976" lon="5.07273">
        <ele>164</ele>
        <time>2016-09-03T08:56:25Z</time>
      </trkpt>
      <trkpt lat="43.95988" lon="5.07267">
        <ele>162</ele>
        <time>2016-09-03T08:56:30Z</time>
      </trkpt>
      <trkpt lat="43.96002" lon="5.07251">
        <ele>159</ele>
        <time>2016-09-03T08:56:35Z</time>
      </trkpt>
      <trkpt lat="43.96009" lon="5.07226">
        <ele>157</ele>
        <time>2016-09-03T08:56:40Z</time>
      </trkpt>
      <trkpt lat="43.96018" lon="5.07207">
        <ele>155</ele>
        <time>2016-09-03T08:56:45Z</time>
      </trkpt>
      <trkpt lat="43.9602" lon="5.0717">
        <ele>155</ele>
        <time>2016-09-03T08:56:50Z</time>
      </trkpt>
      <trkpt lat="43.96028" lon="5.07135">
        <ele>154</ele>
        <time>2016-09-03T08:56:55Z</time>
      </trkpt>
      <trkpt lat="43.96032" lon="5.07114">
        <ele>153</ele>
        <time>2016-09-03T08:57:00Z</time>
      </trkpt>
      <trkpt lat="43.96037" lon="5.07092">
        <ele>152</ele>
        <time>2016-09-03T08:57:05Z</time>
      </trkpt>
      <trkpt lat="43.96041" lon="5.07068">
        <ele>150</ele>
        <time>2016-09-03T08:57:10Z</time>
      </trkpt>
      <trkpt lat="43.96045" lon="5.07045">
        <ele>149</ele>
        <time>2016-09-03T08:57:15Z</time>
      </trkpt>
      <trkpt lat="43.96048" lon="5.07023">
        <ele>148</ele>
        <time>2016-09-03T08:57:20Z</time>
      </trkpt>
      <trkpt lat="43.9605" lon="5.06999">
        <ele>146</ele>
        <time>2016-09-03T08:57:25Z</time>
      </trkpt>
      <trkpt lat="43.96051" lon="5.06976">
        <ele>145</ele>
        <time>2016-09-03T08:57:30Z</time>
      </trkpt>
      <trkpt lat="43.96054" lon="5.06948">
        <ele>144</ele>
        <time>2016-09-03T08:57:35Z</time>
      </trkpt>
      <trkpt lat="43.96057" lon="5.06932">
        <ele>142</ele>
        <time>2016-09-03T08:57:40Z</time>
      </trkpt>
      <trkpt lat="43.96057" lon="5.06932">
        <ele>142</ele>
        <time>2016-09-03T08:57:45Z</time>
      </trkpt>
      <trkpt lat="43.96057" lon="5.06932">
        <ele>142</ele>
        <time>2016-09-03T08:57:50Z</time>
      </trkpt>
      <trkpt lat="43.96056" lon="5.06932">
        <ele>142</ele>
        <time>2016-09-03T08:57:55Z</time>
      </trkpt>
      <trkpt lat="43.96056" lon="5.06932">
        <ele>142</ele>
        <time>2016-09-03T08:58:00Z</time>
      </trkpt>
      <trkpt lat="43.96057" lon="5.06932">
        <ele>142</ele>
        <time>2016-09-03T08:58:05Z</time>
      </trkpt>
      <trkpt lat="43.96057" lon="5.06933">
        <ele>142</ele>
        <time>2016-09-03T08:58:10Z</time>
      </trkpt>
      <trkpt lat="43.96058" lon="5.06933">
        <ele>142</ele>
        <time>2016-09-03T08:58:15Z</time>
      </trkpt>
      <trkpt lat="43.96058" lon="5.06933">
        <ele>142</ele>
        <time>2016-09-03T08:58:20Z</time>
      </trkpt>
      <trkpt lat="43.96062" lon="5.06937">
        <ele>142</ele>
        <time>2016-09-03T08:58:25Z</time>
      </trkpt>
      <trkpt lat="43.96067" lon="5.06941">
        <ele>142</ele>
        <time>2016-09-03T08:58:30Z</time>
      </trkpt>
      <trkpt lat="43.96067" lon="5.06941">
        <ele>142</ele>
        <time>2016-09-03T08:58:35Z</time>
      </trkpt>
      <trkpt lat="43.96068" lon="5.0694">
        <ele>142</ele>
        <time>2016-09-03T08:58:40Z</time>
      </trkpt>
      <trkpt lat="43.96068" lon="5.06941">
        <ele>142</ele>
        <time>2016-09-03T08:58:45Z</time>
      </trkpt>
      <trkpt lat="43.9607" lon="5.06942">
        <ele>142</ele>
        <time>2016-09-03T08:58:50Z</time>
      </trkpt>
      <trkpt lat="43.96073" lon="5.06944">
        <ele>142</ele>
        <time>2016-09-03T08:58:55Z</time>
      </trkpt>
      <trkpt lat="43.96074" lon="5.06944">
        <ele>142</ele>
        <time>2016-09-03T08:59:00Z</time>
      </trkpt>
      <trkpt lat="43.96075" lon="5.06943">
        <ele>142</ele>
        <time>2016-09-03T08:59:05Z</time>
      </trkpt>
      <trkpt lat="43.96075" lon="5.06944">
        <ele>142</ele>
        <time>2016-09-03T08:59:10Z</time>
      </trkpt>
      <trkpt lat="43.96075" lon="5.06944">
        <ele>142</ele>
        <time>2016-09-03T08:59:15Z</time>
      </trkpt>
      <trkpt lat="43.96075" lon="5.06944">
        <ele>142</ele>
        <time>2016-09-03T08:59:20Z</time>
      </trkpt>
      <trkpt lat="43.96074" lon="5.06946">
        <ele>142</ele>
        <time>2016-09-03T08:59:25Z</time>
      </trkpt>
      <trkpt lat="43.96074" lon="5.06945">
        <ele>142</ele>
        <time>2016-09-03T08:59:30Z</time>
      </trkpt>
      <trkpt lat="43.96075" lon="5.06945">
        <ele>142</ele>
        <time>2016-09-03T08:59:36Z</time>
      </trkpt>
      <trkpt lat="43.96075" lon="5.06946">
        <ele>142</ele>
        <time>2016-09-03T08:59:40Z</time>
      </trkpt>
      <trkpt lat="43.96077" lon="5.06945">
        <ele>142</ele>
        <time>2016-09-03T08:59:45Z</time>
      </trkpt>
      <trkpt lat="43.96077" lon="5.06944">
        <ele>142</ele>
        <time>2016-09-03T08:59:49Z</time>
      </trkpt>
      <trkpt lat="43.96076" lon="5.06945">
        <ele>142</ele>
        <time>2016-09-03T08:59:55Z</time>
      </trkpt>
      <trkpt lat="43.96075" lon="5.06945">
        <ele>142</ele>
        <time>2016-09-03T09:00:00Z</time>
      </trkpt>
      <trkpt lat="43.96075" lon="5.06946">
        <ele>142</ele>
        <time>2016-09-03T09:00:06Z</time>
      </trkpt>
      <trkpt lat="43.96075" lon="5.06946">
        <ele>142</ele>
        <time>2016-09-03T09:00:11Z</time>
      </trkpt>
      <trkpt lat="43.96075" lon="5.06946">
        <ele>142</ele>
        <time>2016-09-03T09:00:15Z</time>
      </trkpt>
      <trkpt lat="43.96075" lon="5.06946">
        <ele>142</ele>
        <time>2016-09-03T09:00:20Z</time>
      </trkpt>
      <trkpt lat="43.96072" lon="5.06942">
        <ele>142</ele>
        <time>2016-09-03T09:00:25Z</time>
      </trkpt>
      <trkpt lat="43.96071" lon="5.06942">
        <ele>142</ele>
        <time>2016-09-03T09:00:33Z</time>
      </trkpt>
      <trkpt lat="43.96071" lon="5.06942">
        <ele>142</ele>
        <time>2016-09-03T09:00:35Z</time>
      </trkpt>
      <trkpt lat="43.96071" lon="5.06942">
        <ele>142</ele>
        <time>2016-09-03T09:00:40Z</time>
      </trkpt>
      <trkpt lat="43.96071" lon="5.06942">
        <ele>142</ele>
        <time>2016-09-03T09:00:45Z</time>
      </trkpt>
      <trkpt lat="43.96071" lon="5.06942">
        <ele>142</ele>
        <time>2016-09-03T09:00:50Z</time>
      </trkpt>
      <trkpt lat="43.96071" lon="5.06942">
        <ele>142</ele>
        <time>2016-09-03T09:00:55Z</time>
      </trkpt>
      <trkpt lat="43.96071" lon="5.06942">
        <ele>142</ele>
        <time>2016-09-03T09:01:00Z</time>
      </trkpt>
      <trkpt lat="43.96071" lon="5.06942">
        <ele>142</ele>
        <time>2016-09-03T09:01:05Z</time>
      </trkpt>
      <trkpt lat="43.96071" lon="5.06942">
        <ele>142</ele>
        <time>2016-09-03T09:01:10Z</time>
      </trkpt>
      <trkpt lat="43.96071" lon="5.06942">
        <ele>142</ele>
        <time>2016-09-03T09:01:15Z</time>
      </trkpt>
      <trkpt lat="43.96071" lon="5.06942">
        <ele>142</ele>
        <time>2016-09-03T09:01:20Z</time>
      </trkpt>
      <trkpt lat="43.96071" lon="5.06942">
        <ele>142</ele>
        <time>2016-09-03T09:01:25Z</time>
      </trkpt>
      <trkpt lat="43.96071" lon="5.06942">
        <ele>142</ele>
        <time>2016-09-03T09:01:30Z</time>
      </trkpt>
      <trkpt lat="43.96071" lon="5.06942">
        <ele>142</ele>
        <time>2016-09-03T09:01:35Z</time>
      </trkpt>
      <trkpt lat="43.96071" lon="5.06942">
        <ele>142</ele>
        <time>2016-09-03T09:01:40Z</time>
      </trkpt>
      <trkpt lat="43.96071" lon="5.06943">
        <ele>142</ele>
        <time>2016-09-03T09:01:46Z</time>
      </trkpt>
      <trkpt lat="43.96071" lon="5.06944">
        <ele>142</ele>
        <time>2016-09-03T09:01:50Z</time>
      </trkpt>
      <trkpt lat="43.96072" lon="5.06944">
        <ele>142</ele>
        <time>2016-09-03T09:01:55Z</time>
      </trkpt>
      <trkpt lat="43.96071" lon="5.06945">
        <ele>142</ele>
        <time>2016-09-03T09:02:00Z</time>
      </trkpt>
      <trkpt lat="43.96071" lon="5.06945">
        <ele>142</ele>
        <time>2016-09-03T09:02:08Z</time>
      </trkpt>
      <trkpt lat="43.96071" lon="5.06945">
        <ele>142</ele>
        <time>2016-09-03T09:02:10Z</time>
      </trkpt>
      <trkpt lat="43.96071" lon="5.06945">
        <ele>142</ele>
        <time>2016-09-03T09:02:15Z</time>
      </trkpt>
      <trkpt lat="43.96071" lon="5.06945">
        <ele>142</ele>
        <time>2016-09-03T09:02:23Z</time>
      </trkpt>
      <trkpt lat="43.96071" lon="5.06943">
        <ele>142</ele>
        <time>2016-09-03T09:02:25Z</time>
      </trkpt>
      <trkpt lat="43.96071" lon="5.06943">
        <ele>142</ele>
        <time>2016-09-03T09:02:30Z</time>
      </trkpt>
      <trkpt lat="43.96071" lon="5.06944">
        <ele>142</ele>
        <time>2016-09-03T09:02:36Z</time>
      </trkpt>
      <trkpt lat="43.96071" lon="5.06944">
        <ele>142</ele>
        <time>2016-09-03T09:02:40Z</time>
      </trkpt>
      <trkpt lat="43.96071" lon="5.06944">
        <ele>142</ele>
        <time>2016-09-03T09:02:45Z</time>
      </trkpt>
      <trkpt lat="43.96071" lon="5.06944">
        <ele>142</ele>
        <time>2016-09-03T09:02:50Z</time>
      </trkpt>
      <trkpt lat="43.96071" lon="5.06944">
        <ele>142</ele>
        <time>2016-09-03T09:02:55Z</time>
      </trkpt>
      <trkpt lat="43.96071" lon="5.06944">
        <ele>142</ele>
        <time>2016-09-03T09:03:00Z</time>
      </trkpt>
      <trkpt lat="43.9607" lon="5.06944">
        <ele>142</ele>
        <time>2016-09-03T09:03:05Z</time>
      </trkpt>
      <trkpt lat="43.96068" lon="5.06942">
        <ele>142</ele>
        <time>2016-09-03T09:03:13Z</time>
      </trkpt>
      <trkpt lat="43.96068" lon="5.06942">
        <ele>142</ele>
        <time>2016-09-03T09:03:15Z</time>
      </trkpt>
      <trkpt lat="43.96069" lon="5.06942">
        <ele>142</ele>
        <time>2016-09-03T09:03:21Z</time>
      </trkpt>
      <trkpt lat="43.9607" lon="5.06943">
        <ele>142</ele>
        <time>2016-09-03T09:03:25Z</time>
      </trkpt>
      <trkpt lat="43.9607" lon="5.06943">
        <ele>142</ele>
        <time>2016-09-03T09:03:30Z</time>
      </trkpt>
      <trkpt lat="43.9607" lon="5.06943">
        <ele>142</ele>
        <time>2016-09-03T09:03:35Z</time>
      </trkpt>
      <trkpt lat="43.96071" lon="5.06943">
        <ele>142</ele>
        <time>2016-09-03T09:03:40Z</time>
      </trkpt>
      <trkpt lat="43.96071" lon="5.06943">
        <ele>142</ele>
        <time>2016-09-03T09:03:45Z</time>
      </trkpt>
      <trkpt lat="43.96071" lon="5.06943">
        <ele>142</ele>
        <time>2016-09-03T09:03:50Z</time>
      </trkpt>
      <trkpt lat="43.96071" lon="5.06943">
        <ele>142</ele>
        <time>2016-09-03T09:03:55Z</time>
      </trkpt>
      <trkpt lat="43.96071" lon="5.06943">
        <ele>142</ele>
        <time>2016-09-03T09:04:04Z</time>
      </trkpt>
      <trkpt lat="43.96071" lon="5.06943">
        <ele>142</ele>
        <time>2016-09-03T09:04:05Z</time>
      </trkpt>
      <trkpt lat="43.96071" lon="5.06943">
        <ele>142</ele>
        <time>2016-09-03T09:04:10Z</time>
      </trkpt>
      <trkpt lat="43.96071" lon="5.06943">
        <ele>142</ele>
        <time>2016-09-03T09:04:15Z</time>
      </trkpt>
      <trkpt lat="43.96071" lon="5.06943">
        <ele>142</ele>
        <time>2016-09-03T09:04:20Z</time>
      </trkpt>
      <trkpt lat="43.96071" lon="5.06943">
        <ele>142</ele>
        <time>2016-09-03T09:04:25Z</time>
      </trkpt>
      <trkpt lat="43.96071" lon="5.06943">
        <ele>142</ele>
        <time>2016-09-03T09:04:30Z</time>
      </trkpt>
      <trkpt lat="43.96071" lon="5.06943">
        <ele>142</ele>
        <time>2016-09-03T09:04:35Z</time>
      </trkpt>
      <trkpt lat="43.96071" lon="5.06943">
        <ele>142</ele>
        <time>2016-09-03T09:04:40Z</time>
      </trkpt>
      <trkpt lat="43.96071" lon="5.06943">
        <ele>142</ele>
        <time>2016-09-03T09:04:45Z</time>
      </trkpt>
      <trkpt lat="43.96071" lon="5.06943">
        <ele>142</ele>
        <time>2016-09-03T09:04:51Z</time>
      </trkpt>
      <trkpt lat="43.96071" lon="5.06943">
        <ele>142</ele>
        <time>2016-09-03T09:04:56Z</time>
      </trkpt>
      <trkpt lat="43.96071" lon="5.06943">
        <ele>142</ele>
        <time>2016-09-03T09:05:00Z</time>
      </trkpt>
      <trkpt lat="43.96071" lon="5.06943">
        <ele>142</ele>
        <time>2016-09-03T09:05:08Z</time>
      </trkpt>
      <trkpt lat="43.96071" lon="5.06943">
        <ele>142</ele>
        <time>2016-09-03T09:05:10Z</time>
      </trkpt>
      <trkpt lat="43.9607" lon="5.06943">
        <ele>142</ele>
        <time>2016-09-03T09:05:15Z</time>
      </trkpt>
      <trkpt lat="43.9607" lon="5.06942">
        <ele>142</ele>
        <time>2016-09-03T09:05:20Z</time>
      </trkpt>
      <trkpt lat="43.9607" lon="5.06942">
        <ele>142</ele>
        <time>2016-09-03T09:05:25Z</time>
      </trkpt>
      <trkpt lat="43.9607" lon="5.06942">
        <ele>142</ele>
        <time>2016-09-03T09:05:30Z</time>
      </trkpt>
      <trkpt lat="43.9607" lon="5.06942">
        <ele>142</ele>
        <time>2016-09-03T09:05:35Z</time>
      </trkpt>
      <trkpt lat="43.96069" lon="5.06943">
        <ele>142</ele>
        <time>2016-09-03T09:05:40Z</time>
      </trkpt>
      <trkpt lat="43.96069" lon="5.06943">
        <ele>142</ele>
        <time>2016-09-03T09:05:45Z</time>
      </trkpt>
      <trkpt lat="43.96069" lon="5.06943">
        <ele>142</ele>
        <time>2016-09-03T09:05:50Z</time>
      </trkpt>
      <trkpt lat="43.96069" lon="5.06943">
        <ele>142</ele>
        <time>2016-09-03T09:05:55Z</time>
      </trkpt>
      <trkpt lat="43.96069" lon="5.06943">
        <ele>142</ele>
        <time>2016-09-03T09:06:00Z</time>
      </trkpt>
      <trkpt lat="43.96069" lon="5.06943">
        <ele>142</ele>
        <time>2016-09-03T09:06:07Z</time>
      </trkpt>
      <trkpt lat="43.96069" lon="5.06943">
        <ele>142</ele>
        <time>2016-09-03T09:06:10Z</time>
      </trkpt>
      <trkpt lat="43.96069" lon="5.06943">
        <ele>142</ele>
        <time>2016-09-03T09:06:15Z</time>
      </trkpt>
      <trkpt lat="43.96069" lon="5.06943">
        <ele>142</ele>
        <time>2016-09-03T09:06:20Z</time>
      </trkpt>
      <trkpt lat="43.96069" lon="5.06943">
        <ele>142</ele>
        <time>2016-09-03T09:06:25Z</time>
      </trkpt>
      <trkpt lat="43.96069" lon="5.06943">
        <ele>142</ele>
        <time>2016-09-03T09:06:30Z</time>
      </trkpt>
      <trkpt lat="43.96069" lon="5.06943">
        <ele>142</ele>
        <time>2016-09-03T09:06:35Z</time>
      </trkpt>
      <trkpt lat="43.96069" lon="5.06943">
        <ele>142</ele>
        <time>2016-09-03T09:06:40Z</time>
      </trkpt>
      <trkpt lat="43.96069" lon="5.06943">
        <ele>142</ele>
        <time>2016-09-03T09:06:45Z</time>
      </trkpt>
      <trkpt lat="43.96069" lon="5.06943">
        <ele>142</ele>
        <time>2016-09-03T09:06:50Z</time>
      </trkpt>
      <trkpt lat="43.96069" lon="5.06943">
        <ele>142</ele>
        <time>2016-09-03T09:06:55Z</time>
      </trkpt>
      <trkpt lat="43.96069" lon="5.06943">
        <ele>142</ele>
        <time>2016-09-03T09:07:00Z</time>
      </trkpt>
      <trkpt lat="43.96069" lon="5.06943">
        <ele>142</ele>
        <time>2016-09-03T09:07:05Z</time>
      </trkpt>
      <trkpt lat="43.96069" lon="5.06943">
        <ele>142</ele>
        <time>2016-09-03T09:07:10Z</time>
      </trkpt>
      <trkpt lat="43.96069" lon="5.06943">
        <ele>142</ele>
        <time>2016-09-03T09:07:15Z</time>
      </trkpt>
      <trkpt lat="43.96069" lon="5.06943">
        <ele>142</ele>
        <time>2016-09-03T09:07:20Z</time>
      </trkpt>
      <trkpt lat="43.96069" lon="5.06943">
        <ele>142</ele>
        <time>2016-09-03T09:07:25Z</time>
      </trkpt>
      <trkpt lat="43.96069" lon="5.06943">
        <ele>142</ele>
        <time>2016-09-03T09:07:30Z</time>
      </trkpt>
      <trkpt lat="43.96069" lon="5.06943">
        <ele>142</ele>
        <time>2016-09-03T09:07:35Z</time>
      </trkpt>
      <trkpt lat="43.96069" lon="5.06943">
        <ele>142</ele>
        <time>2016-09-03T09:07:40Z</time>
      </trkpt>
      <trkpt lat="43.96069" lon="5.06943">
        <ele>142</ele>
        <time>2016-09-03T09:07:45Z</time>
      </trkpt>
      <trkpt lat="43.96069" lon="5.06943">
        <ele>142</ele>
        <time>2016-09-03T09:07:50Z</time>
      </trkpt>
      <trkpt lat="43.96069" lon="5.06943">
        <ele>142</ele>
        <time>2016-09-03T09:07:55Z</time>
      </trkpt>
      <trkpt lat="43.96069" lon="5.06943">
        <ele>142</ele>
        <time>2016-09-03T09:08:00Z</time>
      </trkpt>
      <trkpt lat="43.96069" lon="5.06943">
        <ele>142</ele>
        <time>2016-09-03T09:08:05Z</time>
      </trkpt>
      <trkpt lat="43.96069" lon="5.06944">
        <ele>142</ele>
        <time>2016-09-03T09:08:10Z</time>
      </trkpt>
      <trkpt lat="43.96069" lon="5.06944">
        <ele>142</ele>
        <time>2016-09-03T09:08:15Z</time>
      </trkpt>
      <trkpt lat="43.96069" lon="5.06944">
        <ele>142</ele>
        <time>2016-09-03T09:08:20Z</time>
      </trkpt>
      <trkpt lat="43.96069" lon="5.06944">
        <ele>142</ele>
        <time>2016-09-03T09:08:25Z</time>
      </trkpt>
      <trkpt lat="43.96069" lon="5.06944">
        <ele>142</ele>
        <time>2016-09-03T09:08:30Z</time>
      </trkpt>
      <trkpt lat="43.96069" lon="5.06944">
        <ele>142</ele>
        <time>2016-09-03T09:08:35Z</time>
      </trkpt>
      <trkpt lat="43.96069" lon="5.06944">
        <ele>142</ele>
        <time>2016-09-03T09:08:43Z</time>
      </trkpt>
      <trkpt lat="43.96069" lon="5.06944">
        <ele>142</ele>
        <time>2016-09-03T09:08:45Z</time>
      </trkpt>
      <trkpt lat="43.96069" lon="5.06944">
        <ele>142</ele>
        <time>2016-09-03T09:08:50Z</time>
      </trkpt>
      <trkpt lat="43.96069" lon="5.06944">
        <ele>142</ele>
        <time>2016-09-03T09:08:55Z</time>
      </trkpt>
      <trkpt lat="43.96069" lon="5.06944">
        <ele>142</ele>
        <time>2016-09-03T09:09:00Z</time>
      </trkpt>
      <trkpt lat="43.96069" lon="5.06944">
        <ele>142</ele>
        <time>2016-09-03T09:09:05Z</time>
      </trkpt>
      <trkpt lat="43.96069" lon="5.06944">
        <ele>142</ele>
        <time>2016-09-03T09:09:10Z</time>
      </trkpt>
      <trkpt lat="43.96069" lon="5.06944">
        <ele>142</ele>
        <time>2016-09-03T09:09:15Z</time>
      </trkpt>
      <trkpt lat="43.96069" lon="5.06944">
        <ele>142</ele>
        <time>2016-09-03T09:09:24Z</time>
      </trkpt>
      <trkpt lat="43.96069" lon="5.06944">
        <ele>142</ele>
        <time>2016-09-03T09:09:25Z</time>
      </trkpt>
      <trkpt lat="43.96069" lon="5.06944">
        <ele>142</ele>
        <time>2016-09-03T09:09:32Z</time>
      </trkpt>
      <trkpt lat="43.96069" lon="5.06944">
        <ele>142</ele>
        <time>2016-09-03T09:09:35Z</time>
      </trkpt>
      <trkpt lat="43.96069" lon="5.06944">
        <ele>142</ele>
        <time>2016-09-03T09:09:42Z</time>
      </trkpt>
      <trkpt lat="43.96069" lon="5.06944">
        <ele>142</ele>
        <time>2016-09-03T09:09:48Z</time>
      </trkpt>
      <trkpt lat="43.96069" lon="5.06944">
        <ele>142</ele>
        <time>2016-09-03T09:09:50Z</time>
      </trkpt>
      <trkpt lat="43.96069" lon="5.06944">
        <ele>142</ele>
        <time>2016-09-03T09:09:57Z</time>
      </trkpt>
      <trkpt lat="43.96069" lon="5.06944">
        <ele>142</ele>
        <time>2016-09-03T09:10:00Z</time>
      </trkpt>
      <trkpt lat="43.96069" lon="5.06944">
        <ele>142</ele>
        <time>2016-09-03T09:10:05Z</time>
      </trkpt>
      <trkpt lat="43.96069" lon="5.06944">
        <ele>142</ele>
        <time>2016-09-03T09:10:10Z</time>
      </trkpt>
      <trkpt lat="43.96069" lon="5.06944">
        <ele>142</ele>
        <time>2016-09-03T09:10:15Z</time>
      </trkpt>
      <trkpt lat="43.96069" lon="5.06944">
        <ele>142</ele>
        <time>2016-09-03T09:10:20Z</time>
      </trkpt>
      <trkpt lat="43.96069" lon="5.06944">
        <ele>142</ele>
        <time>2016-09-03T09:10:25Z</time>
      </trkpt>
      <trkpt lat="43.96069" lon="5.06944">
        <ele>142</ele>
        <time>2016-09-03T09:10:31Z</time>
      </trkpt>
      <trkpt lat="43.96069" lon="5.06944">
        <ele>142</ele>
        <time>2016-09-03T09:10:35Z</time>
      </trkpt>
      <trkpt lat="43.96069" lon="5.06944">
        <ele>142</ele>
        <time>2016-09-03T09:10:40Z</time>
      </trkpt>
      <trkpt lat="43.96069" lon="5.06944">
        <ele>142</ele>
        <time>2016-09-03T09:10:45Z</time>
      </trkpt>
      <trkpt lat="43.96069" lon="5.06944">
        <ele>142</ele>
        <time>2016-09-03T09:10:50Z</time>
      </trkpt>
      <trkpt lat="43.96069" lon="5.06944">
        <ele>142</ele>
        <time>2016-09-03T09:10:55Z</time>
      </trkpt>
      <trkpt lat="43.96069" lon="5.06944">
        <ele>142</ele>
        <time>2016-09-03T09:11:00Z</time>
      </trkpt>
      <trkpt lat="43.96069" lon="5.06944">
        <ele>142</ele>
        <time>2016-09-03T09:11:05Z</time>
      </trkpt>
      <trkpt lat="43.96069" lon="5.06944">
        <ele>142</ele>
        <time>2016-09-03T09:11:10Z</time>
      </trkpt>
      <trkpt lat="43.96069" lon="5.06944">
        <ele>142</ele>
        <time>2016-09-03T09:11:15Z</time>
      </trkpt>
      <trkpt lat="43.96069" lon="5.06944">
        <ele>142</ele>
        <time>2016-09-03T09:11:23Z</time>
      </trkpt>
      <trkpt lat="43.96069" lon="5.06944">
        <ele>142</ele>
        <time>2016-09-03T09:11:25Z</time>
      </trkpt>
      <trkpt lat="43.96069" lon="5.06944">
        <ele>142</ele>
        <time>2016-09-03T09:11:32Z</time>
      </trkpt>
      <trkpt lat="43.96069" lon="5.06944">
        <ele>142</ele>
        <time>2016-09-03T09:11:37Z</time>
      </trkpt>
      <trkpt lat="43.96069" lon="5.06944">
        <ele>142</ele>
        <time>2016-09-03T09:11:40Z</time>
      </trkpt>
      <trkpt lat="43.96069" lon="5.06944">
        <ele>142</ele>
        <time>2016-09-03T09:11:45Z</time>
      </trkpt>
      <trkpt lat="43.96069" lon="5.06944">
        <ele>142</ele>
        <time>2016-09-03T09:11:50Z</time>
      </trkpt>
      <trkpt lat="43.96069" lon="5.06944">
        <ele>142</ele>
        <time>2016-09-03T09:11:56Z</time>
      </trkpt>
      <trkpt lat="43.96069" lon="5.06944">
        <ele>142</ele>
        <time>2016-09-03T09:12:00Z</time>
      </trkpt>
      <trkpt lat="43.96069" lon="5.06944">
        <ele>142</ele>
        <time>2016-09-03T09:12:05Z</time>
      </trkpt>
      <trkpt lat="43.96069" lon="5.06944">
        <ele>142</ele>
        <time>2016-09-03T09:12:10Z</time>
      </trkpt>
      <trkpt lat="43.96069" lon="5.06944">
        <ele>142</ele>
        <time>2016-09-03T09:12:15Z</time>
      </trkpt>
      <trkpt lat="43.96069" lon="5.06944">
        <ele>142</ele>
        <time>2016-09-03T09:12:20Z</time>
      </trkpt>
      <trkpt lat="43.96069" lon="5.06944">
        <ele>142</ele>
        <time>2016-09-03T09:12:25Z</time>
      </trkpt>
      <trkpt lat="43.96069" lon="5.06944">
        <ele>142</ele>
        <time>2016-09-03T09:12:30Z</time>
      </trkpt>
      <trkpt lat="43.96069" lon="5.06944">
        <ele>142</ele>
        <time>2016-09-03T09:12:37Z</time>
      </trkpt>
      <trkpt lat="43.96069" lon="5.06944">
        <ele>142</ele>
        <time>2016-09-03T09:12:42Z</time>
      </trkpt>
      <trkpt lat="43.96069" lon="5.06944">
        <ele>142</ele>
        <time>2016-09-03T09:12:45Z</time>
      </trkpt>
      <trkpt lat="43.96069" lon="5.06944">
        <ele>142</ele>
        <time>2016-09-03T09:12:50Z</time>
      </trkpt>
      <trkpt lat="43.96069" lon="5.06944">
        <ele>142</ele>
        <time>2016-09-03T09:12:57Z</time>
      </trkpt>
      <trkpt lat="43.96069" lon="5.06944">
        <ele>142</ele>
        <time>2016-09-03T09:13:00Z</time>
      </trkpt>
      <trkpt lat="43.96069" lon="5.06944">
        <ele>142</ele>
        <time>2016-09-03T09:13:05Z</time>
      </trkpt>
      <trkpt lat="43.96069" lon="5.06944">
        <ele>142</ele>
        <time>2016-09-03T09:13:10Z</time>
      </trkpt>
      <trkpt lat="43.96069" lon="5.06944">
        <ele>142</ele>
        <time>2016-09-03T09:13:15Z</time>
      </trkpt>
      <trkpt lat="43.96069" lon="5.06944">
        <ele>142</ele>
        <time>2016-09-03T09:13:20Z</time>
      </trkpt>
      <trkpt lat="43.96069" lon="5.06944">
        <ele>142</ele>
        <time>2016-09-03T09:13:26Z</time>
      </trkpt>
      <trkpt lat="43.96069" lon="5.06944">
        <ele>142</ele>
        <time>2016-09-03T09:13:29Z</time>
      </trkpt>
      <trkpt lat="43.96069" lon="5.06944">
        <ele>142</ele>
        <time>2016-09-03T09:13:35Z</time>
      </trkpt>
      <trkpt lat="43.96069" lon="5.06944">
        <ele>142</ele>
        <time>2016-09-03T09:13:42Z</time>
      </trkpt>
      <trkpt lat="43.96069" lon="5.06944">
        <ele>142</ele>
        <time>2016-09-03T09:13:45Z</time>
      </trkpt>
      <trkpt lat="43.96069" lon="5.06944">
        <ele>142</ele>
        <time>2016-09-03T09:13:50Z</time>
      </trkpt>
      <trkpt lat="43.96069" lon="5.06944">
        <ele>142</ele>
        <time>2016-09-03T09:13:56Z</time>
      </trkpt>
      <trkpt lat="43.96069" lon="5.06944">
        <ele>142</ele>
        <time>2016-09-03T09:14:00Z</time>
      </trkpt>
      <trkpt lat="43.96069" lon="5.06944">
        <ele>142</ele>
        <time>2016-09-03T09:14:05Z</time>
      </trkpt>
      <trkpt lat="43.96069" lon="5.06943">
        <ele>142</ele>
        <time>2016-09-03T09:14:10Z</time>
      </trkpt>
      <trkpt lat="43.96068" lon="5.06939">
        <ele>142</ele>
        <time>2016-09-03T09:14:15Z</time>
      </trkpt>
      <trkpt lat="43.96062" lon="5.06936">
        <ele>142</ele>
        <time>2016-09-03T09:14:20Z</time>
      </trkpt>
      <trkpt lat="43.9606" lon="5.06931">
        <ele>142</ele>
        <time>2016-09-03T09:14:25Z</time>
      </trkpt>
      <trkpt lat="43.9606" lon="5.06931">
        <ele>142</ele>
        <time>2016-09-03T09:14:30Z</time>
      </trkpt>
      <trkpt lat="43.96056" lon="5.06918">
        <ele>142</ele>
        <time>2016-09-03T09:14:35Z</time>
      </trkpt>
      <trkpt lat="43.96048" lon="5.06891">
        <ele>141</ele>
        <time>2016-09-03T09:14:40Z</time>
      </trkpt>
      <trkpt lat="43.96034" lon="5.0686">
        <ele>141</ele>
        <time>2016-09-03T09:14:45Z</time>
      </trkpt>
      <trkpt lat="43.96025" lon="5.06827">
        <ele>140</ele>
        <time>2016-09-03T09:14:50Z</time>
      </trkpt>
      <trkpt lat="43.96017" lon="5.06792">
        <ele>140</ele>
        <time>2016-09-03T09:14:55Z</time>
      </trkpt>
      <trkpt lat="43.95995" lon="5.0676">
        <ele>140</ele>
        <time>2016-09-03T09:15:00Z</time>
      </trkpt>
      <trkpt lat="43.95974" lon="5.06708">
        <ele>141</ele>
        <time>2016-09-03T09:15:08Z</time>
      </trkpt>
      <trkpt lat="43.95965" lon="5.06691">
        <ele>142</ele>
        <time>2016-09-03T09:15:11Z</time>
      </trkpt>
      <trkpt lat="43.95954" lon="5.06643">
        <ele>142</ele>
        <time>2016-09-03T09:15:18Z</time>
      </trkpt>
      <trkpt lat="43.95951" lon="5.06628">
        <ele>142</ele>
        <time>2016-09-03T09:15:20Z</time>
      </trkpt>
      <trkpt lat="43.95939" lon="5.06596">
        <ele>141</ele>
        <time>2016-09-03T09:15:25Z</time>
      </trkpt>
      <trkpt lat="43.95911" lon="5.06558">
        <ele>141</ele>
        <time>2016-09-03T09:15:31Z</time>
      </trkpt>
      <trkpt lat="43.95891" lon="5.06527">
        <ele>144</ele>
        <time>2016-09-03T09:15:35Z</time>
      </trkpt>
      <trkpt lat="43.95886" lon="5.06488">
        <ele>146</ele>
        <time>2016-09-03T09:15:40Z</time>
      </trkpt>
      <trkpt lat="43.95905" lon="5.06451">
        <ele>147</ele>
        <time>2016-09-03T09:15:46Z</time>
      </trkpt>
      <trkpt lat="43.95926" lon="5.06409">
        <ele>141</ele>
        <time>2016-09-03T09:15:53Z</time>
      </trkpt>
      <trkpt lat="43.95931" lon="5.06394">
        <ele>139</ele>
        <time>2016-09-03T09:15:55Z</time>
      </trkpt>
      <trkpt lat="43.95931" lon="5.06348">
        <ele>134</ele>
        <time>2016-09-03T09:16:00Z</time>
      </trkpt>
      <trkpt lat="43.95905" lon="5.06309">
        <ele>138</ele>
        <time>2016-09-03T09:16:05Z</time>
      </trkpt>
      <trkpt lat="43.95874" lon="5.06272">
        <ele>141</ele>
        <time>2016-09-03T09:16:10Z</time>
      </trkpt>
      <trkpt lat="43.95838" lon="5.06236">
        <ele>139</ele>
        <time>2016-09-03T09:16:16Z</time>
      </trkpt>
      <trkpt lat="43.95801" lon="5.0619">
        <ele>135</ele>
        <time>2016-09-03T09:16:23Z</time>
      </trkpt>
      <trkpt lat="43.95793" lon="5.06173">
        <ele>134</ele>
        <time>2016-09-03T09:16:25Z</time>
      </trkpt>
      <trkpt lat="43.95777" lon="5.06126">
        <ele>132</ele>
        <time>2016-09-03T09:16:30Z</time>
      </trkpt>
      <trkpt lat="43.9574" lon="5.06076">
        <ele>128</ele>
        <time>2016-09-03T09:16:37Z</time>
      </trkpt>
      <trkpt lat="43.95724" lon="5.06065">
        <ele>127</ele>
        <time>2016-09-03T09:16:40Z</time>
      </trkpt>
      <trkpt lat="43.95701" lon="5.06017">
        <ele>126</ele>
        <time>2016-09-03T09:16:47Z</time>
      </trkpt>
      <trkpt lat="43.95688" lon="5.06">
        <ele>125</ele>
        <time>2016-09-03T09:16:50Z</time>
      </trkpt>
      <trkpt lat="43.95656" lon="5.05974">
        <ele>120</ele>
        <time>2016-09-03T09:16:55Z</time>
      </trkpt>
      <trkpt lat="43.9561" lon="5.05962">
        <ele>108</ele>
        <time>2016-09-03T09:17:00Z</time>
      </trkpt>
      <trkpt lat="43.95555" lon="5.0595">
        <ele>103</ele>
        <time>2016-09-03T09:17:06Z</time>
      </trkpt>
      <trkpt lat="43.95516" lon="5.05942">
        <ele>101</ele>
        <time>2016-09-03T09:17:10Z</time>
      </trkpt>
      <trkpt lat="43.95465" lon="5.05951">
        <ele>98</ele>
        <time>2016-09-03T09:17:15Z</time>
      </trkpt>
      <trkpt lat="43.95406" lon="5.05945">
        <ele>93</ele>
        <time>2016-09-03T09:17:21Z</time>
      </trkpt>
      <trkpt lat="43.95383" lon="5.05912">
        <ele>91</ele>
        <time>2016-09-03T09:17:25Z</time>
      </trkpt>
      <trkpt lat="43.95373" lon="5.05886">
        <ele>90</ele>
        <time>2016-09-03T09:17:30Z</time>
      </trkpt>
      <trkpt lat="43.95372" lon="5.05885">
        <ele>90</ele>
        <time>2016-09-03T09:17:36Z</time>
      </trkpt>
      <trkpt lat="43.95372" lon="5.05884">
        <ele>90</ele>
        <time>2016-09-03T09:17:40Z</time>
      </trkpt>
      <trkpt lat="43.95373" lon="5.05884">
        <ele>90</ele>
        <time>2016-09-03T09:17:45Z</time>
      </trkpt>
      <trkpt lat="43.95373" lon="5.05884">
        <ele>90</ele>
        <time>2016-09-03T09:17:50Z</time>
      </trkpt>
      <trkpt lat="43.95373" lon="5.05884">
        <ele>90</ele>
        <time>2016-09-03T09:17:55Z</time>
      </trkpt>
      <trkpt lat="43.95372" lon="5.05884">
        <ele>90</ele>
        <time>2016-09-03T09:18:00Z</time>
      </trkpt>
      <trkpt lat="43.95371" lon="5.05884">
        <ele>90</ele>
        <time>2016-09-03T09:18:05Z</time>
      </trkpt>
      <trkpt lat="43.95371" lon="5.05884">
        <ele>90</ele>
        <time>2016-09-03T09:18:10Z</time>
      </trkpt>
      <trkpt lat="43.95371" lon="5.05885">
        <ele>90</ele>
        <time>2016-09-03T09:18:15Z</time>
      </trkpt>
      <trkpt lat="43.95371" lon="5.05885">
        <ele>90</ele>
        <time>2016-09-03T09:18:20Z</time>
      </trkpt>
      <trkpt lat="43.95371" lon="5.05885">
        <ele>90</ele>
        <time>2016-09-03T09:18:25Z</time>
      </trkpt>
      <trkpt lat="43.95371" lon="5.05885">
        <ele>90</ele>
        <time>2016-09-03T09:18:30Z</time>
      </trkpt>
      <trkpt lat="43.95371" lon="5.05885">
        <ele>90</ele>
        <time>2016-09-03T09:18:35Z</time>
      </trkpt>
      <trkpt lat="43.95371" lon="5.05885">
        <ele>90</ele>
        <time>2016-09-03T09:18:40Z</time>
      </trkpt>
      <trkpt lat="43.95371" lon="5.05885">
        <ele>90</ele>
        <time>2016-09-03T09:18:45Z</time>
      </trkpt>
      <trkpt lat="43.95371" lon="5.05885">
        <ele>90</ele>
        <time>2016-09-03T09:18:52Z</time>
      </trkpt>
      <trkpt lat="43.95371" lon="5.05885">
        <ele>90</ele>
        <time>2016-09-03T09:18:55Z</time>
      </trkpt>
      <trkpt lat="43.95371" lon="5.05885">
        <ele>90</ele>
        <time>2016-09-03T09:19:00Z</time>
      </trkpt>
      <trkpt lat="43.95371" lon="5.05885">
        <ele>90</ele>
        <time>2016-09-03T09:19:05Z</time>
      </trkpt>
      <trkpt lat="43.95371" lon="5.05885">
        <ele>90</ele>
        <time>2016-09-03T09:19:10Z</time>
      </trkpt>
      <trkpt lat="43.95371" lon="5.05885">
        <ele>90</ele>
        <time>2016-09-03T09:19:15Z</time>
      </trkpt>
      <trkpt lat="43.95371" lon="5.05885">
        <ele>90</ele>
        <time>2016-09-03T09:19:20Z</time>
      </trkpt>
      <trkpt lat="43.95371" lon="5.05885">
        <ele>90</ele>
        <time>2016-09-03T09:19:26Z</time>
      </trkpt>
      <trkpt lat="43.95371" lon="5.05885">
        <ele>90</ele>
        <time>2016-09-03T09:19:30Z</time>
      </trkpt>
      <trkpt lat="43.95372" lon="5.05885">
        <ele>90</ele>
        <time>2016-09-03T09:19:35Z</time>
      </trkpt>
      <trkpt lat="43.95372" lon="5.05885">
        <ele>90</ele>
        <time>2016-09-03T09:19:40Z</time>
      </trkpt>
      <trkpt lat="43.95372" lon="5.05885">
        <ele>90</ele>
        <time>2016-09-03T09:19:45Z</time>
      </trkpt>
      <trkpt lat="43.95372" lon="5.05885">
        <ele>90</ele>
        <time>2016-09-03T09:19:50Z</time>
      </trkpt>
      <trkpt lat="43.95373" lon="5.0588">
        <ele>90</ele>
        <time>2016-09-03T09:19:55Z</time>
      </trkpt>
      <trkpt lat="43.95381" lon="5.0587">
        <ele>91</ele>
        <time>2016-09-03T09:20:00Z</time>
      </trkpt>
      <trkpt lat="43.95386" lon="5.05846">
        <ele>91</ele>
        <time>2016-09-03T09:20:05Z</time>
      </trkpt>
      <trkpt lat="43.95384" lon="5.05813">
        <ele>91</ele>
        <time>2016-09-03T09:20:10Z</time>
      </trkpt>
      <trkpt lat="43.95382" lon="5.05774">
        <ele>90</ele>
        <time>2016-09-03T09:20:15Z</time>
      </trkpt>
      <trkpt lat="43.9538" lon="5.05734">
        <ele>89</ele>
        <time>2016-09-03T09:20:20Z</time>
      </trkpt>
      <trkpt lat="43.95386" lon="5.05694">
        <ele>88</ele>
        <time>2016-09-03T09:20:25Z</time>
      </trkpt>
      <trkpt lat="43.95406" lon="5.05664">
        <ele>87</ele>
        <time>2016-09-03T09:20:30Z</time>
      </trkpt>
      <trkpt lat="43.95427" lon="5.05637">
        <ele>86</ele>
        <time>2016-09-03T09:20:35Z</time>
      </trkpt>
      <trkpt lat="43.95452" lon="5.05619">
        <ele>87</ele>
        <time>2016-09-03T09:20:40Z</time>
      </trkpt>
      <trkpt lat="43.95478" lon="5.05601">
        <ele>87</ele>
        <time>2016-09-03T09:20:45Z</time>
      </trkpt>
      <trkpt lat="43.95505" lon="5.05584">
        <ele>87</ele>
        <time>2016-09-03T09:20:50Z</time>
      </trkpt>
      <trkpt lat="43.95532" lon="5.05567">
        <ele>87</ele>
        <time>2016-09-03T09:20:55Z</time>
      </trkpt>
      <trkpt lat="43.95557" lon="5.05545">
        <ele>87</ele>
        <time>2016-09-03T09:21:00Z</time>
      </trkpt>
      <trkpt lat="43.95578" lon="5.05517">
        <ele>88</ele>
        <time>2016-09-03T09:21:05Z</time>
      </trkpt>
      <trkpt lat="43.95597" lon="5.05483">
        <ele>88</ele>
        <time>2016-09-03T09:21:10Z</time>
      </trkpt>
      <trkpt lat="43.95612" lon="5.05446">
        <ele>89</ele>
        <time>2016-09-03T09:21:15Z</time>
      </trkpt>
      <trkpt lat="43.9563" lon="5.05412">
        <ele>89</ele>
        <time>2016-09-03T09:21:20Z</time>
      </trkpt>
      <trkpt lat="43.95657" lon="5.054">
        <ele>89</ele>
        <time>2016-09-03T09:21:25Z</time>
      </trkpt>
      <trkpt lat="43.95677" lon="5.05398">
        <ele>88</ele>
        <time>2016-09-03T09:21:30Z</time>
      </trkpt>
      <trkpt lat="43.95708" lon="5.05394">
        <ele>88</ele>
        <time>2016-09-03T09:21:35Z</time>
      </trkpt>
      <trkpt lat="43.95745" lon="5.05369">
        <ele>88</ele>
        <time>2016-09-03T09:21:42Z</time>
      </trkpt>
      <trkpt lat="43.95752" lon="5.05352">
        <ele>87</ele>
        <time>2016-09-03T09:21:45Z</time>
      </trkpt>
      <trkpt lat="43.9576" lon="5.05337">
        <ele>86</ele>
        <time>2016-09-03T09:21:50Z</time>
      </trkpt>
      <trkpt lat="43.9578" lon="5.05316">
        <ele>85</ele>
        <time>2016-09-03T09:21:55Z</time>
      </trkpt>
      <trkpt lat="43.95805" lon="5.05296">
        <ele>84</ele>
        <time>2016-09-03T09:22:00Z</time>
      </trkpt>
      <trkpt lat="43.95829" lon="5.05277">
        <ele>83</ele>
        <time>2016-09-03T09:22:05Z</time>
      </trkpt>
      <trkpt lat="43.95854" lon="5.05259">
        <ele>82</ele>
        <time>2016-09-03T09:22:10Z</time>
      </trkpt>
      <trkpt lat="43.95879" lon="5.05243">
        <ele>80</ele>
        <time>2016-09-03T09:22:15Z</time>
      </trkpt>
      <trkpt lat="43.95909" lon="5.05238">
        <ele>79</ele>
        <time>2016-09-03T09:22:20Z</time>
      </trkpt>
      <trkpt lat="43.95949" lon="5.05256">
        <ele>82</ele>
        <time>2016-09-03T09:22:28Z</time>
      </trkpt>
      <trkpt lat="43.95967" lon="5.05278">
        <ele>84</ele>
        <time>2016-09-03T09:22:32Z</time>
      </trkpt>
      <trkpt lat="43.95977" lon="5.05299">
        <ele>85</ele>
        <time>2016-09-03T09:22:35Z</time>
      </trkpt>
      <trkpt lat="43.9599" lon="5.05336">
        <ele>87</ele>
        <time>2016-09-03T09:22:40Z</time>
      </trkpt>
      <trkpt lat="43.96003" lon="5.0537">
        <ele>89</ele>
        <time>2016-09-03T09:22:45Z</time>
      </trkpt>
      <trkpt lat="43.96014" lon="5.05406">
        <ele>89</ele>
        <time>2016-09-03T09:22:50Z</time>
      </trkpt>
      <trkpt lat="43.96017" lon="5.05443">
        <ele>91</ele>
        <time>2016-09-03T09:22:55Z</time>
      </trkpt>
      <trkpt lat="43.9602" lon="5.05483">
        <ele>92</ele>
        <time>2016-09-03T09:23:00Z</time>
      </trkpt>
      <trkpt lat="43.96017" lon="5.05523">
        <ele>94</ele>
        <time>2016-09-03T09:23:05Z</time>
      </trkpt>
      <trkpt lat="43.96024" lon="5.05561">
        <ele>92</ele>
        <time>2016-09-03T09:23:10Z</time>
      </trkpt>
      <trkpt lat="43.96048" lon="5.05558">
        <ele>89</ele>
        <time>2016-09-03T09:23:15Z</time>
      </trkpt>
      <trkpt lat="43.9606" lon="5.05533">
        <ele>89</ele>
        <time>2016-09-03T09:23:20Z</time>
      </trkpt>
      <trkpt lat="43.96074" lon="5.05498">
        <ele>88</ele>
        <time>2016-09-03T09:23:25Z</time>
      </trkpt>
      <trkpt lat="43.96089" lon="5.05464">
        <ele>88</ele>
        <time>2016-09-03T09:23:30Z</time>
      </trkpt>
      <trkpt lat="43.96107" lon="5.05433">
        <ele>88</ele>
        <time>2016-09-03T09:23:35Z</time>
      </trkpt>
      <trkpt lat="43.96126" lon="5.05401">
        <ele>89</ele>
        <time>2016-09-03T09:23:40Z</time>
      </trkpt>
      <trkpt lat="43.96134" lon="5.05364">
        <ele>91</ele>
        <time>2016-09-03T09:23:45Z</time>
      </trkpt>
      <trkpt lat="43.9613" lon="5.05324">
        <ele>90</ele>
        <time>2016-09-03T09:23:50Z</time>
      </trkpt>
      <trkpt lat="43.96126" lon="5.05288">
        <ele>88</ele>
        <time>2016-09-03T09:23:55Z</time>
      </trkpt>
      <trkpt lat="43.9615" lon="5.05221">
        <ele>87</ele>
        <time>2016-09-03T09:24:04Z</time>
      </trkpt>
      <trkpt lat="43.96165" lon="5.05189">
        <ele>86</ele>
        <time>2016-09-03T09:24:10Z</time>
      </trkpt>
      <trkpt lat="43.96168" lon="5.05183">
        <ele>86</ele>
        <time>2016-09-03T09:24:11Z</time>
      </trkpt>
      <trkpt lat="43.96188" lon="5.05155">
        <ele>86</ele>
        <time>2016-09-03T09:24:16Z</time>
      </trkpt>
      <trkpt lat="43.96206" lon="5.05126">
        <ele>86</ele>
        <time>2016-09-03T09:24:21Z</time>
      </trkpt>
      <trkpt lat="43.96224" lon="5.05097">
        <ele>87</ele>
        <time>2016-09-03T09:24:26Z</time>
      </trkpt>
      <trkpt lat="43.96241" lon="5.05069">
        <ele>87</ele>
        <time>2016-09-03T09:24:31Z</time>
      </trkpt>
      <trkpt lat="43.96248" lon="5.05043">
        <ele>87</ele>
        <time>2016-09-03T09:24:36Z</time>
      </trkpt>
      <trkpt lat="43.96261" lon="5.05014">
        <ele>87</ele>
        <time>2016-09-03T09:24:41Z</time>
      </trkpt>
      <trkpt lat="43.96277" lon="5.04983">
        <ele>86</ele>
        <time>2016-09-03T09:24:46Z</time>
      </trkpt>
      <trkpt lat="43.96296" lon="5.04957">
        <ele>86</ele>
        <time>2016-09-03T09:24:51Z</time>
      </trkpt>
      <trkpt lat="43.96318" lon="5.0494">
        <ele>86</ele>
        <time>2016-09-03T09:24:56Z</time>
      </trkpt>
      <trkpt lat="43.96345" lon="5.04926">
        <ele>87</ele>
        <time>2016-09-03T09:25:01Z</time>
      </trkpt>
      <trkpt lat="43.9637" lon="5.04911">
        <ele>87</ele>
        <time>2016-09-03T09:25:06Z</time>
      </trkpt>
      <trkpt lat="43.9639" lon="5.04885">
        <ele>89</ele>
        <time>2016-09-03T09:25:11Z</time>
      </trkpt>
      <trkpt lat="43.96402" lon="5.04849">
        <ele>91</ele>
        <time>2016-09-03T09:25:16Z</time>
      </trkpt>
      <trkpt lat="43.96413" lon="5.04802">
        <ele>94</ele>
        <time>2016-09-03T09:25:23Z</time>
      </trkpt>
      <trkpt lat="43.96408" lon="5.04779">
        <ele>93</ele>
        <time>2016-09-03T09:25:26Z</time>
      </trkpt>
      <trkpt lat="43.96398" lon="5.04741">
        <ele>92</ele>
        <time>2016-09-03T09:25:31Z</time>
      </trkpt>
      <trkpt lat="43.96384" lon="5.04677">
        <ele>87</ele>
        <time>2016-09-03T09:25:40Z</time>
      </trkpt>
      <trkpt lat="43.96401" lon="5.04649">
        <ele>84</ele>
        <time>2016-09-03T09:25:45Z</time>
      </trkpt>
      <trkpt lat="43.96429" lon="5.04644">
        <ele>84</ele>
        <time>2016-09-03T09:25:50Z</time>
      </trkpt>
      <trkpt lat="43.96435" lon="5.04643">
        <ele>84</ele>
        <time>2016-09-03T09:25:50Z</time>
      </trkpt>
      <trkpt lat="43.96458" lon="5.04636">
        <ele>83</ele>
        <time>2016-09-03T09:25:55Z</time>
      </trkpt>
      <trkpt lat="43.96484" lon="5.04628">
        <ele>83</ele>
        <time>2016-09-03T09:26:01Z</time>
      </trkpt>
      <trkpt lat="43.96486" lon="5.04596">
        <ele>81</ele>
        <time>2016-09-03T09:26:09Z</time>
      </trkpt>
      <trkpt lat="43.9648" lon="5.04578">
        <ele>79</ele>
        <time>2016-09-03T09:26:11Z</time>
      </trkpt>
      <trkpt lat="43.96461" lon="5.04525">
        <ele>75</ele>
        <time>2016-09-03T09:26:18Z</time>
      </trkpt>
      <trkpt lat="43.96471" lon="5.04526">
        <ele>76</ele>
        <time>2016-09-03T09:26:25Z</time>
      </trkpt>
      <trkpt lat="43.96472" lon="5.04528">
        <ele>76</ele>
        <time>2016-09-03T09:26:26Z</time>
      </trkpt>
      <trkpt lat="43.96475" lon="5.04533">
        <ele>76</ele>
        <time>2016-09-03T09:26:34Z</time>
      </trkpt>
      <trkpt lat="43.96475" lon="5.04533">
        <ele>76</ele>
        <time>2016-09-03T09:26:36Z</time>
      </trkpt>
    </trkseg>
  </trk>
</gpx>